GFSWCAN_sfc_temp_000.txt.gz
Temp
54 54 54 54 54 54 54 54 53 54 55 55 55 56 56 56 56 49 43 48 43 40 45 48 50 45 45 45 41 47 46 46 45 42 43 43 44 50 50 55 52 51 48 46 47 46 45 60 61 59 60 60 61 63
54 54 54 54 54 54 54 54 54 54 55 55 55 55 56 56 56 53 42 45 51 42 43 49 50 53 52 52 46 47 44 43 46 42 43 43 45 47 47 48 58 51 53 49 48 49 55 57 55 59 62 66 64 62
53 53 53 53 53 54 54 54 54 54 54 55 54 55 55 55 55 52 43 42 42 42 43 43 45 53 57 56 57 43 49 49 50 48 43 44 44 46 43 48 54 57 57 54 52 56 55 56 59 61 62 61 63 63
53 53 53 53 53 53 54 54 54 54 54 54 55 55 55 54 55 54 44 44 43 43 36 40 52 49 56 54 55 56 55 54 52 49 43 43 44 48 46 49 49 53 58 55 52 54 58 60 59 59 61 63 64 64
52 53 53 53 53 53 54 54 54 54 54 54 54 54 55 54 54 50 44 45 46 40 37 38 49 52 52 52 53 54 51 49 47 44 44 46 46 47 46 48 47 49 50 51 49 56 57 55 60 62 62 62 63 63
52 52 53 53 53 53 53 54 54 54 54 54 54 54 54 54 53 43 41 43 45 47 41 34 44 46 51 51 52 50 50 47 46 43 46 49 49 48 46 45 50 51 54 54 52 55 57 59 62 65 62 61 63 63
52 52 52 52 52 53 53 54 53 53 53 53 54 54 53 53 45 41 41 46 51 49 41 35 36 47 51 51 51 49 48 48 47 46 47 49 51 48 45 42 50 51 53 55 56 57 56 57 56 61 62 63 63 63
52 53 52 52 52 53 53 53 53 53 53 53 53 54 54 53 49 43 50 51 51 46 42 33 36 42 48 47 47 48 47 45 46 49 49 48 50 48 43 48 52 55 56 56 56 60 57 58 59 59 60 61 59 58
52 52 52 52 52 53 53 53 54 53 53 53 53 53 46 43 39 46 55 54 46 43 38 40 36 37 48 46 47 47 47 43 46 45 46 49 45 42 46 47 51 52 53 54 56 56 57 56 56 57 57 56 55 56
52 52 52 52 52 53 53 53 53 53 53 52 45 44 39 46 56 53 45 40 39 40 38 35 40 37 45 45 46 45 45 43 40 44 50 48 45 50 49 50 51 52 52 54 52 50 51 51 52 53 54 56 57 56
52 52 52 52 53 53 53 53 53 53 50 44 42 42 47 52 44 41 40 38 38 37 38 40 40 40 48 44 44 47 43 42 40 43 46 45 43 47 50 51 52 53 54 53 53 52 51 51 52 52 54 55 55 56
52 52 53 53 53 53 53 52 52 48 46 46 45 46 43 41 37 35 33 37 38 39 43 41 45 43 44 46 45 46 44 45 40 48 44 42 46 48 50 51 51 51 53 54 55 54 54 55 54 54 54 54 54 54
52 52 52 53 53 53 53 52 52 52 50 44 41 37 36 34 32 34 32 37 36 43 45 43 43 44 45 47 47 47 45 41 47 44 42 44 48 50 49 50 52 53 54 54 54 55 55 55 56 54 53 54 54 54
52 52 52 52 52 53 53 52 52 49 43 38 37 33 35 32 38 39 39 39 44 43 43 43 45 44 44 47 45 44 45 47 43 40 39 46 48 50 50 50 51 51 52 53 53 54 54 54 53 54 54 53 52 52
52 52 52 51 52 52 52 52 52 45 40 38 38 33 35 40 43 43 44 43 45 45 43 44 46 46 42 45 45 47 43 39 41 41 45 47 48 49 50 51 50 50 50 50 52 52 53 53 52 51 53 52 53 52
52 50 47 52 52 52 52 49 45 44 40 41 41 40 42 40 41 43 43 44 46 43 43 45 43 42 40 40 41 40 42 38 41 45 47 47 47 48 48 49 50 50 50 50 50 51 52 51 51 50 51 52 53 53
50 43 51 52 53 52 51 44 43 42 43 42 40 44 41 40 39 41 42 43 45 43 39 42 40 37 42 39 39 43 41 43 45 46 46 46 46 47 48 49 50 50 50 50 50 50 51 51 51 50 51 52 54 54
42 45 51 52 51 47 45 43 42 43 40 42 40 42 43 40 39 41 44 44 44 43 43 41 43 39 38 39 40 43 43 45 44 45 46 47 48 48 49 49 50 50 50 50 50 50 51 51 50 49 49 50 51 54
46 47 52 53 50 43 41 41 43 36 39 40 42 41 39 41 42 42 43 45 44 44 44 43 40 39 39 42 42 42 42 43 44 45 46 48 48 50 51 50 50 52 52 50 50 50 50 50 51 50 50 50 50 51
52 52 53 53 50 41 40 37 42 38 36 38 38 38 38 40 40 41 42 43 40 41 40 40 39 41 41 43 43 44 45 45 45 45 45 49 50 51 51 49 50 49 49 51 50 48 50 52 52 51 52 51 51 53
48 48 51 48 43 41 39 37 37 37 37 36 37 37 37 39 39 38 38 40 41 38 39 41 43 43 45 45 45 45 46 45 45 46 48 48 52 50 49 52 49 49 49 50 49 49 48 48 49 50 51 52 52 52
45 52 44 45 41 40 38 39 36 38 36 36 36 37 36 36 37 36 37 38 38 39 40 41 42 43 44 45 45 48 49 50 50 49 46 47 48 50 50 48 48 47 46 46 47 47 48 49 49 51 52 52 51 53
49 46 42 41 37 34 34 39 37 37 34 36 36 35 35 37 38 39 36 36 38 40 42 45 47 49 47 47 49 51 52 52 51 50 50 50 51 48 48 47 47 47 47 47 46 47 48 46 48 50 50 51 51 51
49 41 37 35 36 35 41 39 39 39 38 38 36 34 37 39 42 41 40 42 45 47 48 50 50 50 51 51 50 49 49 49 47 47 47 47 46 45 46 46 47 47 47 47 47 47 48 48 46 49 49 50 50 49
37 36 36 33 34 36 36 36 39 38 36 38 35 35 39 41 39 40 41 45 46 46 48 48 49 49 48 49 49 48 47 48 47 46 46 49 46 45 46 46 46 46 47 48 47 47 47 48 48 49 49 48 48 48
35 36 35 35 33 35 36 36 36 36 38 37 38 41 39 41 42 41 42 45 47 47 49 49 48 47 45 46 46 47 48 47 48 49 48 47 47 47 46 45 45 47 48 47 46 47 48 48 48 48 48 48 44 49
37 41 42 39 39 38 39 40 41 38 38 38 39 40 41 39 42 45 46 47 47 49 49 49 49 48 46 47 48 48 48 47 48 49 47 46 47 47 47 47 46 47 47 48 47 47 47 47 47 48 48 49 49 49
44 44 41 42 41 42 41 42 42 42 43 43 44 43 43 44 44 48 49 51 50 50 52 51 50 49 49 49 49 50 51 49 50 49 48 48 47 47 47 47 46 42 45 46 47 48 47 47 46 46 46 46 46 48
43 45 44 41 41 42 42 44 46 47 48 46 45 45 46 50 50 49 50 50 52 55 52 51 50 50 50 50 49 47 46 46 47 45 44 43 43 46 45 45 45 45 45 46 42 43 45 44 44 44 44 43 43 45
47 47 45 48 47 45 49 49 49 51 50 50 50 49 51 52 52 54 53 54 52 50 47 48 46 46 45 45 45 46 45 44 43 43 42 42 43 43 43 43 43 43 44 44 44 44 42 43 42 43 42 42 42 41
48 48 47 47 47 50 52 52 52 55 54 53 53 52 49 50 53 54 53 53 52 52 50 47 47 45 45 44 42 42 42 45 43 44 43 43 42 42 42 42 43 43 43 43 42 41 41 40 40 39 39 38 38 38
47 48 47 46 47 49 50 49 49 50 52 51 50 51 50 47 44 48 50 49 46 47 47 47 45 43 43 43 43 43 40 42 43 41 41 42 41 41 41 41 42 42 41 41 40 40 39 38 38 37 37 36 37 36
47 47 47 46 46 48 48 48 48 47 48 48 47 49 48 46 44 49 53 51 48 48 46 45 44 43 43 43 42 42 41 42 40 38 38 38 38 38 40 40 41 41 40 39 38 38 37 36 36 36 36 36 35 36

GFSWCAN_sfc_temp_003.txt.gz
Temp
53 54 54 54 54 54 54 54 54 54 54 55 55 56 56 55 55 50 49 50 45 41 47 50 51 46 48 48 42 49 49 51 50 50 53 57 56 62 61 64 61 58 52 49 55 54 55 66 68 67 69 70 72 73
53 53 53 54 54 54 54 54 54 54 54 55 55 55 55 55 55 54 46 54 50 42 46 53 52 54 51 53 48 50 48 48 49 49 52 51 54 61 57 57 66 55 59 50 57 55 63 66 64 71 75 72 74 73
53 53 53 53 54 54 54 54 54 54 54 54 55 55 55 53 55 53 50 51 47 44 47 49 48 57 60 57 58 45 51 55 52 56 49 50 49 57 55 58 61 62 67 59 53 57 61 64 69 71 72 71 73 76
53 53 53 53 53 54 53 54 54 54 54 54 55 55 55 55 55 55 49 52 49 46 38 47 58 53 61 60 57 56 57 57 56 51 48 48 50 59 56 56 59 56 57 58 61 63 63 66 66 67 69 71 71 73
52 53 53 53 53 54 53 53 53 54 54 54 55 55 55 55 54 53 51 51 54 46 38 42 51 57 60 57 56 55 54 51 51 48 47 51 58 57 57 57 48 51 52 58 59 59 60 63 66 66 64 65 69 69
52 52 53 53 53 53 53 54 54 54 54 54 54 55 55 54 53 52 44 49 52 52 40 38 53 52 57 56 54 53 53 52 54 51 51 56 58 57 53 48 51 53 56 57 57 60 59 65 66 70 67 68 70 70
52 52 53 52 53 53 53 54 54 54 53 54 54 54 54 53 51 48 45 46 51 53 42 39 44 55 57 57 56 55 56 55 55 54 52 59 58 59 49 43 51 55 56 58 61 62 59 62 62 67 65 68 67 69
52 52 53 53 53 53 53 53 54 53 54 54 54 54 53 53 51 48 53 52 53 46 46 38 42 49 59 57 55 58 55 54 53 57 58 55 51 52 44 49 54 58 58 57 58 61 60 63 60 61 64 66 65 66
52 52 52 52 53 53 53 53 54 53 53 53 53 53 52 50 47 50 53 53 54 49 42 42 40 45 58 57 56 55 57 53 58 56 57 58 51 43 46 48 50 52 54 55 55 55 55 55 59 59 63 66 64 63
52 52 52 52 53 53 53 53 53 53 52 52 51 48 44 51 55 55 50 47 46 47 46 40 48 45 53 56 54 55 57 55 50 55 60 48 44 50 50 51 51 52 53 56 54 54 56 57 58 60 61 64 65 65
53 53 53 53 53 53 53 53 53 52 52 51 45 44 51 53 52 50 44 42 44 41 45 46 47 45 54 48 51 55 53 54 50 51 53 45 43 48 51 53 55 57 58 58 59 60 61 62 62 62 62 64 65 66
53 52 52 53 53 53 53 52 52 51 49 47 46 50 49 48 44 41 42 45 44 43 49 47 53 50 50 53 53 54 53 54 47 57 52 42 46 53 54 55 58 60 60 61 62 62 62 62 63 62 62 62 63 64
52 52 52 52 52 53 53 52 52 52 51 49 46 42 42 42 36 35 35 43 44 51 52 51 51 51 53 56 54 54 52 49 55 48 43 45 50 53 54 57 57 60 62 62 62 63 64 64 64 63 62 62 64 64
52 52 52 52 52 52 52 52 52 51 48 43 39 35 37 36 38 39 41 43 49 49 50 48 50 49 52 53 54 51 52 52 46 40 39 46 51 53 57 58 59 59 60 60 61 63 63 62 63 64 64 63 63 62
52 52 51 52 52 53 53 52 51 50 45 40 38 32 34 40 44 47 48 48 50 50 48 50 53 52 52 53 52 52 48 42 42 40 44 49 53 56 57 58 59 60 60 60 60 61 62 62 62 63 63 64 63 63
52 51 52 51 52 52 51 52 51 50 46 42 43 40 43 43 46 48 50 50 53 50 51 55 50 46 47 48 46 44 44 37 42 47 51 53 53 55 56 58 59 59 60 61 61 61 61 62 61 60 62 63 63 63
51 51 52 51 52 51 51 50 50 48 45 45 44 48 45 44 45 48 50 51 53 52 49 51 44 41 49 46 43 45 38 42 47 51 54 54 55 55 57 59 59 59 59 60 60 60 60 61 61 62 62 61 59 58
51 53 51 52 52 50 52 51 49 49 44 47 43 45 47 48 47 50 51 52 51 51 51 46 51 45 42 39 41 46 49 53 54 54 56 56 56 56 57 57 58 59 60 60 60 60 62 63 64 64 61 61 62 63
52 53 53 53 52 49 45 49 49 44 46 47 48 49 48 50 51 51 52 53 52 53 53 51 47 44 43 46 48 50 52 52 52 54 54 55 56 56 57 58 59 60 57 58 60 63 63 61 62 64 66 66 66 67
52 52 53 53 53 48 47 46 51 46 44 45 48 47 46 49 49 51 52 51 50 53 50 48 48 49 49 51 53 53 53 52 52 55 55 57 57 57 57 58 59 59 61 61 61 54 63 64 64 64 64 64 65 66
52 53 53 53 51 49 47 45 46 44 44 44 46 46 46 50 48 47 48 50 52 47 49 51 52 53 53 53 53 53 53 53 53 53 53 51 53 57 58 58 60 59 56 57 60 60 58 60 62 64 65 65 65 66
51 52 51 52 48 47 46 47 44 46 45 47 47 47 45 44 44 46 46 50 48 49 50 51 53 53 54 54 54 54 54 55 56 56 49 51 54 58 57 58 59 58 58 58 59 59 60 61 60 62 63 63 60 65
51 50 49 48 44 41 41 49 44 45 40 42 46 43 43 44 47 51 44 45 44 46 48 49 51 53 52 53 57 57 57 57 56 56 57 56 58 57 58 58 60 59 59 58 60 60 59 51 58 60 61 62 62 62
50 46 42 40 41 37 44 41 43 41 42 40 38 36 39 41 44 44 42 45 50 50 52 53 54 56 57 57 54 54 56 58 60 60 56 58 59 56 59 60 61 61 59 60 60 60 60 59 52 60 60 60 60 59
39 38 40 35 41 40 41 41 42 42 41 42 39 42 44 46 44 45 45 49 51 53 53 55 53 54 55 59 60 59 58 60 60 61 61 62 61 60 60 61 61 60 60 59 58 58 58 59 59 59 59 58 57 57
36 42 38 42 42 40 43 42 42 43 43 43 45 48 48 47 47 46 50 50 52 53 54 56 57 57 55 57 58 59 59 60 60 61 60 60 60 59 58 57 57 58 60 59 57 56 57 58 57 57 57 56 49 55
40 45 47 47 45 45 45 46 46 45 44 45 47 47 49 45 47 50 53 53 55 55 57 58 58 58 57 58 59 60 61 59 57 57 57 58 58 58 57 55 53 55 57 57 57 56 55 55 55 55 55 57 57 56
48 46 45 49 45 47 46 49 48 48 50 51 51 48 48 48 45 51 55 57 58 59 60 59 59 60 59 58 57 57 58 59 62 61 61 60 57 57 55 57 56 43 54 52 54 55 54 53 53 52 52 51 51 53
46 52 48 48 48 49 50 51 54 56 57 55 53 49 50 51 52 53 56 59 61 60 57 56 57 61 60 60 57 56 55 56 54 51 50 51 53 54 55 55 54 54 55 54 41 45 48 48 48 49 50 50 50 51
53 55 52 53 52 53 57 58 57 59 59 58 56 54 53 53 55 59 58 57 56 54 56 56 55 55 54 54 54 55 56 55 53 51 49 48 49 51 51 51 51 51 52 51 51 51 44 48 46 49 47 47 46 45
56 57 54 54 54 58 57 60 62 63 60 57 57 51 49 53 53 51 50 50 50 53 53 52 52 51 51 50 49 49 50 53 51 51 51 51 51 50 49 49 50 50 49 48 48 47 46 45 45 44 43 42 42 42
55 54 53 52 55 57 56 54 54 56 55 50 47 48 49 47 45 48 53 52 52 53 49 52 51 49 51 52 52 51 42 49 49 49 48 49 48 48 48 48 48 48 46 46 45 44 43 42 42 42 42 41 41 42
55 57 56 54 55 55 55 55 54 51 51 48 47 49 50 50 47 51 51 53 54 54 53 52 52 52 50 49 49 48 46 47 42 37 38 37 37 39 46 46 46 45 44 43 43 43 42 41 41 41 41 41 41 41

GFSWCAN_sfc_temp_006.txt.gz
Temp
53 54 54 54 55 54 54 55 55 55 55 55 55 56 56 56 56 50 47 52 44 40 44 53 56 50 47 52 49 53 50 53 54 51 58 63 65 69 69 71 66 65 64 67 67 62 60 72 75 69 73 79 82 84
53 53 54 54 54 54 54 54 54 54 55 55 56 55 56 55 54 52 46 55 53 43 46 57 59 62 59 59 54 54 51 50 56 52 56 60 59 70 67 64 75 67 73 70 69 70 68 71 69 73 81 78 82 83
53 53 53 53 54 53 54 55 54 54 55 55 55 55 55 54 53 52 47 51 51 46 49 54 56 64 67 65 65 51 54 56 56 60 55 55 51 65 59 65 71 72 76 71 67 67 68 69 73 77 80 82 84 85
53 53 53 53 54 54 54 54 54 54 55 55 55 55 56 55 55 54 48 54 51 47 43 55 67 61 67 69 64 62 60 61 56 59 53 52 55 67 62 64 64 67 69 68 65 65 70 71 71 73 74 79 81 83
53 53 53 53 54 54 54 54 54 54 55 55 55 55 55 55 55 54 56 58 56 46 46 50 60 66 68 64 62 62 59 54 49 49 46 51 65 63 69 66 50 53 56 68 66 65 60 57 66 71 71 74 76 78
53 53 53 53 53 54 54 54 55 55 55 54 55 55 55 55 54 56 51 54 58 56 49 46 61 60 64 64 61 59 59 55 54 55 49 48 67 62 52 47 53 56 61 62 67 68 60 58 63 71 70 72 75 76
53 53 53 53 54 54 54 54 54 54 54 54 54 54 54 54 57 52 48 55 54 59 44 42 53 64 63 62 61 60 61 60 60 62 51 46 59 59 50 44 54 58 61 64 67 61 56 57 54 64 72 75 71 76
53 53 53 53 54 54 53 54 54 54 54 54 54 54 53 53 53 54 60 54 57 49 49 39 46 54 65 62 58 63 58 56 62 63 51 48 54 55 45 50 56 58 58 54 55 61 63 63 57 60 70 74 71 67
53 53 53 53 53 53 54 54 54 54 54 53 53 53 58 56 54 56 54 53 56 47 39 44 43 44 68 65 64 61 62 54 63 53 51 55 49 43 46 50 52 56 56 55 55 55 56 57 60 62 63 69 72 71
53 53 53 53 53 53 53 53 53 53 53 53 56 56 51 58 55 58 49 49 49 47 47 46 58 50 58 65 61 61 62 53 46 52 59 47 44 49 51 52 53 54 54 56 51 50 53 54 56 60 62 65 68 70
53 53 53 53 53 53 53 53 53 53 55 56 50 49 59 58 58 56 48 44 45 43 52 53 54 50 61 52 57 66 60 58 46 51 48 44 41 48 52 52 53 55 55 57 59 57 58 61 65 65 64 69 70 71
52 52 52 52 53 53 53 53 52 57 56 52 49 52 57 55 52 45 46 47 42 46 56 53 54 55 54 61 60 63 60 61 49 61 52 39 44 49 51 56 56 57 57 59 63 64 65 66 66 65 65 65 68 70
52 52 52 52 53 53 53 53 53 52 54 57 51 48 49 49 37 38 38 44 44 53 58 57 54 58 59 63 62 62 55 51 62 52 46 45 49 53 54 58 60 62 63 63 65 67 69 69 69 67 65 67 68 67
52 52 52 52 53 53 53 52 52 53 54 47 42 35 36 36 40 42 43 47 56 58 58 59 57 51 64 60 61 54 60 62 49 44 41 47 52 54 56 59 63 63 64 65 66 67 67 70 70 70 70 69 70 69
52 52 52 54 53 53 52 52 52 57 50 41 38 32 36 42 47 53 56 58 61 62 61 62 62 62 60 57 60 58 52 43 41 40 47 53 55 58 59 61 63 65 66 65 67 68 68 69 70 69 70 71 70 70
53 53 59 53 53 53 52 56 61 60 52 47 45 42 48 49 53 56 57 58 63 62 64 65 57 54 53 54 49 44 44 37 42 45 50 56 59 60 59 63 65 66 66 67 68 69 70 69 68 68 71 71 71 70
52 60 54 53 53 53 53 60 60 54 55 51 50 56 54 55 54 57 58 58 63 63 57 58 49 47 56 47 40 42 37 39 48 52 55 58 58 59 62 64 65 67 66 67 69 69 68 70 71 70 68 69 70 71
60 61 55 53 54 59 64 63 59 57 51 56 52 54 56 59 56 58 58 60 60 59 59 53 57 47 43 39 42 46 48 51 53 56 58 61 60 62 64 64 65 67 66 67 68 70 70 70 70 71 70 71 73 73
56 56 53 53 54 56 55 58 58 51 55 57 56 59 58 59 60 60 61 61 61 63 63 58 51 47 45 48 49 53 53 55 55 60 62 61 62 63 64 65 66 66 66 65 65 69 70 68 69 71 73 74 73 74
52 53 53 53 55 57 53 54 62 55 51 53 58 56 58 57 60 62 62 62 63 60 56 52 52 53 55 58 60 60 62 62 59 58 59 60 67 66 63 66 67 66 69 68 68 59 70 70 71 72 72 71 71 71
56 60 56 59 61 59 56 54 56 55 54 55 57 56 57 60 58 58 57 63 59 56 54 58 59 61 60 61 63 63 63 62 57 57 58 55 62 67 67 68 68 69 68 67 67 66 63 66 68 70 70 70 70 72
59 54 59 60 56 55 56 58 54 56 55 56 56 57 55 53 53 55 58 54 52 51 53 55 57 58 59 58 59 61 60 62 61 59 51 55 63 64 65 66 67 66 65 65 65 65 65 66 66 67 68 67 65 70
54 55 58 56 49 45 46 58 50 49 45 49 55 50 47 47 49 53 44 48 48 56 55 57 58 61 60 61 62 62 63 63 61 60 60 61 65 65 67 66 68 65 64 64 66 66 65 56 63 65 67 67 67 67
52 51 48 48 48 45 55 51 55 53 53 49 42 40 44 48 52 47 46 48 53 57 57 58 60 59 63 63 64 63 65 69 69 69 68 69 69 66 68 68 70 68 66 67 67 66 66 65 57 65 65 65 65 65
44 42 46 39 50 48 50 51 50 52 48 50 46 49 51 53 47 48 48 52 56 57 59 60 64 64 63 64 65 66 66 67 66 66 67 68 67 69 69 70 69 67 67 65 64 64 64 65 65 64 63 63 61 61
39 49 44 52 53 50 52 51 51 51 52 51 52 58 60 55 52 47 50 53 54 60 62 62 62 62 61 63 61 62 63 66 65 63 63 65 65 64 63 62 62 63 65 64 62 61 61 62 62 61 61 60 52 59
47 53 57 58 54 53 54 56 56 54 52 52 55 56 58 49 48 51 57 59 60 62 64 65 65 63 62 62 64 64 66 66 64 63 64 65 64 63 62 59 56 57 62 61 62 61 59 59 59 59 59 60 60 60
56 56 54 59 56 59 54 57 55 54 57 61 59 53 50 50 47 56 60 64 66 67 66 66 66 65 63 62 62 62 63 65 66 66 68 68 67 65 61 63 62 46 58 57 57 57 56 56 55 55 55 55 56 56
58 65 58 56 58 59 59 59 60 62 63 63 57 54 52 56 59 57 57 59 59 59 56 55 60 64 63 63 64 64 62 61 57 53 53 55 56 56 60 59 59 59 59 58 42 47 51 51 52 52 53 54 54 55
62 67 60 59 58 57 60 66 63 65 64 61 58 51 48 49 52 55 52 51 50 50 57 60 60 60 59 58 58 58 62 60 58 55 52 51 53 56 56 56 55 56 56 55 55 55 47 51 51 53 51 51 51 49
67 67 64 62 60 63 64 68 67 65 61 53 50 48 47 48 50 53 54 54 58 62 61 60 60 60 57 56 55 53 53 56 55 55 53 55 55 54 53 53 54 54 53 52 52 51 50 50 50 49 48 47 46 45
66 62 60 59 60 63 64 64 62 55 55 48 49 56 56 55 51 55 60 64 62 60 53 58 56 55 56 57 57 56 45 53 51 51 48 49 49 50 52 53 53 52 51 51 50 50 49 48 47 46 45 44 45 45
67 68 66 65 64 62 64 61 58 54 55 54 55 56 58 55 51 55 63 62 60 59 58 58 58 58 55 55 54 54 50 55 45 38 38 37 36 39 48 50 50 50 49 49 49 49 48 46 45 44 44 44 44 44

GFSWCAN_sfc_temp_009.txt.gz
Temp
54 54 54 54 54 55 55 55 55 55 55 56 56 56 57 56 56 56 55 57 45 40 44 53 56 53 51 55 47 46 58 53 54 49 52 57 58 64 65 70 69 67 67 68 70 65 62 81 83 75 77 83 86 87
54 54 54 54 54 54 55 54 55 55 55 55 56 56 56 56 56 55 49 55 52 42 47 59 61 63 62 63 59 59 55 50 59 50 52 52 50 57 64 60 78 69 76 72 73 73 76 79 76 81 85 84 86 87
54 54 54 54 54 55 55 55 55 55 55 56 56 56 56 56 55 54 51 52 49 43 49 56 58 68 71 67 69 54 59 60 59 60 53 52 47 52 55 64 74 72 84 78 73 72 74 78 82 83 85 85 88 90
53 54 54 54 54 55 55 55 55 55 55 56 56 56 56 56 55 54 50 51 48 45 44 55 73 67 73 74 68 68 64 66 63 62 53 52 49 53 51 52 63 54 58 75 70 72 74 74 76 78 80 85 85 88
53 54 54 54 54 55 55 55 55 56 56 56 55 56 56 56 55 55 54 55 51 43 45 53 64 70 73 71 69 68 65 61 59 52 45 49 57 51 57 57 48 52 51 55 64 73 70 69 75 79 76 76 78 79
53 53 54 54 54 54 55 55 55 55 55 55 55 56 56 56 55 55 47 56 59 55 49 48 67 66 70 70 67 65 65 62 58 45 46 55 64 59 49 49 56 57 59 68 63 74 70 70 72 72 75 78 77 78
53 53 53 54 54 54 54 54 55 55 55 55 55 55 55 55 58 49 47 54 57 62 46 43 48 63 68 68 67 66 66 60 52 46 54 53 55 50 51 45 56 58 63 65 71 70 64 67 59 67 72 76 74 78
53 54 54 54 54 54 54 54 54 54 55 55 55 54 54 54 54 54 59 56 57 50 47 39 46 54 69 63 60 67 59 57 52 49 57 48 49 51 45 50 56 57 58 61 64 68 66 65 60 57 60 63 71 72
53 53 54 54 54 54 54 54 54 54 54 54 54 54 59 58 55 54 55 53 55 48 39 39 38 39 69 55 58 64 66 58 61 57 50 49 45 43 47 49 51 54 53 54 60 58 60 58 56 55 57 60 65 71
53 53 53 53 53 54 54 54 54 54 54 54 57 53 52 62 54 59 51 45 44 49 47 44 59 45 58 63 63 63 64 55 50 47 50 46 43 48 51 52 53 54 54 55 53 53 53 52 53 57 56 58 61 63
53 53 53 53 53 54 54 53 53 53 57 60 56 55 63 61 61 53 45 44 45 43 52 55 55 53 64 50 52 54 49 54 43 43 46 42 41 47 52 53 55 55 56 55 55 57 56 56 56 55 60 64 64 69
53 53 53 53 53 53 54 53 53 58 59 54 53 56 60 56 50 46 44 47 46 39 48 46 55 59 61 63 54 61 52 48 44 50 44 38 43 50 53 53 55 57 58 58 62 63 64 68 69 66 64 65 68 71
53 53 53 53 53 53 54 53 52 52 54 58 52 49 48 50 38 38 37 41 42 51 53 52 52 63 64 60 50 48 54 49 59 46 40 42 48 52 53 56 59 62 63 63 62 66 69 70 71 71 69 72 72 72
53 53 53 53 53 54 53 53 53 56 57 52 46 36 38 39 42 47 47 50 56 59 60 58 59 61 65 61 61 53 53 52 46 40 40 46 50 54 58 61 64 65 68 69 68 67 70 72 70 72 71 72 70 68
53 53 53 55 55 54 53 53 53 62 54 43 43 34 40 48 51 53 56 61 65 69 67 55 64 64 62 58 60 56 51 40 39 41 45 49 54 56 60 63 65 68 67 67 69 69 70 72 71 71 71 72 72 71
53 54 61 55 54 54 53 58 65 65 58 49 47 46 55 53 56 59 62 63 69 69 65 64 60 56 53 52 45 42 42 36 40 47 50 53 54 60 60 62 67 69 69 68 70 70 71 71 71 72 73 73 72 72
52 66 55 54 53 53 56 64 68 61 61 56 54 64 59 58 59 63 65 65 70 67 62 63 51 48 56 47 40 40 38 41 47 49 54 54 56 60 62 63 67 69 70 70 70 70 70 72 72 71 69 71 73 73
63 65 56 54 55 61 71 70 65 64 56 61 57 60 62 63 61 63 66 68 67 66 65 58 61 52 49 42 42 47 48 50 53 54 58 60 61 62 62 63 64 67 68 70 70 70 70 71 72 71 72 73 73 75
58 58 53 53 56 58 62 64 64 57 61 62 63 65 63 63 66 68 68 67 70 71 68 63 53 48 48 51 51 54 56 56 56 58 60 64 63 65 67 68 67 67 68 69 70 72 71 71 72 74 74 75 74 74
52 54 54 54 57 63 59 61 68 61 58 61 64 62 64 62 65 67 68 68 68 64 59 54 55 57 56 58 59 59 58 59 59 58 62 66 67 68 68 70 71 71 72 71 71 62 73 72 73 73 73 72 72 72
59 62 58 63 69 66 63 61 62 62 62 59 64 63 60 63 61 60 58 67 63 59 55 57 57 58 62 61 63 62 62 62 60 61 62 62 67 71 71 72 72 72 71 70 70 69 66 68 70 72 72 72 71 73
64 56 65 68 63 62 62 64 60 62 56 60 60 59 52 51 54 56 60 56 50 51 53 55 56 59 59 60 61 65 63 64 64 61 57 60 63 65 65 69 70 70 70 69 69 68 69 69 69 70 71 70 67 72
56 59 65 64 56 51 53 68 56 57 51 55 60 54 52 53 52 59 47 50 51 53 57 57 59 63 63 66 66 66 68 68 70 70 71 73 71 71 72 72 72 68 67 68 70 69 68 59 65 68 70 69 69 70
51 57 54 55 58 50 64 59 65 62 62 59 54 49 53 55 59 51 47 50 54 59 63 64 68 66 68 66 66 65 66 70 70 71 70 70 70 70 72 73 73 72 69 69 69 68 68 68 60 69 68 67 67 66
49 47 55 42 61 57 56 57 58 61 54 57 53 55 57 61 53 50 47 50 58 64 64 67 67 66 64 65 67 67 67 69 67 66 67 69 68 70 70 70 67 66 68 66 65 65 65 67 67 67 66 66 63 63
43 57 49 60 61 59 59 56 56 57 58 57 58 66 66 59 54 47 47 54 59 62 64 64 64 64 64 65 63 63 65 69 68 65 66 68 67 65 63 62 63 62 65 65 63 62 62 63 63 63 63 62 54 61
50 59 65 68 65 64 62 67 67 64 57 56 61 61 58 51 46 49 57 61 60 63 66 66 65 64 63 64 66 66 67 68 65 66 70 70 69 66 63 61 58 58 64 63 61 61 58 57 58 58 59 60 60 60
63 64 58 65 65 71 60 62 61 59 61 65 60 54 49 47 44 53 56 62 63 62 61 64 65 66 67 67 68 68 67 67 67 67 68 70 68 66 63 64 63 48 61 60 59 59 57 56 55 56 56 56 57 59
64 71 69 63 65 64 62 58 59 65 66 65 57 50 47 49 50 53 56 60 61 54 56 62 64 68 68 68 68 67 66 63 58 54 54 56 57 59 62 61 61 61 61 60 44 49 53 54 54 55 55 56 57 57
67 74 64 64 61 58 63 68 65 67 66 63 57 51 48 49 52 59 61 64 63 65 67 67 67 65 62 61 61 61 64 61 58 54 50 51 54 58 58 58 58 58 58 58 58 58 47 54 54 57 54 53 52 51
72 70 65 62 63 67 67 68 69 68 65 60 58 52 51 58 60 65 68 68 69 68 65 63 63 63 60 59 57 54 55 58 56 54 52 54 55 54 55 56 57 57 57 56 56 56 54 53 53 51 50 49 49 48
72 67 66 61 63 69 69 61 64 62 64 60 59 62 57 52 50 60 66 66 65 63 56 61 60 59 60 61 60 59 45 58 55 53 50 50 51 52 54 55 56 56 54 55 55 55 53 51 50 49 48 47 46 45
71 71 69 68 68 65 69 63 57 56 61 63 59 61 61 58 52 62 68 68 64 63 62 63 63 63 60 58 58 57 54 57 45 38 39 38 37 41 50 53 53 54 53 53 53 52 50 48 47 47 46 45 45 46

GFSWCAN_sfc_temp_012.txt.gz
Temp
54 54 54 55 55 55 55 55 55 55 56 56 56 57 57 57 57 55 54 56 46 40 45 52 54 51 52 51 41 45 40 54 56 47 42 42 43 54 57 65 64 61 61 63 66 59 53 79 76 70 78 84 85 87
54 54 54 54 55 55 55 55 55 55 55 56 56 57 57 57 57 56 49 56 53 44 48 56 59 62 60 59 54 52 46 46 52 49 48 49 46 52 54 52 70 61 69 65 68 70 78 82 80 84 86 85 85 86
54 54 54 55 55 55 55 55 56 56 56 56 57 57 57 57 56 55 52 54 48 43 48 55 55 64 68 66 66 51 57 59 57 55 51 50 47 51 48 57 58 71 60 68 68 76 79 81 85 86 88 86 88 86
54 54 54 54 54 55 55 55 56 56 56 56 56 56 56 56 56 56 51 51 49 44 39 51 69 64 73 73 67 67 63 64 63 61 52 50 46 52 47 48 50 55 59 60 70 76 76 77 79 82 84 82 81 79
54 54 54 54 55 55 55 55 55 56 56 56 56 56 56 57 56 57 56 56 51 43 39 46 60 67 71 71 69 68 63 60 57 52 50 47 52 50 52 50 48 54 53 52 56 60 71 70 77 80 77 78 77 77
54 54 54 54 54 55 55 55 55 55 55 55 56 56 56 56 56 56 44 54 56 50 42 44 63 63 71 70 67 66 64 62 60 54 50 46 55 48 46 47 54 56 61 60 53 55 61 70 74 80 77 78 79 79
54 54 54 54 54 55 55 55 55 55 55 55 55 55 55 55 58 50 47 55 56 59 44 43 48 59 59 69 68 66 66 62 60 51 45 45 51 49 48 44 51 54 56 57 59 59 53 60 65 74 77 78 76 79
54 54 54 54 54 54 54 54 54 55 55 55 55 55 55 54 54 54 62 56 57 52 48 38 42 44 62 62 61 67 60 59 52 48 46 51 51 49 45 50 54 53 55 56 58 64 62 63 64 65 68 71 72 73
53 53 53 53 53 54 54 54 54 54 54 54 54 55 58 56 54 55 56 56 59 50 39 41 37 42 50 50 59 62 61 50 54 44 47 50 43 42 47 50 51 52 53 55 58 62 63 60 59 61 62 63 63 63
53 53 53 53 54 54 54 54 54 53 53 54 59 57 51 57 56 55 49 46 44 45 45 43 51 41 48 54 57 59 63 52 43 45 50 44 42 48 50 51 53 53 54 58 55 52 52 52 54 56 56 61 57 58
53 53 53 53 54 54 54 54 54 53 54 62 57 56 62 63 57 48 44 42 44 41 47 52 51 48 57 47 50 54 48 51 42 42 44 40 39 46 50 52 54 54 55 55 59 61 61 57 55 53 54 57 57 59
53 53 53 53 53 53 53 53 53 59 61 55 53 58 60 55 50 42 39 41 39 35 44 49 52 57 59 61 47 49 45 49 38 48 43 36 42 49 51 53 55 57 58 58 60 62 63 64 64 64 62 61 61 64
53 53 53 53 53 53 54 54 53 53 55 61 54 53 52 52 38 42 38 42 43 46 53 54 49 49 51 52 48 46 43 43 49 43 39 41 46 50 56 60 59 61 63 64 64 66 71 71 70 69 61 61 66 64
53 53 53 53 54 54 54 54 53 57 57 54 48 38 41 39 41 43 46 48 52 48 50 58 54 46 48 47 50 44 47 51 43 39 38 45 49 54 59 63 61 60 64 66 68 70 69 67 63 66 68 70 69 67
52 53 53 56 55 55 54 54 54 62 58 51 52 39 45 52 54 56 58 58 57 53 58 63 64 63 58 54 52 50 47 39 39 41 44 49 52 57 57 60 64 66 66 67 69 69 70 70 69 65 66 63 64 66
52 53 61 55 55 54 54 59 63 69 63 58 56 53 58 57 59 62 64 62 69 64 69 68 58 53 50 49 42 38 39 35 39 46 49 54 57 57 56 57 62 67 68 66 68 69 69 67 67 69 71 71 69 70
51 66 55 55 54 53 56 64 71 65 63 59 57 66 61 57 53 60 64 66 69 67 58 59 47 46 49 41 38 41 39 42 46 49 51 52 53 56 58 56 59 60 62 64 69 65 62 71 71 68 67 66 72 72
61 66 57 54 55 61 72 70 67 64 58 63 58 60 62 66 64 63 68 69 67 64 63 57 57 46 42 39 40 45 48 51 52 52 54 58 59 60 61 61 64 66 65 62 62 68 67 66 65 64 66 67 69 66
58 58 54 52 56 57 66 66 66 57 61 64 65 64 64 65 64 66 68 71 71 70 66 60 50 47 46 50 50 51 52 54 54 56 57 60 60 59 63 67 68 66 65 66 66 70 70 68 70 71 72 72 68 69
52 53 54 55 56 65 62 64 70 63 58 61 64 62 62 64 67 68 66 67 66 63 57 52 50 52 52 55 57 56 56 57 56 55 59 62 68 68 67 66 65 68 70 70 70 62 70 69 71 71 71 69 69 69
59 64 59 64 69 68 65 63 62 63 62 58 64 62 59 63 59 57 56 64 58 52 51 54 55 57 61 61 63 63 61 65 58 60 60 64 66 68 68 70 70 71 70 69 68 67 65 66 68 69 70 69 70 71
67 57 67 70 65 65 62 66 63 63 58 61 62 62 55 54 55 53 57 53 49 52 53 55 57 64 62 61 63 64 63 66 68 67 57 61 68 69 70 71 71 69 69 69 69 68 68 68 68 69 70 68 66 71
59 60 68 68 60 53 53 68 60 62 56 58 59 56 55 56 57 61 47 51 53 57 56 57 63 65 65 66 64 64 65 65 68 68 68 68 68 70 72 72 72 69 67 67 69 68 67 59 65 67 69 68 68 68
53 61 59 59 61 52 68 61 64 61 62 60 57 52 55 56 59 55 49 50 55 59 64 62 66 65 66 63 64 64 65 68 68 68 68 68 67 68 67 67 68 67 66 67 67 66 66 66 60 67 67 66 66 65
50 50 56 41 64 61 59 59 60 61 58 60 57 55 56 60 55 50 48 53 57 60 63 65 65 64 62 63 65 65 66 67 65 65 67 68 66 67 66 63 64 63 65 63 62 62 62 63 63 62 63 63 60 61
43 61 49 63 62 61 60 58 59 59 61 59 60 62 52 52 52 46 50 58 60 61 62 62 61 61 63 64 64 64 66 68 66 64 66 68 65 62 60 59 58 58 63 63 60 59 59 59 58 57 58 58 52 58
50 59 65 73 69 68 63 64 67 63 58 55 60 58 56 46 43 48 57 57 58 62 64 65 64 65 64 65 67 67 69 67 64 64 68 68 65 64 62 58 55 57 62 61 60 58 56 55 55 56 56 58 58 58
65 67 50 49 57 59 49 55 59 58 61 65 62 53 49 45 42 52 54 61 64 66 66 68 70 70 68 67 68 67 66 65 64 64 66 67 65 64 62 62 61 48 60 59 59 58 56 55 55 55 55 55 56 57
65 66 66 58 65 67 65 60 60 64 66 65 57 52 49 53 59 60 64 65 68 67 66 66 66 68 67 67 67 66 63 60 55 50 50 52 54 56 59 60 60 60 60 59 45 52 54 55 55 55 55 55 55 54
69 73 64 55 63 60 62 67 64 68 67 63 60 57 58 59 64 68 66 67 66 66 66 67 66 64 61 61 60 59 62 60 56 51 47 48 51 56 57 57 57 58 58 58 58 58 48 55 53 56 53 53 52 51
75 73 68 65 62 68 71 72 70 69 68 65 66 61 58 58 64 67 68 68 68 68 65 64 64 63 60 59 57 56 55 59 56 54 52 54 55 54 55 56 57 57 57 57 57 56 54 53 53 51 50 49 48 48
75 70 69 64 64 70 72 69 66 63 62 62 61 59 61 56 53 60 68 68 65 63 58 62 62 60 61 61 61 60 50 57 54 53 51 51 52 52 54 55 55 55 55 55 54 53 52 50 50 49 49 48 48 48
73 73 71 70 69 68 69 66 63 62 64 60 62 63 64 58 55 61 68 69 66 64 62 63 64 64 61 60 59 59 55 55 47 40 39 39 38 42 50 53 53 53 52 53 52 52 50 50 49 48 48 48 47 47

GFSWCAN_sfc_temp_015.txt.gz
Temp
54 54 55 55 55 55 55 56 56 56 56 56 57 57 57 57 57 53 50 53 45 39 43 47 49 44 46 46 39 44 40 41 41 38 39 38 38 46 45 49 49 50 53 52 54 51 49 71 75 65 65 71 75 74
54 54 55 55 55 55 55 56 56 56 56 57 57 57 57 57 57 56 50 54 52 44 42 52 52 54 52 53 49 45 42 41 41 41 44 44 42 43 43 41 57 48 50 51 57 56 63 63 61 63 70 71 75 71
54 54 54 54 55 55 55 55 56 56 56 56 57 57 57 56 56 55 51 50 49 43 44 47 49 57 59 58 59 45 49 52 45 49 45 43 41 46 41 46 49 58 56 54 57 62 68 67 65 68 68 67 70 71
54 54 54 54 54 55 55 55 55 55 56 56 56 56 56 56 56 56 49 51 48 43 36 43 61 56 62 64 60 57 54 56 52 46 43 43 41 48 45 46 46 51 53 51 54 54 56 67 65 68 69 69 69 70
54 54 54 54 54 55 55 55 55 55 55 56 56 56 56 56 55 55 56 52 50 42 36 40 49 56 62 61 61 59 57 54 52 46 43 43 47 47 49 49 47 52 51 49 49 53 53 53 61 65 67 67 67 66
54 54 54 54 54 54 55 55 55 55 55 55 55 56 56 55 55 53 44 50 52 48 41 36 55 57 57 60 60 58 58 54 54 50 47 48 51 47 44 41 51 54 56 58 54 57 55 57 61 69 68 69 70 68
54 54 54 54 54 54 54 54 55 55 54 54 54 54 55 54 53 48 46 52 54 53 41 39 44 52 58 58 59 59 59 56 53 48 46 45 46 48 46 41 49 54 56 57 59 58 55 54 52 62 65 68 69 70
54 54 54 54 54 54 54 54 54 54 55 54 54 54 54 54 52 48 55 57 55 49 46 36 41 45 52 49 51 59 54 53 50 47 47 43 46 47 44 50 51 53 54 56 56 58 56 56 56 57 62 64 61 60
54 54 54 54 54 54 54 54 54 54 54 54 54 54 54 51 50 51 58 56 56 50 39 39 36 36 49 47 50 50 56 45 48 43 43 45 43 42 46 48 50 52 51 52 55 55 58 57 56 57 58 58 58 58
54 54 54 54 54 54 54 54 54 54 54 54 55 55 49 52 56 55 50 45 43 44 43 39 45 39 46 47 47 48 52 43 40 43 48 42 41 48 49 50 52 53 53 53 51 50 52 51 53 54 55 57 58 57
53 53 53 53 54 53 53 54 54 53 54 58 54 53 56 58 53 46 41 40 42 39 42 45 47 43 50 43 44 48 45 45 36 41 43 38 39 44 50 50 52 53 54 54 54 54 54 54 54 54 56 57 58 59
53 53 53 53 53 53 53 54 54 55 56 52 50 54 56 53 47 42 39 39 36 37 44 43 45 48 49 51 46 47 43 43 36 47 41 35 42 47 49 51 53 54 55 56 57 58 60 61 60 59 57 59 60 61
53 53 53 53 53 53 54 54 54 53 54 59 50 50 49 47 37 38 33 38 36 44 48 49 45 47 49 49 46 43 40 41 48 40 35 39 45 47 50 53 55 57 59 61 62 64 64 65 66 63 62 61 61 63
52 52 53 53 53 54 54 54 54 55 56 52 49 36 43 41 41 42 43 43 47 49 48 48 48 45 47 46 46 43 46 48 41 36 36 44 47 50 52 54 55 56 59 63 63 62 62 64 62 63 62 62 62 61
52 52 53 55 56 55 55 54 54 59 56 52 52 35 46 52 54 57 58 51 52 53 54 52 51 54 49 49 47 46 42 38 38 38 43 47 50 52 54 57 58 61 61 62 63 63 63 63 62 62 63 63 63 63
52 52 59 55 56 54 54 56 61 62 61 57 56 52 58 52 53 57 59 58 65 63 61 58 52 48 43 42 40 38 38 35 39 45 48 50 50 51 52 55 56 61 60 58 60 61 63 62 62 62 63 63 63 63
52 53 56 56 54 53 57 61 65 63 61 57 55 61 51 52 52 56 60 61 66 60 51 51 44 41 45 40 39 42 40 43 46 48 49 51 51 52 53 54 57 59 57 60 61 62 61 64 64 63 60 60 63 63
55 61 58 55 53 56 66 61 63 61 57 56 53 58 58 55 53 58 61 63 61 58 55 51 52 44 41 40 40 45 46 49 50 50 51 54 56 57 58 58 59 59 60 59 61 62 60 60 60 60 59 61 63 64
55 55 54 52 53 53 60 65 64 55 58 59 56 61 57 55 55 59 62 63 62 62 57 53 46 43 44 47 47 48 49 50 50 51 52 54 54 58 58 61 61 60 59 58 59 61 61 60 60 61 61 61 59 59
52 53 54 55 56 59 61 61 67 59 53 56 54 56 58 56 58 60 59 60 59 56 51 47 46 48 48 50 52 52 53 54 53 51 54 57 60 60 60 61 60 61 61 59 60 57 61 61 62 62 60 59 59 58
59 63 59 63 64 64 63 61 59 57 59 55 58 58 54 58 56 55 55 59 55 51 47 51 53 54 57 57 57 56 54 56 55 57 55 58 61 62 62 63 62 61 62 61 60 58 57 58 59 61 59 60 61 61
65 59 63 69 65 65 62 66 62 63 58 59 59 59 54 53 53 53 58 53 50 50 53 54 54 59 57 55 56 57 57 59 59 60 59 61 61 61 62 64 63 61 61 60 60 59 59 58 58 61 59 59 58 59
59 59 63 67 60 50 50 68 60 62 56 58 60 55 52 53 54 58 49 52 53 57 57 56 58 59 58 59 58 58 58 57 59 59 60 62 62 61 62 60 60 57 57 58 60 59 59 54 58 59 60 60 59 58
54 59 59 58 59 49 65 56 61 61 61 58 54 51 52 52 57 52 48 52 54 59 59 57 60 59 59 58 58 57 58 61 60 60 61 60 60 58 59 58 58 58 58 58 58 57 57 56 53 55 56 56 56 55
48 50 53 40 59 58 60 60 60 60 57 59 52 47 45 49 49 46 46 49 53 57 58 58 57 58 57 58 60 60 59 61 58 57 60 61 60 59 58 57 55 56 59 56 54 54 54 54 53 53 54 54 53 54
41 59 47 55 49 54 57 53 56 57 59 58 54 52 52 50 48 44 47 51 54 56 57 57 58 59 58 59 58 59 58 61 58 56 58 59 58 56 53 51 50 51 57 56 54 53 52 52 52 52 53 53 49 53
48 49 51 54 51 51 53 58 63 61 57 55 56 57 54 45 43 49 55 58 58 61 62 63 63 61 59 60 61 61 60 59 55 55 60 59 58 57 55 52 49 51 56 56 55 53 51 51 51 52 52 52 51 51
51 49 49 54 53 58 58 59 59 56 57 61 60 51 47 45 45 55 57 61 64 65 64 66 65 64 62 62 61 60 58 57 57 56 57 58 57 56 55 57 55 47 53 53 54 54 52 52 51 52 51 50 49 50
54 57 57 56 62 63 63 59 58 59 62 61 54 50 51 55 59 60 62 64 64 63 62 62 62 63 62 62 61 60 57 54 49 45 44 45 48 50 54 55 55 55 55 55 47 50 51 50 51 51 51 49 49 49
63 69 65 64 61 59 62 66 62 64 63 61 60 58 58 59 62 67 65 64 62 62 62 63 62 60 57 56 55 56 55 54 51 47 43 44 47 52 52 52 53 54 54 54 54 53 48 51 49 50 49 48 47 46
75 73 68 66 63 67 67 69 69 68 66 64 65 61 58 60 63 66 65 65 65 63 61 60 60 59 57 55 53 52 50 52 51 50 50 50 51 50 51 51 52 52 52 52 52 50 49 49 48 47 47 46 46 45
72 69 67 64 64 70 70 66 65 63 64 62 59 61 59 56 53 60 65 65 62 59 55 58 58 56 58 58 57 57 50 52 50 51 50 49 49 50 50 51 51 51 50 51 51 50 49 48 47 46 46 46 45 45
71 72 71 69 63 63 67 65 63 61 61 60 58 60 60 59 54 61 65 65 61 60 58 59 60 59 57 56 56 55 51 53 48 42 40 40 39 42 47 50 49 50 50 50 50 49 48 47 46 45 45 45 44 44

GFSWCAN_sfc_temp_018.txt.gz
Temp
54 55 55 55 55 55 55 55 56 56 56 57 57 57 57 57 57 48 44 48 44 39 43 47 45 39 41 39 34 38 38 37 36 34 36 34 31 42 39 48 47 43 42 45 50 47 46 66 68 64 61 64 69 70
54 54 55 55 55 55 55 55 55 55 56 56 57 57 57 57 56 54 41 46 49 42 40 49 49 49 48 47 40 39 40 40 40 35 38 40 36 40 37 38 50 43 47 46 50 48 54 57 57 61 63 61 62 62
54 54 54 55 55 55 55 55 55 55 56 56 56 57 57 56 56 54 43 44 44 42 43 41 40 49 52 51 53 38 40 46 42 45 40 37 37 43 34 42 46 50 53 49 53 55 54 57 60 63 64 62 64 65
54 54 54 54 54 55 55 55 55 55 55 56 56 56 56 56 56 56 44 46 46 42 35 38 51 47 56 54 54 51 48 52 48 44 39 37 37 44 41 45 45 50 50 49 51 53 54 56 57 61 64 65 65 64
54 54 54 54 54 55 55 55 55 55 55 55 56 56 56 56 55 52 48 47 48 42 36 37 45 48 51 51 51 53 49 45 43 38 37 38 44 43 46 46 45 50 49 48 47 51 49 52 58 62 61 62 63 62
53 54 54 54 54 54 55 55 55 55 55 55 55 55 55 55 54 44 40 45 47 48 40 33 42 46 52 53 50 49 51 50 46 41 42 45 49 44 40 41 47 51 55 55 52 56 53 57 58 61 59 60 65 64
53 53 53 54 54 54 55 55 55 55 55 55 55 55 54 54 49 42 42 48 52 50 40 36 36 47 52 50 49 46 47 46 47 43 42 43 45 46 43 40 48 52 54 55 57 56 54 55 54 60 62 62 62 62
53 53 53 54 54 54 55 54 54 54 55 55 55 54 54 53 52 47 51 53 54 46 44 36 37 42 49 44 45 50 48 47 46 45 45 42 44 46 42 47 50 52 54 54 54 56 55 56 57 58 60 61 59 58
53 53 53 53 54 54 54 54 54 54 55 54 54 54 51 48 44 47 58 56 53 47 38 38 35 35 48 45 46 46 46 41 47 42 42 44 42 41 44 48 50 51 51 51 53 55 55 54 53 55 57 57 57 57
53 53 53 53 53 53 53 53 54 54 54 54 51 49 44 49 57 55 48 44 43 43 42 36 42 37 43 45 44 44 45 41 37 42 46 40 40 46 49 50 52 51 51 54 51 49 50 51 53 53 55 56 56 56
53 53 53 53 53 53 53 53 53 54 54 48 43 44 49 57 50 46 40 38 40 38 40 40 41 39 47 42 42 46 42 42 35 40 39 37 38 44 49 51 52 53 53 53 53 53 53 54 54 55 56 58 58 58
53 53 53 53 53 53 53 53 54 48 46 47 48 49 47 46 45 40 35 36 35 35 42 42 44 46 47 48 44 45 40 40 37 46 39 34 40 46 49 51 52 53 53 54 55 54 54 57 57 57 58 58 59 60
52 52 52 52 53 53 53 54 54 53 51 48 45 44 42 42 38 32 32 37 37 41 44 45 44 46 47 48 44 42 42 40 47 37 33 36 44 49 50 52 53 55 57 56 57 58 61 60 61 60 59 60 62 61
52 52 52 52 52 53 55 54 54 52 48 44 42 37 40 39 42 42 44 45 49 46 46 45 46 45 46 45 45 44 44 45 38 34 34 44 47 49 51 53 54 55 59 58 61 62 61 60 58 59 58 57 58 58
52 52 52 52 55 55 54 54 53 49 48 44 45 37 41 45 48 52 54 53 53 51 46 45 46 48 44 43 42 44 40 35 36 38 43 47 49 50 51 53 55 56 57 57 57 59 59 60 60 60 59 60 61 59
52 51 52 55 55 54 53 52 52 51 50 50 50 47 48 47 49 53 54 50 57 57 51 49 46 44 41 41 40 38 37 34 40 45 48 49 49 51 51 53 54 56 58 59 60 61 61 61 60 60 62 59 58 58
51 47 54 55 54 52 54 52 53 52 50 49 47 48 48 46 47 52 54 51 61 56 49 46 42 39 44 40 38 41 40 43 46 48 49 50 50 51 52 53 55 55 55 58 58 58 59 60 61 60 58 59 61 60
48 51 55 54 52 51 52 54 54 54 50 48 44 46 48 48 48 52 56 58 55 53 51 46 49 43 39 38 40 44 46 48 49 49 50 50 51 52 53 54 55 58 58 58 58 57 58 57 56 54 56 58 57 56
50 51 53 52 51 48 49 55 54 49 49 48 47 48 48 48 52 56 56 58 58 57 53 49 44 40 42 45 45 47 48 49 48 49 50 52 53 53 53 54 54 53 52 52 55 53 54 53 53 52 52 54 53 54
53 54 55 55 54 49 52 50 55 51 48 49 48 47 47 48 50 54 55 55 53 51 48 44 44 44 44 44 47 49 49 50 49 48 51 53 54 54 55 55 53 51 52 51 52 51 54 55 56 54 51 54 53 51
54 56 57 55 52 50 51 49 49 50 49 47 48 48 46 48 50 50 51 50 51 48 43 44 44 46 50 51 54 54 49 47 46 47 47 52 54 54 56 57 57 55 53 49 50 50 50 49 52 55 53 50 50 51
52 58 53 57 55 55 51 53 50 50 48 48 48 48 45 43 43 44 46 49 45 46 47 46 45 46 50 49 48 49 53 52 51 53 52 53 52 52 53 54 53 51 51 50 50 49 49 50 51 52 52 51 50 48
54 54 52 55 52 43 47 53 50 49 47 48 49 48 46 44 46 48 43 44 46 47 47 46 47 49 48 49 50 51 51 53 52 52 48 51 50 50 51 52 53 51 49 51 52 50 48 47 48 49 48 48 48 47
55 51 50 49 48 43 53 50 51 52 51 47 45 42 44 47 49 44 43 44 46 50 49 50 48 47 48 47 47 50 49 51 51 52 51 48 48 47 48 48 49 48 49 52 51 48 47 46 45 47 46 46 47 46
44 47 47 39 49 48 53 51 50 50 46 46 44 43 42 47 43 40 42 44 45 45 47 48 48 47 44 44 45 48 49 48 48 46 49 50 47 46 44 44 44 44 45 44 43 43 43 44 44 44 46 46 46 44
41 48 43 48 46 46 47 47 48 51 53 49 46 45 46 45 42 38 40 43 44 46 47 48 47 46 44 44 44 44 43 46 49 46 46 48 46 42 40 40 41 42 44 43 43 44 44 44 44 45 45 45 43 44
42 46 48 49 48 47 46 49 51 49 48 48 51 47 46 42 38 41 45 47 47 51 54 53 51 48 45 44 44 44 45 48 43 42 43 45 45 45 42 40 39 40 44 46 45 45 43 44 43 44 42 42 43 43
49 47 46 48 47 50 49 49 49 46 47 49 48 43 43 42 39 45 47 51 52 54 53 51 51 49 47 46 45 44 43 44 45 44 43 43 43 44 43 44 44 44 44 44 45 45 43 43 42 43 42 40 40 42
49 49 49 48 50 51 52 50 48 48 49 47 45 42 43 46 49 48 50 50 51 51 48 46 46 48 47 48 46 44 43 40 39 37 36 34 36 38 42 42 43 43 43 45 44 45 44 43 43 42 42 40 40 40
54 54 51 54 54 50 52 54 51 52 51 49 49 47 47 48 51 53 51 50 48 47 46 47 46 46 43 42 40 40 41 40 39 37 34 33 35 38 40 40 41 41 41 42 42 42 43 43 42 41 41 39 37 37
61 60 57 56 54 53 53 55 55 55 54 51 51 48 47 49 51 52 52 50 49 48 48 46 45 45 44 42 40 38 35 39 40 40 40 38 39 39 39 40 40 40 41 41 41 41 40 39 39 39 39 38 39 38
61 59 56 54 52 56 57 54 57 56 52 50 49 50 49 47 45 48 51 51 48 46 48 46 43 42 43 44 43 43 42 41 40 41 39 39 39 40 39 39 40 41 41 41 42 40 41 39 38 38 37 38 38 38
60 60 59 56 54 55 55 53 53 49 51 50 49 51 50 48 46 48 51 51 49 47 46 46 46 45 45 45 44 43 43 42 42 42 42 41 40 39 37 38 40 41 41 40 40 40 40 39 38 38 38 38 37 38

GFSWCAN_sfc_temp_021.txt.gz
Temp
54 55 55 55 55 55 55 55 55 56 56 56 57 57 57 57 57 48 44 45 42 39 42 45 43 41 41 40 34 36 35 36 34 31 33 31 30 34 34 39 38 42 39 39 42 40 38 57 57 51 54 59 65 68
54 54 55 55 55 55 55 55 55 55 56 56 56 56 57 57 56 54 45 46 47 42 42 47 47 49 48 46 42 40 38 36 40 34 35 34 35 35 33 31 45 38 45 42 49 47 54 57 55 60 60 57 58 59
54 54 54 54 54 55 55 55 55 56 56 56 56 57 56 56 56 54 44 44 43 40 42 42 40 48 50 49 52 37 41 44 41 44 38 36 32 39 34 36 41 49 52 47 49 53 54 57 58 60 60 59 61 61
54 54 54 54 54 54 55 55 55 56 56 56 56 56 56 56 56 55 45 43 43 42 35 37 49 44 51 49 48 48 46 45 47 44 39 36 35 41 34 40 42 46 51 51 50 52 56 58 57 57 60 61 61 61
53 54 54 54 54 54 55 55 55 55 55 56 56 56 56 56 55 51 46 46 47 41 35 37 45 47 47 50 49 47 45 43 44 40 38 36 41 38 39 42 42 49 48 46 47 52 52 52 55 57 57 58 58 59
53 53 53 54 54 54 54 55 55 55 55 55 55 55 56 55 54 45 39 44 47 47 40 35 41 44 46 49 48 46 45 42 43 40 39 40 46 41 33 37 47 48 51 53 51 54 54 55 56 59 56 58 60 60
53 53 53 54 54 54 54 54 54 54 54 54 55 55 55 54 50 43 41 48 51 48 40 35 36 46 51 46 43 42 45 42 41 39 38 42 44 44 38 38 47 48 52 54 55 55 52 54 54 58 59 61 61 62
53 53 53 54 54 54 54 54 54 54 54 55 55 55 54 54 52 47 50 51 50 44 42 35 35 40 48 43 40 44 40 41 42 41 44 42 43 43 38 46 47 51 54 53 53 56 54 54 56 56 58 60 59 59
53 53 53 53 53 53 53 54 54 54 54 54 54 54 50 47 45 46 55 53 49 44 37 37 34 35 46 44 45 44 45 39 44 41 42 42 39 37 44 46 48 51 51 51 53 54 54 53 53 54 56 55 55 56
53 53 53 53 53 53 53 53 54 54 54 54 51 48 43 47 56 54 48 44 42 42 41 35 40 36 42 44 42 41 43 39 35 39 44 38 38 46 49 50 51 51 52 54 51 50 51 52 53 52 53 55 55 54
53 53 53 53 53 53 53 53 53 53 52 46 41 42 46 55 49 46 40 36 38 35 38 38 39 37 46 40 41 45 41 40 34 40 39 37 36 43 49 51 52 52 53 53 53 53 53 54 54 53 55 56 56 56
53 52 52 53 53 53 53 53 53 49 45 47 47 50 45 45 44 39 37 37 33 34 40 40 43 45 46 47 43 43 39 40 35 45 38 33 39 46 50 51 52 52 53 54 54 54 56 57 56 57 57 58 59 59
52 52 52 52 53 53 53 54 54 53 51 47 44 44 44 43 39 33 32 38 40 41 43 44 44 45 47 47 43 41 42 40 45 36 32 36 42 49 51 52 53 54 55 55 55 56 57 57 58 58 58 59 60 60
52 52 52 52 53 53 55 54 53 51 47 44 42 37 40 39 42 42 44 45 49 47 47 45 46 45 46 44 45 42 43 42 36 33 34 44 47 49 51 52 52 52 54 56 57 59 58 58 58 58 59 58 57 58
52 52 52 51 54 55 54 53 54 49 47 45 47 37 41 46 49 49 51 50 53 50 48 46 46 46 42 41 44 42 39 34 36 37 44 47 49 50 51 52 54 54 56 56 58 58 59 60 58 58 60 60 60 58
52 51 52 53 54 53 52 51 51 50 48 50 47 44 46 47 47 50 50 48 55 56 50 47 43 41 41 42 40 37 36 35 40 44 47 49 50 51 51 52 53 56 56 56 57 57 57 58 57 58 59 59 60 60
52 47 54 54 53 52 52 51 53 52 51 50 46 47 45 45 45 48 52 48 57 54 47 45 40 40 44 40 39 42 40 43 45 47 47 50 48 49 51 52 53 53 54 57 56 55 56 58 58 55 53 55 55 58
46 49 53 53 51 49 51 52 55 54 49 46 42 44 44 46 46 50 51 55 52 49 48 44 47 41 39 39 40 44 46 47 49 48 49 50 49 49 50 49 49 53 52 53 53 53 53 53 51 48 50 54 54 55
49 51 53 53 51 47 51 53 53 49 49 46 46 45 46 46 50 53 55 56 56 52 46 42 40 38 38 42 43 45 46 46 46 48 47 47 49 49 47 50 50 50 49 49 49 50 50 50 49 49 51 52 49 48
53 54 54 54 53 49 51 49 51 49 45 46 46 45 44 44 47 51 52 53 48 46 44 39 41 42 43 44 42 43 44 45 45 46 45 47 50 51 49 49 48 49 49 49 49 48 49 49 50 49 48 47 46 45
52 54 55 53 51 51 50 47 47 47 46 47 47 45 44 45 45 45 47 49 47 43 41 42 45 47 49 50 51 49 47 42 40 41 46 48 48 52 49 49 49 49 47 46 44 45 45 43 45 47 47 46 46 46
49 54 51 54 52 51 49 49 48 47 47 47 46 45 42 42 41 42 43 41 40 44 45 42 41 42 44 44 43 43 43 47 46 47 47 47 47 47 46 46 46 45 45 43 43 42 42 41 43 44 44 43 46 45
52 52 51 53 50 45 48 49 48 48 46 46 46 44 44 43 43 44 40 43 44 45 44 46 44 43 43 45 46 46 44 45 45 43 44 43 43 42 46 48 48 46 44 44 42 41 41 42 43 43 43 44 44 43
53 49 48 46 46 42 49 48 47 46 45 42 41 38 43 46 45 40 38 41 43 43 44 43 43 42 42 42 40 40 41 41 44 44 42 40 40 39 39 40 40 40 40 40 40 40 41 42 42 43 43 42 42 41
45 46 46 38 46 46 48 47 47 46 43 42 41 41 41 44 39 38 36 40 41 42 44 45 42 40 39 38 38 39 41 40 39 39 40 39 38 39 39 39 39 38 39 40 39 40 39 40 40 42 42 40 40 39
41 46 43 45 44 45 44 44 45 45 45 45 45 43 45 41 39 36 38 41 42 43 47 44 42 39 38 38 37 37 38 38 39 39 38 38 38 37 36 36 36 38 39 38 40 41 41 40 41 41 40 41 40 40
40 45 46 47 46 45 44 45 46 45 45 44 45 43 42 37 35 39 42 44 48 50 45 44 43 41 39 37 38 39 38 38 39 39 38 38 38 37 38 36 36 37 39 42 41 41 40 40 40 39 39 38 38 39
49 46 47 46 45 46 46 45 45 43 44 45 44 41 40 40 38 42 44 47 45 46 44 43 42 42 40 39 38 38 38 38 39 39 38 38 38 38 38 38 39 41 40 40 41 41 40 40 40 40 40 38 37 38
48 47 48 46 48 48 48 47 46 45 46 44 42 40 41 43 45 46 46 46 44 45 46 42 40 40 39 38 38 37 36 36 36 34 32 31 32 35 36 37 38 39 38 39 41 41 42 41 40 39 39 37 36 36
52 49 49 50 50 48 50 50 49 49 46 46 45 44 44 45 47 48 47 45 45 48 44 42 40 39 36 36 35 35 36 35 35 34 32 31 33 34 35 36 37 37 36 38 38 39 41 40 39 38 37 36 35 34
52 50 51 51 50 50 50 50 50 50 51 48 47 45 44 45 47 47 45 44 44 43 43 41 39 38 38 36 35 34 34 36 36 37 36 35 34 35 36 36 36 36 36 37 37 37 36 36 35 36 36 35 36 35
53 52 51 50 49 50 52 50 49 49 49 47 46 48 46 44 43 45 45 45 44 42 43 42 40 39 40 40 39 38 40 38 38 38 38 37 36 36 36 35 36 38 38 38 37 37 38 37 36 36 35 35 35 35
54 54 53 51 49 50 50 49 48 48 46 46 46 47 46 45 43 45 46 45 45 44 42 42 42 41 42 41 41 40 40 39 40 40 40 40 40 38 35 35 36 38 38 38 39 39 38 38 36 36 35 35 35 35

GFSWCAN_sfc_temp_024.txt.gz
Temp
55 55 55 55 55 55 55 55 55 56 56 56 57 57 57 57 56 49 46 46 44 39 42 45 46 40 41 40 33 39 35 36 37 32 32 33 27 32 30 36 34 31 31 31 34 33 35 55 57 53 55 58 60 59
54 55 55 55 55 55 55 55 55 55 55 56 56 57 57 57 56 54 44 44 47 42 41 46 47 49 48 45 42 41 38 37 35 34 33 33 30 33 32 29 40 33 39 36 40 41 49 55 55 57 60 57 59 59
54 54 54 54 54 55 55 55 55 55 56 56 56 56 56 56 56 54 47 46 44 41 40 39 39 46 49 49 51 37 40 44 41 43 37 36 32 35 31 36 37 42 45 41 41 50 53 55 57 58 59 59 61 62
54 54 54 54 54 54 55 55 55 55 55 55 56 56 56 56 56 56 47 46 45 42 34 37 49 44 51 49 48 49 45 42 44 43 37 35 35 39 35 37 35 39 41 42 44 49 54 55 55 55 58 60 60 60
53 54 54 54 54 54 55 55 55 55 55 55 55 56 56 56 55 53 48 47 49 40 34 38 46 44 45 46 46 46 44 42 41 38 38 36 39 39 39 37 34 41 40 38 42 51 51 52 54 57 56 56 58 58
53 53 53 54 54 54 54 54 55 55 55 55 55 55 55 55 55 47 40 45 48 47 39 35 42 44 48 46 44 43 43 42 42 39 38 40 45 38 33 33 42 49 50 50 48 53 52 54 56 56 56 58 59 58
53 53 53 53 54 54 54 54 54 54 54 55 55 55 55 54 50 44 42 46 49 47 40 35 37 45 49 45 40 44 46 42 42 40 39 40 41 40 36 33 43 47 50 51 52 54 51 54 52 55 55 58 60 60
53 53 53 53 54 54 54 54 54 54 54 55 55 54 54 54 52 47 49 50 49 44 42 34 35 39 43 39 39 42 39 41 39 39 42 40 42 41 33 39 42 46 49 50 54 55 55 55 55 54 55 55 56 57
53 53 53 53 53 53 53 53 54 54 54 54 54 54 50 48 46 46 54 53 49 43 35 36 34 34 45 44 43 42 43 38 44 40 40 40 35 33 39 42 48 50 50 51 53 54 55 54 53 54 54 53 54 55
53 53 53 53 53 53 53 53 53 53 53 53 48 46 42 46 56 53 47 43 41 42 41 35 39 35 41 43 42 41 43 39 35 37 43 35 34 42 47 50 51 51 52 55 51 50 52 52 53 54 53 55 56 55
52 52 52 52 53 53 53 53 53 53 52 45 41 40 47 52 49 46 39 36 37 34 36 37 38 36 44 39 41 42 39 39 33 39 38 35 36 43 50 51 52 53 53 53 53 53 54 53 53 54 54 56 58 59
52 52 52 52 52 53 53 53 53 51 45 48 47 49 47 46 44 40 38 36 33 34 39 39 42 41 44 46 42 43 38 39 34 43 37 32 42 48 49 50 52 53 54 54 55 54 55 55 56 57 57 58 58 59
52 52 52 52 52 53 53 53 53 53 50 48 44 43 45 44 38 37 34 40 42 43 43 43 43 46 47 46 43 42 40 38 44 36 31 38 46 48 47 48 48 50 52 53 53 55 56 57 58 57 56 57 58 59
52 52 52 52 52 54 54 53 53 51 47 43 42 38 41 39 42 42 42 43 48 46 46 45 45 43 44 42 44 41 42 42 36 32 35 43 45 47 48 48 48 48 49 50 51 53 55 56 56 57 57 56 58 57
52 52 52 52 54 54 53 52 53 48 47 44 44 37 41 45 46 47 48 49 52 50 46 44 44 44 43 43 44 41 39 34 35 37 42 45 47 47 48 48 50 50 51 50 52 54 55 54 54 55 58 58 56 55
52 52 52 54 54 53 52 51 51 50 48 48 46 42 45 46 46 48 49 47 55 54 49 47 44 42 42 42 40 37 35 35 40 44 47 48 48 49 48 48 51 54 54 52 50 53 54 54 54 54 55 56 55 54
51 47 53 53 53 52 53 52 52 51 47 47 44 43 42 42 41 45 49 49 52 52 43 45 41 39 44 40 39 42 40 43 45 45 47 47 46 45 46 46 47 50 49 51 51 51 51 53 54 52 51 53 53 52
46 48 53 53 52 49 52 51 52 51 46 43 41 43 42 43 44 47 49 52 47 41 42 41 44 38 37 35 36 41 43 45 47 43 44 46 44 44 45 44 46 47 47 47 48 49 49 48 47 47 49 50 50 50
48 51 52 53 52 48 51 52 51 46 44 43 44 43 44 44 47 48 51 52 52 46 42 41 37 36 37 40 41 41 42 42 42 42 43 46 46 46 44 47 47 46 46 45 46 46 47 47 47 47 47 48 46 47
52 53 53 54 52 49 51 48 50 47 43 45 44 43 42 42 43 48 50 49 46 42 39 36 38 40 40 42 42 41 42 42 44 45 46 47 49 49 45 46 45 46 46 46 46 46 46 46 47 46 46 46 45 44
51 53 54 52 51 50 48 45 46 45 44 43 44 43 43 43 42 42 42 44 41 38 37 40 41 41 43 44 42 39 41 39 38 39 39 45 47 47 47 48 48 48 47 46 43 43 43 41 42 44 45 44 44 45
49 53 50 53 51 50 48 46 46 45 45 44 48 47 41 40 40 40 41 40 38 40 40 39 39 40 42 41 40 40 40 42 41 41 43 42 43 43 41 42 43 42 42 41 41 41 41 41 42 44 44 44 45 44
52 51 50 51 49 44 45 47 46 45 42 42 43 42 42 41 41 42 38 39 40 42 40 40 41 41 40 40 41 41 40 40 40 39 40 39 39 39 41 41 42 41 40 40 40 40 40 41 43 44 44 44 43 43
52 49 47 46 45 41 48 46 45 44 43 41 40 38 41 42 42 39 37 38 41 41 41 41 41 40 40 40 37 37 38 38 39 39 38 39 39 38 38 39 40 40 40 40 41 41 41 42 42 43 43 43 42 41
45 45 45 37 44 46 46 45 44 44 41 41 40 40 40 41 37 36 36 39 41 42 42 40 40 39 38 37 37 38 38 38 38 37 37 38 39 40 40 40 40 39 40 42 41 42 41 42 42 43 43 42 41 41
40 45 43 43 42 44 43 43 43 43 43 42 42 42 42 39 37 36 37 40 41 43 43 43 40 38 37 37 37 38 38 37 38 38 38 36 37 38 37 37 37 40 41 40 42 43 42 42 42 42 42 42 40 42
41 45 44 45 44 44 43 43 44 43 43 41 42 42 41 36 36 39 41 42 43 45 44 43 42 40 39 37 37 38 38 38 38 39 38 37 38 37 38 38 37 38 39 42 43 44 42 42 42 42 41 41 41 42
48 46 47 45 45 45 45 43 44 43 43 42 43 40 40 40 39 42 44 46 44 43 41 40 40 40 39 39 38 39 40 38 39 38 38 39 38 38 38 39 39 39 40 42 43 44 43 43 42 42 41 40 40 41
48 46 47 46 46 45 46 46 45 44 45 44 43 40 41 43 45 45 46 45 44 46 45 41 38 38 38 37 37 37 38 38 38 35 34 34 35 38 38 39 40 40 40 42 40 41 43 42 42 42 41 41 40 40
50 48 47 48 47 47 49 49 47 46 45 46 46 45 45 46 47 47 46 44 44 49 47 42 39 39 38 38 37 38 38 37 37 37 35 35 37 38 37 38 39 38 38 41 41 42 40 42 41 42 41 40 40 40
49 48 49 48 48 49 49 47 47 49 49 48 47 46 46 46 48 46 46 44 44 42 42 40 40 39 39 38 37 37 37 39 38 40 40 38 38 38 39 39 39 40 40 41 41 41 41 40 40 39 39 39 39 38
49 49 49 48 48 48 49 48 47 47 47 46 46 46 46 45 44 46 46 45 44 43 43 42 41 41 41 41 40 40 40 40 40 41 43 40 40 40 39 39 39 41 41 41 41 41 41 40 39 39 38 38 38 38
52 50 50 49 47 48 48 48 46 46 45 44 45 46 47 48 44 47 47 47 48 47 44 43 44 43 43 44 43 42 40 42 41 39 39 39 39 39 40 39 40 42 42 41 41 41 40 40 39 39 38 38 38 38

GFSWCAN_sfc_temp_027.txt.gz
Temp
54 55 55 55 55 55 55 55 56 56 56 56 57 57 57 57 55 51 47 49 46 40 42 46 47 42 42 40 35 42 41 41 40 34 36 38 37 42 39 45 43 42 38 36 41 39 38 65 67 59 65 67 68 69
54 54 54 55 55 55 55 55 55 55 56 56 56 57 57 56 55 54 45 48 50 43 42 52 52 54 52 50 44 43 41 42 41 36 36 35 35 38 38 33 49 39 46 44 46 48 58 64 61 66 67 66 67 66
54 54 54 54 54 55 55 55 55 55 56 56 56 56 56 56 55 54 47 46 45 41 42 45 45 54 56 54 56 38 42 45 45 48 39 37 32 40 34 39 43 48 53 45 47 52 56 60 65 67 68 66 68 67
54 54 54 54 54 54 55 55 55 55 55 55 56 56 56 56 55 55 48 47 46 42 36 42 56 51 57 57 53 53 50 50 48 44 36 35 34 42 37 43 42 49 50 47 47 52 55 58 62 62 67 67 66 66
53 54 54 54 54 54 54 54 54 55 55 55 55 56 56 56 55 54 51 48 48 42 36 40 50 54 55 54 50 51 49 46 42 38 37 36 40 39 40 40 37 47 44 40 42 54 54 57 64 67 64 66 66 63
53 53 54 54 54 54 54 54 54 54 54 55 55 55 56 55 53 50 44 48 50 47 39 35 51 49 53 51 49 47 47 44 40 38 37 41 47 40 34 34 47 51 50 52 46 54 55 59 60 65 64 65 66 66
53 53 53 54 54 54 54 54 54 54 54 54 55 55 55 54 51 45 43 47 50 48 39 36 38 51 52 50 48 47 46 43 40 38 37 38 39 40 35 32 43 46 47 48 50 52 52 55 58 60 61 64 61 65
53 53 53 53 53 53 53 54 54 54 54 54 54 54 54 53 52 48 50 50 50 45 42 35 36 43 50 45 45 49 42 41 40 39 39 38 39 38 32 40 43 45 47 47 49 54 56 58 58 57 59 61 62 62
53 53 53 53 53 53 53 53 53 54 54 54 54 54 55 51 47 47 54 52 50 44 36 36 35 35 48 44 45 45 42 37 43 36 38 39 34 32 37 41 43 52 46 48 52 53 56 56 55 55 57 59 61 63
52 52 53 53 52 52 53 53 53 53 54 53 54 53 47 49 55 53 47 43 42 42 41 35 39 36 40 43 43 41 43 38 35 38 42 34 33 42 47 50 52 52 52 53 52 51 52 53 53 56 56 61 63 63
52 53 52 52 52 52 53 53 53 53 54 54 49 47 53 53 49 46 39 37 37 35 36 37 38 36 44 38 40 43 39 38 33 38 37 34 35 42 47 47 48 53 55 54 55 54 55 56 55 55 55 57 61 64
52 52 52 52 52 53 53 54 54 53 52 50 49 50 51 49 46 43 40 38 35 36 41 39 43 41 43 45 42 44 39 40 35 44 37 32 40 44 46 48 48 49 50 50 50 51 54 55 56 56 56 57 59 59
52 52 52 52 52 53 54 53 53 53 52 53 48 50 46 47 38 36 34 39 41 47 47 46 45 48 49 49 44 45 41 38 46 38 32 37 43 45 46 48 48 49 49 50 50 50 51 52 52 53 54 54 55 55
52 52 52 52 53 54 53 53 53 53 55 51 47 37 40 38 40 41 41 43 49 50 50 48 48 47 48 47 48 41 43 44 38 32 33 41 45 47 48 50 49 48 50 50 49 49 49 50 50 51 52 53 52 53
52 52 52 54 54 54 53 53 54 58 58 49 47 37 44 48 48 48 49 52 55 56 52 49 50 51 48 46 45 41 40 34 35 35 41 47 48 47 47 49 50 52 52 50 52 53 52 49 48 49 51 52 54 53
52 53 58 54 53 53 52 56 61 62 56 54 51 47 49 50 50 52 52 52 57 55 58 56 49 46 43 42 41 38 36 34 39 43 47 48 46 46 47 49 51 52 52 52 53 55 55 55 53 52 54 54 54 53
52 58 54 53 53 53 54 63 63 57 54 52 50 52 48 49 48 51 53 54 58 57 49 51 41 39 44 38 35 36 35 40 42 44 46 47 46 47 49 48 49 50 50 51 52 52 54 55 55 54 52 53 54 54
54 57 54 53 53 55 63 61 60 57 51 51 49 51 51 52 51 53 55 57 55 53 52 45 50 41 37 35 37 41 42 44 47 45 48 47 48 48 50 50 50 49 49 50 51 52 52 53 52 51 52 53 54 54
54 54 53 53 54 57 60 59 60 53 53 55 54 55 56 54 57 58 58 58 58 56 55 51 45 42 42 44 44 46 45 46 47 49 51 51 50 50 51 52 52 52 51 50 51 53 53 51 52 53 54 53 52 53
52 53 53 54 56 60 58 56 60 57 54 56 53 56 55 54 56 58 57 57 56 54 50 46 46 48 48 50 49 47 48 48 51 52 52 53 53 52 50 52 52 54 55 54 55 49 54 55 54 54 53 52 52 50
56 58 56 58 61 59 58 57 56 56 56 55 51 52 53 56 55 54 54 57 53 49 46 48 52 53 51 52 51 52 51 51 49 51 50 52 53 54 54 54 55 54 53 53 52 52 50 50 51 53 52 52 53 53
58 54 60 60 59 58 57 56 57 55 55 54 55 55 54 53 52 52 54 52 48 48 49 50 50 52 52 50 49 49 49 51 51 52 49 50 51 52 52 53 53 52 52 52 51 50 50 51 53 53 53 52 51 51
55 56 59 59 57 50 48 56 54 53 50 51 53 52 50 51 52 54 49 50 51 52 52 52 50 50 49 50 51 51 49 50 51 51 51 52 52 52 53 52 53 51 51 51 52 52 51 46 50 53 52 53 53 53
54 56 55 53 52 46 55 53 54 52 52 50 49 48 49 50 51 51 47 51 54 55 54 51 53 53 53 51 51 50 50 51 52 52 50 51 52 51 52 52 53 53 52 54 54 53 53 53 48 54 53 52 51 50
49 48 50 39 53 53 52 52 51 52 48 49 48 48 49 51 48 47 46 52 54 55 55 53 53 53 52 52 52 52 50 51 50 49 49 50 51 54 53 53 53 52 54 54 53 53 52 53 53 52 51 50 49 48
43 52 47 52 51 52 51 50 50 50 51 49 50 50 50 48 46 44 49 54 55 57 57 56 55 53 52 52 52 52 51 51 51 50 48 49 49 49 48 48 49 52 52 52 52 53 52 52 51 49 49 47 42 48
47 53 53 53 53 53 52 54 54 53 50 50 52 50 49 45 45 52 56 56 56 58 56 56 56 56 55 52 51 52 52 52 50 49 50 50 50 50 49 47 46 49 50 52 53 54 52 52 50 49 49 50 50 49
57 54 55 54 53 55 52 52 51 51 53 54 53 49 48 48 51 57 58 58 57 55 54 53 55 56 54 53 53 54 53 53 51 50 51 52 52 51 50 51 52 40 50 52 53 55 54 52 51 50 49 48 49 49
56 56 56 54 54 54 55 55 56 58 59 56 54 53 53 56 59 59 58 57 56 55 54 52 50 53 52 52 52 53 53 52 49 44 43 44 46 47 50 50 51 51 52 54 40 45 50 51 51 51 49 49 49 50
59 59 57 56 55 56 61 61 60 60 59 61 59 56 56 55 58 59 56 53 54 55 57 54 54 53 53 52 52 51 53 53 52 49 45 44 46 49 50 49 50 51 51 52 53 51 41 49 47 52 49 49 49 48
59 56 57 58 58 60 59 57 56 56 56 56 56 55 53 52 54 52 51 55 56 56 55 54 53 54 54 53 52 50 51 53 51 50 51 52 52 51 50 50 50 51 51 51 51 50 50 49 48 47 46 45 45 45
58 57 57 56 58 57 57 59 58 56 55 53 53 53 52 52 50 52 50 53 54 54 50 54 56 55 55 56 55 54 42 55 53 53 50 52 52 51 51 52 52 52 51 50 50 49 48 46 46 45 45 45 45 45
59 59 58 59 57 55 57 56 55 54 54 54 53 54 54 56 52 53 53 56 57 59 58 57 57 56 54 54 52 53 46 54 48 40 39 39 37 41 49 52 52 51 50 49 48 48 46 45 45 45 45 45 45 45

GFSWCAN_sfc_temp_030.txt.gz
Temp
55 55 55 55 55 55 55 56 56 56 56 56 57 57 57 57 56 52 49 50 45 40 46 51 53 46 46 43 38 46 45 50 45 36 43 46 46 51 49 52 52 50 47 48 50 47 45 72 72 63 69 73 75 76
55 55 55 55 55 55 55 55 55 55 56 56 56 56 57 57 56 55 48 49 50 43 45 56 57 59 55 53 46 43 44 45 50 42 42 43 41 45 45 42 57 47 54 53 54 55 65 70 70 74 72 69 72 74
54 54 54 55 55 55 55 55 55 55 55 56 56 56 56 56 56 55 49 47 46 42 43 48 55 63 65 61 61 41 45 49 49 56 46 43 37 50 42 48 50 55 61 54 54 59 62 66 70 71 72 71 74 74
54 54 54 54 54 54 55 55 55 55 55 55 56 56 56 56 56 56 50 47 47 43 37 50 63 57 65 64 60 59 55 55 53 47 39 37 38 52 44 51 48 56 56 53 53 58 61 64 67 69 70 71 72 74
54 54 54 54 54 54 55 55 55 55 55 55 55 56 56 56 55 55 53 50 50 44 38 44 54 61 62 60 57 57 53 50 46 39 37 36 41 42 49 48 47 56 53 51 50 60 59 60 66 69 68 69 72 73
54 54 54 54 54 54 54 54 54 55 55 55 55 55 56 55 55 58 52 53 51 48 40 38 59 55 58 56 52 51 52 48 41 38 37 39 46 39 35 37 53 58 59 60 56 62 62 64 65 66 65 68 72 74
54 54 53 54 54 54 54 54 54 54 54 54 55 55 55 54 56 50 49 52 51 50 41 37 46 58 56 54 47 46 47 43 41 38 36 37 38 39 35 32 42 45 47 50 57 57 52 59 54 64 66 69 71 74
53 53 53 53 54 54 54 54 54 54 54 54 55 54 54 53 52 49 53 51 52 46 43 37 41 48 52 44 43 46 40 40 39 36 37 36 37 36 32 39 43 45 45 45 47 51 54 56 61 62 67 67 67 64
53 53 53 53 53 53 53 53 54 54 54 54 55 55 61 55 49 50 54 53 52 45 38 36 35 35 47 44 45 43 42 35 41 35 35 36 34 32 34 41 46 55 53 46 48 48 52 55 56 59 61 66 58 59
53 53 53 53 53 53 53 53 54 54 54 54 56 60 54 54 56 53 47 44 44 44 42 36 38 35 41 43 43 42 43 37 35 38 43 34 33 41 43 47 48 51 53 56 52 52 54 54 57 60 62 58 60 59
53 53 53 53 52 53 53 53 54 53 53 63 63 58 59 55 49 48 42 39 39 37 39 39 40 38 46 39 40 44 39 39 38 43 41 37 35 41 45 47 48 49 50 51 58 58 57 53 57 56 55 59 58 58
53 52 52 52 52 53 54 54 53 62 62 57 58 57 60 56 55 48 43 42 39 39 48 42 46 44 45 46 43 47 43 46 40 51 44 33 40 45 45 45 47 49 50 50 50 50 50 50 51 51 52 53 55 56
52 52 52 52 53 54 54 53 53 54 55 58 56 57 56 50 38 36 34 39 41 51 54 51 48 52 54 52 52 52 48 43 54 41 33 42 48 49 48 48 49 50 52 51 49 50 50 50 50 51 51 52 53 54
52 52 52 53 53 54 54 53 54 56 65 55 52 39 47 41 41 43 45 47 55 58 60 58 54 51 55 51 50 43 47 52 41 33 34 47 50 52 52 54 52 50 52 52 50 49 50 50 50 50 51 51 52 53
52 52 52 56 54 54 54 54 55 71 68 57 54 41 49 53 57 59 61 62 64 64 64 63 62 63 55 49 49 45 44 37 37 37 44 51 54 54 52 54 56 56 56 56 58 58 55 53 52 52 54 53 52 53
52 54 64 55 53 53 53 63 72 73 66 61 58 54 58 58 59 61 61 61 66 67 68 66 56 51 51 47 39 36 37 34 40 44 51 55 53 55 55 56 57 57 58 58 59 58 57 57 56 56 56 54 54 55
51 70 54 54 53 53 57 74 72 64 61 58 58 63 60 59 59 61 63 62 68 64 58 58 45 43 55 47 38 39 36 38 43 51 54 53 51 54 56 56 58 59 58 60 60 61 61 62 62 60 57 56 56 56
68 68 56 54 55 65 75 73 68 64 56 61 58 60 63 63 61 62 64 65 63 61 59 52 58 49 45 41 43 49 51 51 56 55 53 54 54 56 58 56 56 57 58 58 60 61 60 60 61 61 61 61 61 59
61 59 54 53 56 66 69 68 69 60 62 66 66 65 64 63 65 66 65 66 66 66 64 59 51 47 49 53 53 55 56 57 55 58 55 56 57 56 58 59 59 58 58 59 58 61 61 59 59 61 63 62 60 60
52 53 54 55 57 71 64 65 70 65 63 63 66 64 64 62 65 65 64 64 63 61 56 53 52 55 55 56 58 57 58 59 59 55 56 56 59 60 58 59 60 60 61 60 61 53 60 60 61 59 59 59 59 58
59 65 59 64 73 72 69 68 66 66 67 64 66 64 64 67 62 61 60 65 59 56 53 57 58 59 59 59 59 60 58 58 57 57 56 56 61 61 60 61 61 61 60 59 58 58 56 58 59 61 60 60 61 60
68 56 69 70 70 67 67 68 66 67 65 65 65 65 63 60 60 60 63 58 56 58 59 59 59 60 60 56 57 57 56 57 58 58 54 56 58 58 58 59 59 58 58 58 58 58 58 59 60 60 60 60 58 59
58 63 70 69 64 56 54 68 61 62 57 60 64 59 59 61 61 64 59 60 59 63 64 63 60 58 57 59 59 58 57 56 58 58 57 59 61 60 59 59 59 57 56 57 60 59 58 50 56 59 60 59 59 58
54 64 62 62 62 53 64 61 66 62 62 60 58 54 57 59 63 61 56 60 62 65 64 59 62 61 61 57 60 58 57 59 59 59 58 57 57 58 59 59 60 60 59 61 60 59 59 59 52 59 58 57 56 56
52 52 57 41 63 60 58 59 59 61 55 57 54 56 58 60 57 55 54 61 64 63 64 64 64 62 59 60 62 60 58 59 56 55 57 57 57 58 58 59 60 59 60 58 58 58 58 58 58 57 56 54 53 53
44 59 49 61 61 59 60 56 56 56 59 56 58 62 62 58 52 51 59 63 64 65 64 63 61 61 61 61 59 59 58 60 58 56 56 57 56 55 54 53 54 56 59 59 58 57 56 57 56 54 55 52 44 52
50 59 65 67 65 64 63 65 65 62 56 56 62 58 58 51 52 60 65 66 66 67 65 67 65 62 60 61 61 62 62 60 56 56 58 58 58 57 55 52 51 54 58 59 59 58 56 56 55 54 54 56 55 54
66 64 60 63 63 67 60 61 59 57 62 67 64 55 54 56 59 67 69 69 70 67 65 65 65 66 65 63 64 64 63 63 59 60 59 59 61 59 56 58 58 43 55 57 57 58 57 56 55 54 54 53 54 55
63 68 67 61 63 64 63 63 64 70 72 67 62 62 63 69 71 70 65 68 70 66 62 60 60 62 63 63 63 64 62 60 55 50 48 52 53 54 57 57 58 58 59 59 37 45 52 53 53 54 54 54 54 52
67 70 65 64 62 63 70 72 71 74 73 72 70 67 67 68 70 69 67 63 61 61 64 65 62 61 64 63 61 60 63 63 60 55 51 50 52 56 57 56 56 57 58 58 58 55 42 50 49 52 51 52 52 49
73 69 65 67 66 71 71 73 70 69 68 68 69 65 66 67 65 68 66 64 64 66 63 62 63 66 65 63 59 57 59 60 59 57 57 59 59 57 56 56 57 57 57 56 54 52 51 50 49 48 48 47 47 47
69 65 66 63 68 72 69 69 70 68 68 65 66 67 66 64 60 62 62 64 64 63 54 63 66 61 62 63 62 61 39 61 61 61 56 58 57 57 57 57 58 56 53 52 51 50 50 48 47 46 46 46 46 46
69 70 68 67 67 64 69 66 65 63 65 66 65 65 66 64 57 61 63 65 64 67 66 65 64 63 60 60 59 59 48 62 50 41 43 39 37 42 52 57 56 55 52 50 50 49 48 46 46 45 45 45 45 45

GFSWCAN_sfc_temp_033.txt.gz
Temp
55 55 55 55 56 56 56 56 56 56 56 56 57 57 57 58 57 53 51 52 46 41 44 50 52 46 49 49 41 50 51 55 52 43 45 45 50 53 53 57 56 53 52 53 55 52 50 77 76 68 71 76 75 76
55 55 55 55 55 55 55 55 55 55 56 56 56 56 57 57 57 55 49 52 51 44 46 59 59 60 58 56 49 45 50 50 55 44 45 48 46 52 50 46 62 52 59 58 60 60 70 75 73 78 79 72 74 75
54 54 55 55 55 55 55 55 55 55 56 56 56 56 56 56 56 55 51 49 47 42 44 47 54 62 65 63 64 43 49 53 51 58 51 44 40 54 45 50 54 60 65 59 58 64 67 70 75 77 78 75 76 78
54 54 54 55 55 55 55 55 55 55 55 55 56 56 56 56 56 56 49 50 48 45 38 49 65 60 66 65 63 60 55 56 53 52 44 43 42 55 48 52 51 57 59 56 58 63 66 68 71 72 74 74 75 76
54 54 54 54 54 54 54 55 55 55 55 55 56 56 56 56 56 59 54 52 53 45 40 47 56 63 64 62 60 59 55 49 45 40 39 36 42 43 50 52 51 60 56 53 53 63 63 64 70 73 71 71 72 73
54 54 54 54 54 54 54 54 54 54 54 55 55 56 56 56 54 59 51 57 58 51 42 39 61 55 56 56 53 50 48 46 43 38 38 40 46 39 35 37 52 54 55 56 55 63 65 66 68 71 70 71 74 73
54 54 53 54 54 54 54 54 54 54 54 55 55 55 56 56 62 56 52 58 54 53 43 39 45 54 54 50 47 45 46 44 41 36 35 37 38 39 35 34 45 46 47 48 54 54 53 60 61 69 70 72 70 72
53 53 53 54 54 54 54 54 54 54 54 55 55 55 54 53 53 52 59 54 56 49 45 37 42 45 49 43 42 45 40 40 39 37 37 35 37 36 32 40 40 44 51 51 46 51 56 61 58 62 67 67 67 69
53 53 53 54 53 53 53 54 54 54 54 55 55 55 63 61 53 51 54 54 55 48 38 37 36 37 49 45 46 43 41 36 41 36 36 35 34 32 34 40 45 50 52 54 53 50 51 52 57 60 61 59 61 67
53 53 53 53 53 53 53 53 54 54 54 55 59 58 53 58 56 54 50 49 47 45 43 38 41 38 43 45 44 43 43 41 35 42 43 36 33 43 45 47 47 49 57 60 51 47 49 50 55 58 60 62 60 66
53 53 53 53 53 53 53 54 54 54 55 64 64 61 64 56 52 53 53 44 45 43 51 48 42 41 49 41 42 47 44 42 39 46 45 39 36 42 47 48 49 50 50 50 51 54 60 58 58 58 57 58 60 65
53 53 53 53 53 53 54 54 54 60 69 60 64 67 65 56 58 54 49 47 44 45 56 53 53 48 52 50 45 53 51 54 43 56 46 34 41 48 48 50 50 50 51 50 51 50 51 51 53 52 52 53 54 54
53 53 53 53 53 54 54 54 54 54 56 67 65 63 61 57 44 40 36 42 44 54 58 57 57 61 58 52 55 57 52 49 60 44 33 41 49 53 53 54 54 55 54 51 51 52 52 52 52 51 51 52 52 52
52 53 53 53 54 54 54 54 55 57 64 67 59 41 54 51 55 51 51 56 64 64 64 60 64 61 65 57 59 49 55 56 44 34 36 47 52 54 57 59 57 56 59 57 54 52 52 52 50 50 51 52 52 51
53 53 53 57 55 54 54 54 55 67 74 63 63 46 55 65 67 66 69 67 70 71 68 63 65 68 62 54 56 50 48 38 39 38 45 51 54 56 55 59 58 60 61 61 61 59 57 53 51 51 54 54 52 52
53 53 65 55 54 54 54 65 71 79 73 69 65 61 65 65 65 68 67 66 71 72 69 65 60 58 56 56 47 38 37 34 38 44 53 56 54 57 57 59 59 60 61 63 61 62 61 61 60 57 59 59 58 56
51 76 55 55 54 54 57 77 78 69 67 63 65 70 67 65 64 66 68 67 73 68 62 63 51 49 57 50 44 48 42 45 47 52 58 56 55 55 59 61 61 62 61 61 63 62 63 64 63 62 58 58 59 59
73 74 57 54 56 68 81 79 74 70 62 69 65 66 68 68 66 67 69 70 68 66 64 58 63 54 48 42 45 52 54 58 54 57 60 58 58 59 61 60 61 62 62 62 62 64 62 62 62 62 62 63 63 61
65 61 54 53 57 67 74 73 74 65 67 72 73 72 70 69 70 71 71 71 71 71 68 64 55 53 53 57 56 58 60 60 60 56 59 62 61 61 61 62 63 62 62 62 61 63 65 62 63 64 65 65 63 63
52 53 54 55 58 75 69 71 76 70 67 69 73 67 67 69 70 70 69 69 68 66 60 57 57 58 59 59 61 61 61 61 61 60 59 63 66 64 63 62 63 63 64 63 64 56 65 64 65 65 64 63 62 60
56 67 62 67 80 78 75 73 72 70 72 71 72 64 64 74 68 67 67 70 65 61 58 62 62 63 62 62 63 62 61 60 59 60 59 60 63 65 64 65 64 65 63 63 63 62 59 62 64 65 64 63 63 63
75 57 74 74 75 73 74 76 71 73 70 71 70 70 67 65 65 65 68 66 62 63 63 63 62 62 63 59 60 60 59 59 61 62 56 59 62 62 62 63 63 62 62 62 62 62 61 62 61 64 63 63 62 62
60 65 75 75 68 59 59 76 66 69 62 65 69 64 65 65 66 69 65 67 66 68 68 65 62 62 61 63 62 63 62 60 62 62 62 62 63 65 64 63 64 62 60 62 64 63 62 53 59 62 63 62 62 61
53 70 67 68 67 57 71 67 73 69 68 65 64 59 62 64 69 65 61 66 68 71 67 63 65 65 65 61 64 64 62 63 63 63 64 61 61 62 63 64 65 64 63 64 64 63 63 62 54 62 61 60 60 59
54 56 59 42 68 64 63 64 64 66 60 63 60 62 65 68 61 61 60 67 69 69 69 70 68 67 64 65 65 65 63 64 61 59 63 62 61 62 62 63 63 63 63 61 61 62 61 62 61 60 60 58 56 57
44 64 53 66 68 64 66 60 61 62 64 61 63 69 69 63 56 56 65 69 70 70 69 67 64 64 64 65 63 62 62 64 62 60 60 62 60 58 57 56 57 59 62 63 61 60 60 60 59 58 59 55 45 55
51 64 71 76 72 71 68 72 72 67 61 61 65 63 60 54 56 63 70 71 69 72 69 70 66 65 64 65 67 66 66 64 60 59 61 61 62 62 59 56 55 57 61 62 62 60 58 58 58 58 57 58 57 57
71 71 65 70 70 73 65 67 65 63 67 74 68 58 56 58 59 70 72 72 70 72 70 71 72 69 66 65 67 67 66 67 64 64 65 63 65 64 61 62 62 45 59 61 60 60 58 58 57 56 55 55 55 56
69 73 74 67 68 68 69 65 67 69 76 74 65 64 66 72 74 74 75 77 76 73 69 67 68 72 65 68 67 68 66 64 59 55 53 56 57 59 62 62 62 62 62 59 42 50 54 55 55 56 55 56 56 54
69 80 71 68 65 65 66 72 74 78 79 78 76 74 73 74 75 76 77 74 70 66 64 67 69 69 64 66 64 65 69 67 65 60 55 55 57 61 60 60 59 59 59 59 59 57 45 53 51 56 54 54 54 53
80 77 71 71 67 72 77 80 80 80 77 75 78 73 71 72 71 69 71 69 70 71 69 68 69 72 67 65 62 61 62 65 62 61 60 62 62 60 59 59 59 60 57 56 55 54 54 53 53 51 50 49 49 49
73 71 70 67 70 76 80 76 75 72 74 73 73 74 74 69 59 65 69 71 71 71 54 63 68 66 67 68 67 65 44 64 66 64 60 61 60 59 60 60 60 58 57 55 54 54 53 51 50 49 49 48 49 50
74 76 73 72 71 70 74 74 70 68 70 70 69 69 71 67 59 65 69 69 69 70 69 69 69 67 63 63 63 64 51 62 51 41 42 40 38 44 54 59 58 58 56 55 55 53 51 50 49 48 49 48 48 48

GFSWCAN_sfc_temp_036.txt.gz
Temp
55 55 55 56 56 56 56 56 56 56 56 56 57 57 57 57 57 54 51 51 46 41 44 50 51 44 46 46 39 50 50 46 50 42 41 38 43 44 51 56 52 54 51 50 54 51 49 74 75 63 67 72 74 75
55 55 55 55 55 55 55 55 55 55 55 56 57 57 57 57 57 56 49 52 51 44 47 53 52 54 53 54 47 48 49 49 50 41 43 46 43 50 50 46 61 50 55 55 58 58 70 75 72 77 78 74 72 73
55 55 55 55 55 55 55 55 55 55 56 56 56 57 57 57 56 55 52 50 48 43 44 47 50 59 61 61 63 44 52 54 53 56 50 47 42 52 44 49 51 58 60 55 57 63 66 70 74 76 76 74 76 77
54 55 55 55 55 55 55 55 55 55 55 56 56 56 57 57 56 56 50 51 50 45 38 51 63 56 63 63 60 59 56 58 55 51 44 42 41 53 46 50 50 56 57 55 55 60 64 68 71 72 74 74 74 76
54 54 54 54 54 54 55 55 55 55 55 55 56 56 57 57 56 59 60 59 57 46 41 46 54 56 58 58 57 57 55 48 44 40 38 38 43 43 48 51 49 57 53 50 51 59 59 61 68 72 71 71 73 73
54 54 54 54 54 54 54 55 55 55 55 55 56 56 56 57 55 60 50 58 59 52 42 39 56 51 53 53 50 48 47 45 44 39 36 39 44 39 35 37 49 53 54 54 50 57 58 61 64 67 67 70 73 73
54 54 54 54 54 54 54 54 55 54 55 55 55 56 57 57 63 58 52 55 57 56 44 41 46 53 53 51 47 46 47 43 40 36 35 35 36 39 34 32 40 42 43 44 47 48 48 54 56 64 66 69 71 73
53 53 53 54 54 54 54 54 54 54 55 55 56 56 55 54 53 54 60 56 59 51 47 41 45 50 52 47 44 46 41 41 39 38 37 35 37 36 32 38 44 49 51 52 52 52 50 55 58 62 66 68 66 69
53 53 53 54 53 54 54 54 54 54 55 55 56 56 61 57 57 57 55 55 60 54 43 42 38 42 53 47 46 44 42 38 41 36 36 36 33 32 36 42 44 46 48 52 56 52 56 50 54 59 63 64 62 66
53 53 53 53 53 53 53 54 54 54 55 55 58 60 53 62 56 57 51 48 49 52 52 46 48 43 48 47 45 44 43 43 40 46 42 37 36 45 46 47 47 48 49 51 52 50 47 49 54 59 60 63 64 65
53 53 53 53 53 53 54 54 54 54 55 63 60 64 63 57 58 53 53 53 56 50 55 58 55 48 56 46 47 51 48 47 42 48 46 38 36 44 50 49 49 49 50 49 50 52 55 55 56 58 59 62 63 63
53 53 53 53 53 53 54 54 54 58 71 63 68 69 67 60 60 57 53 54 50 48 61 59 56 54 59 56 46 53 51 56 46 55 40 33 42 49 52 52 51 51 50 50 50 49 50 50 51 51 52 53 52 52
53 53 53 53 53 54 55 54 55 55 55 71 66 63 64 63 45 42 39 50 50 58 62 63 51 52 62 62 55 57 54 49 61 45 34 41 48 52 53 55 56 56 54 51 50 50 50 50 50 49 49 50 51 51
53 53 53 53 54 55 55 55 56 58 61 69 63 40 58 56 60 61 60 60 65 66 64 64 57 56 63 58 60 51 54 57 45 35 37 46 50 52 55 57 57 56 57 55 52 50 49 49 48 48 49 49 50 49
53 53 53 56 55 55 55 55 56 65 72 66 66 46 59 68 70 70 71 69 70 72 68 59 63 66 61 56 58 53 48 37 38 38 46 54 54 54 53 57 59 58 58 58 59 57 54 52 50 48 48 49 48 49
53 53 67 55 55 55 55 61 63 77 74 71 68 63 68 66 66 68 68 67 72 72 73 68 62 55 54 54 51 46 40 36 41 46 49 57 53 53 56 58 60 60 60 60 60 59 59 57 53 52 53 50 49 49
51 75 55 55 54 54 57 73 80 71 71 68 67 72 69 67 65 67 69 68 73 69 62 64 55 51 57 50 46 50 45 50 53 56 53 55 55 53 57 59 61 61 60 60 59 59 59 59 61 57 53 54 56 56
69 75 58 55 55 67 81 81 76 72 65 71 67 69 70 70 67 68 70 71 69 67 65 60 64 55 50 45 49 55 58 60 59 60 60 59 59 60 60 60 61 62 61 61 60 62 61 62 60 59 59 59 59 58
63 60 55 53 56 64 75 75 75 68 70 73 73 74 72 71 72 72 72 71 72 72 68 64 57 54 54 57 56 58 59 59 58 60 63 63 60 62 61 62 62 62 62 62 61 63 63 62 62 63 62 61 59 58
52 53 53 54 57 73 71 73 77 71 69 70 72 69 69 70 73 73 72 71 69 67 61 58 57 59 59 59 61 60 61 60 60 58 60 62 64 63 63 63 63 63 64 64 63 57 64 63 64 63 63 61 60 58
63 68 61 68 77 77 75 73 68 72 72 69 73 72 69 71 71 69 68 72 66 62 59 62 62 64 63 62 64 62 61 59 58 59 59 59 62 65 64 65 65 65 63 63 62 61 59 60 62 64 63 62 62 62
76 60 75 76 75 75 73 78 72 74 70 70 70 71 67 64 66 66 69 67 64 63 64 64 62 62 63 60 61 62 61 60 61 63 57 59 61 62 63 64 64 62 62 62 62 62 61 62 62 64 62 62 61 61
63 67 75 77 70 60 58 77 68 71 64 66 69 65 65 66 68 72 64 68 67 69 69 66 64 63 62 64 65 64 63 61 62 63 63 63 63 64 64 64 65 62 60 62 64 64 62 55 60 62 62 61 62 61
55 71 69 69 69 57 73 68 73 69 69 63 62 60 63 66 70 64 61 67 68 71 66 65 67 66 65 62 65 65 64 65 64 64 65 62 61 62 64 64 65 64 62 63 64 63 63 62 57 62 60 59 59 60
55 56 58 41 68 66 66 66 66 67 63 65 63 62 64 69 60 60 61 67 68 68 67 67 66 66 63 64 66 66 65 65 62 60 63 62 62 62 62 63 64 63 64 62 61 62 61 62 61 60 59 58 57 58
43 65 50 68 69 66 68 63 65 65 66 64 65 66 68 63 59 57 64 67 68 68 67 65 65 64 63 65 64 63 64 65 62 60 61 62 61 59 57 57 57 58 62 62 61 60 60 60 60 59 59 56 47 56
49 66 72 77 73 72 68 69 71 68 65 62 67 66 56 43 53 63 67 71 71 71 70 66 64 63 63 65 66 67 68 67 62 62 64 64 64 63 60 57 55 57 61 62 61 60 58 58 58 58 57 57 56 56
71 72 66 69 70 72 63 55 50 54 53 60 70 60 55 56 59 61 71 74 75 71 65 65 61 65 68 67 68 66 67 68 67 66 67 65 66 65 63 63 62 46 60 60 59 60 58 58 57 57 56 54 54 56
68 65 69 69 68 68 59 52 51 65 70 70 66 66 67 59 52 55 73 75 75 71 66 66 67 68 69 70 69 68 69 67 61 57 56 56 57 60 63 62 62 62 61 59 42 50 54 55 55 55 55 55 56 56
71 73 69 71 69 66 64 74 73 79 80 78 77 75 69 67 72 77 76 73 70 69 69 67 70 69 66 66 66 66 69 68 65 60 56 55 57 61 61 60 60 60 60 59 57 56 45 52 50 55 54 54 54 54
78 75 72 71 68 75 75 75 81 82 79 77 65 51 58 59 55 68 72 72 72 68 70 69 68 68 66 64 63 61 61 65 64 62 62 63 62 61 60 60 59 59 59 57 56 55 55 53 53 52 51 51 51 50
75 72 71 69 71 79 80 74 74 75 75 72 72 72 71 64 59 67 69 71 71 69 59 65 67 64 66 67 66 65 46 62 61 61 59 59 59 59 59 60 60 60 59 57 57 54 53 52 51 51 50 50 50 50
75 73 76 73 73 71 74 74 72 71 71 69 54 56 69 65 60 67 72 73 70 70 69 69 69 68 66 65 64 64 53 57 48 41 42 41 40 44 55 57 57 57 57 54 52 52 51 50 50 49 49 50 50 50

GFSWCAN_sfc_temp_039.txt.gz
Temp
55 55 55 56 56 56 56 56 56 56 56 56 57 57 57 57 57 54 51 52 46 40 43 48 48 42 42 41 37 42 43 44 41 36 35 36 35 41 41 45 46 46 43 43 44 45 40 64 65 55 60 64 65 65
55 55 55 55 55 55 55 55 55 55 56 56 57 57 57 57 56 56 49 52 51 44 45 50 51 52 49 49 43 44 42 42 46 38 38 40 38 44 43 36 50 38 46 41 46 46 57 60 61 67 68 63 63 62
54 55 55 55 55 55 55 55 55 55 56 56 56 57 57 57 56 55 51 50 48 43 44 47 47 55 56 53 56 41 46 50 46 48 43 41 38 44 36 41 43 49 54 44 45 52 55 61 65 66 66 64 65 65
54 54 55 55 55 55 55 55 55 55 55 56 56 56 57 57 57 57 51 51 49 45 39 46 58 51 57 58 56 53 49 52 49 47 41 39 38 44 38 41 40 46 48 44 46 51 51 56 55 58 59 61 64 67
54 54 54 54 54 54 55 55 55 55 55 55 56 56 57 57 56 57 55 54 56 47 41 44 52 54 55 55 54 50 48 45 43 39 38 36 39 38 40 42 42 47 43 37 37 47 46 47 53 54 54 56 61 62
54 54 54 54 54 54 55 55 54 55 55 55 56 56 56 57 56 55 48 54 56 54 43 39 56 53 55 54 50 48 46 44 42 38 36 38 42 38 33 33 43 44 44 44 41 47 48 49 51 53 52 56 61 62
54 54 54 54 54 54 54 54 54 54 55 55 55 56 57 57 57 53 50 54 57 56 45 42 45 52 53 51 48 46 46 42 40 36 34 35 36 39 33 31 39 42 46 49 49 47 44 47 45 53 57 59 62 64
54 53 53 54 54 54 54 54 54 54 55 55 56 56 54 54 52 54 56 55 57 51 48 43 46 48 51 46 44 46 41 41 39 38 37 35 36 35 31 38 43 45 47 48 50 51 48 51 52 52 55 56 56 59
53 53 53 53 54 54 54 54 54 55 55 55 56 56 57 55 57 56 57 56 57 51 45 46 41 42 51 47 47 44 43 39 40 37 36 35 32 33 37 41 43 44 44 45 52 52 51 50 52 52 51 54 55 57
53 53 53 53 53 54 54 54 54 55 55 56 56 58 54 57 57 57 52 49 48 50 51 45 48 43 49 48 47 45 43 42 39 42 41 36 35 46 48 47 47 47 47 47 44 45 48 50 50 51 52 54 57 57
53 53 53 53 53 53 54 54 54 55 55 57 58 59 58 57 56 51 51 50 52 48 53 49 49 47 55 46 47 49 46 46 38 41 42 36 36 44 50 49 49 49 49 47 47 47 48 47 47 49 53 57 56 55
53 53 53 53 53 53 54 54 54 56 63 57 56 66 60 55 54 54 51 53 49 44 56 50 49 51 52 55 46 50 46 47 41 49 39 33 41 47 50 51 51 51 50 49 48 47 48 47 47 48 50 50 50 50
53 53 53 53 53 54 54 55 55 55 57 65 61 58 59 56 46 40 35 48 49 58 61 57 52 53 54 55 49 50 50 45 54 41 34 40 45 49 50 53 54 54 53 50 49 49 49 48 48 47 46 49 50 49
53 53 53 53 53 54 55 55 57 56 59 59 60 41 53 53 57 57 57 57 62 62 63 62 56 53 57 53 55 49 49 49 40 34 35 43 46 49 51 54 54 53 54 53 50 49 48 47 46 47 47 47 48 46
53 53 53 55 55 55 55 56 56 61 60 63 63 42 56 63 65 65 65 63 64 66 65 59 56 55 56 54 54 48 45 37 38 38 42 46 48 49 50 53 53 54 55 54 54 51 50 48 47 46 47 47 47 47
53 53 63 56 55 55 54 58 59 64 69 67 66 61 63 61 61 63 63 61 66 66 66 63 57 52 51 51 48 44 39 35 41 45 48 51 50 50 50 53 54 54 53 56 56 54 52 51 49 47 48 48 48 47
52 68 55 55 54 55 55 68 71 70 68 66 64 68 65 63 61 63 64 63 67 63 57 58 52 49 54 48 45 48 43 47 49 50 54 53 51 51 52 53 54 55 54 53 53 54 54 54 54 51 48 49 51 50
61 70 59 55 54 62 75 71 72 69 65 68 64 65 67 66 63 64 65 66 63 61 59 57 58 52 48 45 45 49 52 53 53 53 54 54 55 54 56 54 54 55 55 54 54 55 54 54 53 52 52 53 54 53
58 57 54 53 54 58 69 73 72 64 67 69 69 68 67 67 67 68 67 65 65 65 61 58 53 49 48 51 50 52 52 52 51 53 54 55 56 54 56 56 55 54 54 54 53 56 55 54 53 54 53 53 52 53
52 52 53 54 55 67 68 69 74 67 65 67 69 67 67 66 67 68 67 66 63 61 56 54 53 54 54 53 55 54 53 53 53 52 53 54 56 55 56 55 54 55 55 56 55 52 55 55 57 57 54 52 51 50
62 68 61 60 69 65 71 69 68 69 68 64 66 68 65 68 65 65 64 67 61 57 56 57 57 57 58 57 58 57 55 54 52 53 53 53 55 57 57 57 57 56 55 55 55 53 52 51 53 54 54 52 53 54
70 62 72 72 70 73 70 72 69 69 67 68 66 68 64 63 64 63 65 62 59 59 60 58 58 58 57 57 57 57 56 56 55 56 54 55 55 56 56 57 57 55 55 55 55 54 53 54 54 56 55 54 53 52
63 65 70 73 68 54 53 73 66 68 62 64 64 62 62 61 63 67 60 63 61 63 62 61 60 59 58 60 59 58 58 56 56 56 56 57 57 56 58 58 58 56 54 54 57 56 54 52 54 54 54 53 54 53
57 68 66 62 64 53 70 65 68 66 66 63 61 55 61 59 63 58 56 60 62 63 61 61 62 61 59 57 58 57 58 58 58 57 57 56 56 55 56 58 59 58 55 56 57 56 56 55 53 54 53 52 53 52
52 52 55 39 64 64 63 65 66 64 62 63 61 61 60 51 45 48 49 59 62 62 61 62 62 61 59 59 60 58 58 59 56 55 56 56 55 56 56 57 55 56 58 56 55 56 56 56 54 54 54 52 51 52
42 61 51 65 66 65 65 60 52 48 51 49 60 62 56 49 47 47 48 57 61 60 61 61 59 58 57 59 59 59 59 60 57 55 55 57 56 54 52 52 51 51 56 56 55 54 55 55 54 54 53 52 48 52
46 61 67 72 71 65 54 55 57 54 50 53 57 60 57 51 47 45 49 55 58 64 64 62 62 61 60 61 61 61 62 60 58 57 58 58 59 58 56 53 51 52 56 57 56 55 53 53 54 54 52 52 51 51
67 68 62 66 66 64 56 49 52 54 59 63 60 58 55 53 49 51 56 59 63 65 65 66 65 65 66 64 65 63 63 63 61 61 62 61 60 59 58 58 56 47 52 52 53 54 53 53 52 52 52 51 50 52
67 72 69 64 66 56 56 55 57 59 65 64 59 56 50 50 53 53 64 62 69 69 65 65 65 67 66 66 65 65 65 63 58 54 53 53 54 55 58 58 57 57 56 54 45 48 50 50 50 50 52 51 51 51
66 75 68 68 65 64 65 67 68 71 70 67 63 59 56 57 61 65 70 69 67 66 67 67 67 66 63 63 61 61 63 63 61 56 52 52 53 57 57 56 56 56 55 55 54 53 47 50 50 51 51 50 49 49
73 74 71 69 68 72 76 76 77 76 65 61 59 53 53 54 56 67 68 68 69 69 68 65 63 64 62 60 58 57 55 59 58 57 56 57 57 56 55 56 56 56 55 54 53 52 52 51 50 49 49 48 48 47
74 68 61 63 69 76 78 75 74 72 65 60 54 56 58 53 56 63 67 68 67 65 58 63 61 60 63 63 62 59 53 55 54 54 53 53 52 53 55 55 55 56 54 53 51 50 50 50 49 48 48 48 48 48
73 74 73 72 70 70 74 72 71 70 69 61 58 59 62 62 57 64 69 69 67 66 65 65 65 64 62 61 56 54 52 52 46 41 41 40 40 45 51 52 52 54 52 50 49 49 49 49 48 48 48 48 48 48

GFSWCAN_sfc_temp_042.txt.gz
Temp
54 55 55 55 55 56 56 55 55 56 56 56 57 57 57 57 57 53 50 51 46 40 43 48 47 42 42 41 36 41 39 38 36 30 33 33 32 35 35 37 36 35 35 34 37 38 33 55 53 46 51 60 61 59
54 55 55 55 55 55 55 55 55 55 56 56 56 56 56 56 56 55 48 52 51 44 44 48 50 50 48 47 42 43 40 41 41 32 32 36 33 36 37 32 46 34 37 34 37 38 50 56 51 55 56 56 55 58
54 54 55 55 55 55 55 55 55 55 55 56 56 56 57 56 56 55 50 50 48 43 42 43 47 52 54 51 53 41 44 45 43 42 34 36 35 37 29 35 39 44 48 39 37 47 47 52 56 56 54 53 55 57
54 55 55 55 55 55 55 55 55 55 55 55 56 56 57 56 56 56 50 50 48 44 37 44 56 51 57 55 53 51 48 49 46 44 36 35 35 37 33 36 35 41 43 38 37 42 45 52 54 52 54 54 55 57
54 54 54 54 54 54 55 55 55 55 55 56 56 56 56 56 56 55 53 52 49 43 38 41 46 48 48 49 50 49 47 44 42 38 36 35 38 37 35 34 38 42 38 35 35 43 43 43 49 52 51 51 53 54
54 54 54 54 54 54 55 55 55 55 55 56 56 56 56 57 56 53 46 52 54 48 40 36 47 45 48 48 47 45 44 43 41 38 36 38 40 38 31 31 40 43 45 46 43 49 48 48 49 51 50 51 53 54
54 54 53 54 54 54 54 54 55 55 55 55 56 57 57 56 50 47 45 48 53 48 39 41 42 50 51 45 44 43 43 40 40 37 35 36 36 38 33 30 38 43 45 46 49 49 46 46 44 52 54 56 57 58
53 53 53 53 54 54 54 55 55 55 55 55 56 56 54 54 52 48 48 54 52 44 44 40 41 44 47 43 42 44 39 40 39 37 38 35 37 34 31 38 44 44 46 46 48 50 47 48 49 49 51 53 52 53
53 53 53 53 53 54 54 54 55 54 55 55 56 56 51 48 47 47 57 56 49 46 42 42 40 40 46 42 41 43 40 39 40 37 37 37 33 33 37 43 44 45 43 44 48 49 48 46 47 50 50 49 50 50
53 53 53 53 53 53 53 54 54 55 55 55 51 48 46 48 58 55 47 46 45 42 42 42 45 41 45 45 45 43 42 41 37 39 40 35 35 45 46 46 46 47 46 46 43 42 44 44 46 49 52 49 49 50
53 53 53 53 53 53 53 54 54 55 55 49 48 48 48 56 48 46 44 40 42 40 42 43 43 43 47 42 44 45 42 41 30 36 39 36 35 42 47 46 47 48 48 47 47 47 46 46 45 47 48 49 49 50
53 53 53 53 53 53 53 54 54 49 51 51 50 52 49 46 46 42 41 43 39 40 45 44 45 47 47 49 43 46 41 40 33 40 37 33 38 43 43 46 47 47 48 48 48 47 47 46 46 46 46 46 47 49
53 53 53 53 53 53 53 54 54 53 52 52 50 49 48 46 41 39 33 40 41 47 51 52 45 46 46 46 44 41 42 38 43 35 33 39 44 43 44 45 47 47 48 48 48 48 48 47 47 46 45 46 46 46
52 52 53 53 53 53 54 55 55 53 49 49 48 40 45 44 46 45 44 44 49 49 50 50 46 45 46 44 44 41 40 41 34 33 33 40 43 42 44 46 46 47 51 47 47 47 46 46 45 46 46 46 46 44
52 52 53 54 55 55 55 55 55 51 51 49 50 40 46 50 50 51 51 50 52 52 50 48 48 46 45 44 42 41 39 34 36 36 40 41 42 42 43 45 46 46 48 50 47 47 47 46 45 44 46 46 46 44
53 53 56 55 54 54 53 54 51 53 54 53 52 50 50 49 49 50 49 49 52 51 50 49 45 43 42 41 40 36 33 30 36 40 42 42 43 44 45 46 46 47 47 47 47 47 47 47 46 45 47 46 46 45
52 54 55 54 53 54 55 57 57 56 57 58 56 54 51 50 49 49 50 51 52 50 45 46 43 40 43 39 37 39 34 37 39 41 42 44 45 45 46 47 47 48 47 46 47 47 46 49 48 47 46 47 47 47
51 57 56 54 52 54 59 58 60 60 58 55 51 52 53 52 51 51 53 52 51 48 47 46 46 42 38 37 35 38 39 41 41 42 43 46 45 46 48 46 47 47 47 48 48 46 46 46 46 46 47 48 49 48
51 52 53 52 52 50 56 61 60 55 58 58 54 54 54 53 56 54 53 53 52 51 49 46 43 39 38 39 40 40 40 40 40 42 43 45 46 47 48 49 48 47 46 47 46 45 45 46 44 45 46 47 46 47
52 53 53 53 53 54 58 59 60 58 56 55 55 55 53 53 55 54 53 52 51 48 46 43 42 42 42 42 43 43 42 42 41 41 43 45 46 47 46 48 47 44 46 45 46 46 45 45 45 45 46 45 46 44
55 61 56 54 54 54 56 56 55 58 55 53 56 55 53 54 52 51 51 51 48 45 44 45 45 46 47 46 47 46 44 44 43 42 42 42 46 46 47 48 48 47 45 43 43 44 45 42 42 44 45 44 44 45
55 60 58 58 59 62 56 58 56 56 54 54 55 54 51 52 50 50 51 50 46 47 48 47 47 48 47 47 48 49 51 51 47 45 46 46 44 45 45 46 46 45 45 45 45 44 44 43 44 45 44 44 45 45
56 57 58 62 59 49 51 57 56 56 52 54 54 53 50 51 50 53 51 51 49 51 51 51 50 51 50 50 49 49 50 47 45 45 45 44 44 44 45 46 46 46 44 46 45 45 45 45 46 45 44 48 46 44
57 57 56 55 56 47 57 55 56 55 54 54 52 47 48 47 50 47 45 47 49 52 51 53 52 50 48 48 46 46 47 46 48 45 44 44 43 43 44 45 44 44 44 45 46 45 46 45 46 44 44 45 44 43
47 47 49 40 51 54 56 57 54 53 51 50 50 49 46 47 44 43 44 47 49 53 53 53 51 48 46 46 46 46 47 47 44 43 43 43 43 43 42 43 43 43 44 45 44 45 45 45 44 44 44 43 43 43
40 52 49 55 56 55 51 50 50 48 48 48 48 49 47 45 45 43 44 48 50 52 50 50 49 46 46 47 49 44 46 47 46 44 44 45 45 43 40 40 40 42 44 43 44 45 46 46 47 47 45 45 43 44
42 52 57 57 56 54 51 51 51 47 47 47 49 49 47 41 39 46 47 49 48 51 50 51 54 49 47 46 47 50 51 48 47 47 47 46 46 46 45 42 41 41 44 46 45 45 44 45 47 46 44 44 44 44
56 57 55 55 53 53 49 48 47 48 50 51 51 43 43 43 42 47 49 53 54 53 51 51 52 52 51 51 55 50 48 49 52 49 50 52 50 48 48 45 44 44 44 46 46 47 46 45 44 45 45 43 42 43
55 58 58 55 54 50 50 49 51 53 53 51 47 46 46 48 51 51 53 52 55 51 49 48 49 51 55 54 52 53 55 54 50 47 46 44 45 45 47 47 45 45 44 46 44 44 47 46 45 44 46 45 44 45
58 61 57 59 57 54 55 53 54 56 54 52 51 50 48 49 52 53 53 53 52 53 56 55 56 56 53 52 49 48 50 49 48 43 40 39 40 43 47 48 46 46 45 44 45 44 46 46 46 47 46 42 42 42
61 64 60 59 58 60 60 61 56 54 54 51 51 48 48 48 50 53 53 53 56 56 54 50 49 49 48 46 45 44 42 44 45 45 44 42 43 43 44 44 45 46 45 46 45 44 43 42 42 43 43 43 42 41
60 58 56 54 56 61 64 59 56 53 52 49 47 51 49 48 48 51 54 54 51 49 50 49 48 46 49 48 47 47 44 43 42 42 42 41 41 42 41 42 46 46 45 45 44 44 46 43 42 41 41 42 41 42
62 61 60 59 59 61 60 59 57 50 51 49 49 51 51 51 48 50 54 55 52 50 49 49 50 50 48 48 47 44 43 41 40 39 40 40 41 40 39 39 42 44 44 42 42 42 44 43 40 42 44 42 42 42

GFSWCAN_sfc_temp_045.txt.gz
Temp
54 55 55 55 55 55 55 55 55 56 56 56 57 57 57 57 57 53 50 50 46 41 43 47 47 42 42 41 35 41 37 38 36 32 32 30 31 33 33 35 34 33 33 33 35 35 34 51 51 43 45 53 53 51
55 55 55 55 55 55 55 55 55 55 55 56 56 56 57 56 56 55 47 52 51 44 44 47 50 50 47 47 42 43 40 40 37 33 34 34 33 34 33 30 41 33 35 33 35 37 48 51 47 51 54 51 51 50
54 55 55 55 55 55 55 55 55 55 55 56 56 57 57 57 57 55 50 49 48 43 42 43 45 53 53 51 51 41 43 45 43 44 37 36 33 35 31 32 38 40 44 35 36 43 43 48 52 52 51 50 54 55
54 55 55 54 54 55 55 55 55 55 55 56 57 57 57 56 57 54 47 50 46 42 35 41 53 47 51 53 52 50 47 48 46 38 34 35 34 39 35 35 36 39 40 37 39 44 45 50 51 52 51 51 53 55
54 54 54 54 54 55 55 55 55 55 55 56 57 56 56 57 56 53 48 47 46 42 36 38 43 47 48 50 49 48 45 44 41 38 36 34 38 37 37 36 36 41 38 36 35 44 42 44 50 52 50 48 50 51
54 54 54 54 54 55 55 55 55 55 55 55 56 56 56 56 55 52 44 48 48 46 39 37 47 46 47 48 46 44 43 42 40 38 36 37 41 37 33 33 41 43 45 44 42 46 47 50 51 52 49 50 50 52
54 54 54 53 54 54 54 55 55 55 55 55 56 56 57 55 49 46 43 48 52 48 42 39 39 45 47 44 42 42 42 39 40 37 35 36 37 38 33 32 41 43 45 46 48 48 45 49 47 50 52 54 54 52
54 53 53 53 54 54 54 55 55 54 55 56 56 55 55 54 52 46 47 52 49 44 41 41 42 42 44 39 38 40 37 39 40 38 38 36 37 35 33 41 44 45 46 46 47 48 47 49 50 50 50 52 51 51
53 53 53 53 53 53 54 55 55 55 55 56 56 55 50 47 45 47 56 54 47 44 37 39 40 40 44 40 40 39 38 37 40 38 37 36 33 33 37 39 43 44 43 42 47 47 47 45 46 49 49 49 49 50
53 53 53 53 53 53 53 54 54 55 55 55 51 48 45 47 57 54 46 46 46 42 39 39 41 42 44 45 44 41 42 42 37 39 41 36 34 40 43 42 43 46 46 44 43 41 43 43 44 45 46 49 50 51
53 53 53 53 53 53 53 53 54 55 54 48 46 46 47 55 47 48 45 40 40 39 39 40 40 42 47 42 43 45 41 40 30 39 39 35 34 38 43 42 43 44 44 44 44 45 44 44 43 44 44 45 46 48
53 53 53 53 53 53 53 53 54 48 49 50 49 50 47 46 45 41 39 40 37 38 42 42 43 47 45 48 41 42 39 39 31 38 36 33 37 41 41 43 43 44 45 45 45 44 44 45 45 45 44 44 44 46
53 53 53 53 53 53 53 53 53 53 51 49 48 46 46 44 38 37 32 39 39 44 46 46 46 45 45 43 44 43 40 34 39 36 33 34 39 41 41 42 44 43 45 45 45 45 45 44 46 45 44 44 44 44
53 53 53 52 52 53 54 54 54 53 48 48 47 37 42 41 43 43 42 42 46 45 46 43 44 43 42 42 40 38 37 39 32 32 30 35 39 41 42 43 43 43 45 45 43 44 44 43 43 45 45 45 44 43
53 53 52 53 55 54 54 54 54 50 50 48 47 39 44 49 47 48 47 46 49 47 44 44 44 43 41 41 39 38 36 28 34 32 35 38 41 41 42 43 42 43 43 46 45 43 43 44 43 44 45 45 45 44
53 53 55 55 53 53 53 53 51 51 51 49 48 47 47 46 47 47 47 46 48 46 45 45 42 41 39 38 37 34 32 27 33 38 39 40 41 42 42 44 44 44 43 44 44 45 44 43 43 43 46 45 45 45
52 52 55 53 53 52 53 53 53 53 53 53 50 49 48 47 47 47 47 49 47 47 43 42 41 38 40 37 35 35 32 35 37 37 39 39 41 42 44 44 44 45 44 42 43 43 44 45 44 44 43 45 45 45
49 54 55 53 51 51 54 53 56 56 54 52 51 50 49 50 48 48 49 48 49 45 44 44 43 39 35 35 34 36 37 38 38 38 39 41 41 43 45 43 44 44 44 44 44 43 43 43 42 41 41 44 45 45
50 52 53 52 51 48 54 57 56 52 53 51 53 50 50 50 49 50 50 49 48 46 46 42 41 37 37 37 38 38 37 36 38 39 41 42 42 42 44 45 45 44 44 43 42 41 40 41 41 40 41 41 42 44
52 53 53 53 52 52 55 54 55 53 51 52 50 50 51 51 51 49 48 48 47 46 45 42 42 41 40 41 40 41 41 40 39 40 41 44 44 42 44 43 42 42 42 41 41 43 42 41 41 41 41 41 41 40
52 55 54 52 50 51 53 52 52 52 52 51 51 51 50 49 50 50 50 50 44 42 42 43 45 47 45 44 44 43 42 42 42 41 41 40 43 41 42 42 42 41 42 41 41 40 41 41 39 40 41 40 40 41
51 56 55 54 56 55 52 54 53 52 52 52 50 51 49 46 46 47 49 48 46 44 47 47 48 48 44 44 45 45 47 44 42 41 43 41 40 41 40 40 42 42 42 41 41 42 41 40 40 40 41 40 41 41
54 55 55 58 55 49 50 53 53 52 51 49 52 52 46 46 47 51 47 45 47 49 49 52 51 50 50 48 46 47 48 48 45 41 41 40 39 39 40 40 42 43 42 42 43 41 41 42 42 41 42 41 41 40
55 55 53 52 52 48 54 53 52 51 50 49 48 47 44 45 49 46 45 45 48 50 52 50 50 49 47 45 43 46 46 44 46 40 39 41 40 38 38 39 40 41 41 42 43 43 42 41 41 41 41 41 41 40
45 46 48 40 49 51 52 51 51 50 47 47 46 46 45 46 42 42 43 45 47 50 49 50 48 47 43 42 42 46 49 49 43 42 40 41 39 38 39 39 39 38 39 41 40 42 42 42 42 42 41 41 41 41
40 49 46 52 51 51 50 48 48 46 45 46 46 48 48 44 43 41 44 45 46 48 46 46 45 44 43 42 42 42 46 46 44 41 40 41 41 41 38 38 37 41 40 39 42 44 44 44 44 44 43 42 41 42
41 49 54 53 52 50 48 48 48 46 46 45 45 44 44 39 40 42 45 46 46 48 48 47 46 45 44 42 44 50 50 44 44 44 44 43 42 43 43 41 40 40 40 43 43 44 43 43 43 43 43 43 43 42
52 52 52 53 50 50 49 46 46 45 47 48 45 42 42 43 42 44 46 48 49 49 47 47 46 49 47 45 45 48 46 47 48 50 47 45 47 46 46 46 43 42 44 44 44 43 43 42 42 42 42 42 40 41
51 53 53 51 50 49 48 47 47 48 49 47 45 44 44 46 47 47 49 49 49 47 46 45 43 49 49 51 48 47 45 44 47 43 42 41 42 43 44 42 44 46 44 45 43 43 45 44 43 43 43 43 43 42
53 54 54 54 53 51 52 50 50 50 50 49 49 46 46 47 49 50 48 47 47 45 45 49 48 50 46 44 41 42 42 42 40 39 37 36 38 42 43 46 45 43 42 44 44 42 44 43 43 43 42 41 39 38
55 54 55 54 53 53 52 52 50 50 50 49 48 46 46 47 48 49 47 46 46 46 47 44 42 42 41 39 38 38 37 38 39 41 40 38 38 40 39 39 40 42 44 42 42 42 40 39 39 39 39 39 39 39
55 55 53 52 50 52 55 52 50 48 48 47 46 48 47 46 46 46 48 46 46 45 45 43 42 39 40 40 40 40 40 38 37 38 38 37 37 37 37 39 40 41 41 42 42 40 41 39 38 38 38 39 38 38
55 55 54 54 52 50 52 52 50 48 47 47 47 48 48 48 46 47 48 47 46 45 43 42 42 42 43 44 42 40 39 38 38 39 39 39 39 38 37 37 40 41 41 40 40 39 40 39 38 39 38 38 38 38

GFSWCAN_sfc_temp_048.txt.gz
Temp
55 55 55 55 55 55 56 55 55 55 56 56 56 57 57 57 57 52 47 49 47 41 44 48 47 42 42 40 35 40 38 35 35 32 31 30 30 32 32 35 34 31 30 30 31 31 33 45 48 42 44 49 49 49
55 55 55 55 55 55 55 56 55 55 55 56 56 57 57 57 56 54 44 52 51 45 44 48 49 50 48 47 43 42 40 40 40 35 34 34 32 33 32 29 37 33 35 33 35 34 42 44 45 48 49 47 49 50
54 55 55 55 54 55 55 55 55 55 55 56 57 57 57 57 57 53 48 49 48 43 39 40 42 50 51 51 51 40 43 44 43 42 37 36 32 34 31 32 36 39 42 35 35 39 42 47 51 51 51 48 52 54
54 55 55 54 54 55 55 55 55 55 56 56 57 57 57 57 57 53 46 46 43 39 34 40 51 46 52 50 50 50 47 48 44 40 37 35 34 38 33 34 36 39 40 36 35 41 45 49 49 50 51 52 51 54
54 54 54 54 54 55 55 55 55 56 56 56 56 56 57 57 56 51 46 47 45 42 37 37 43 44 48 50 48 47 44 41 40 37 35 33 37 36 37 36 35 40 38 36 35 43 42 44 49 50 49 49 51 51
54 54 54 54 54 55 55 55 55 55 55 56 57 56 56 56 55 52 42 46 47 45 41 37 43 42 45 49 46 42 42 41 39 37 35 37 41 37 32 33 40 43 44 44 41 45 46 48 50 51 48 50 52 52
54 54 54 53 54 54 55 55 55 55 55 56 56 57 56 55 48 45 43 46 50 45 40 41 40 45 45 43 41 40 39 38 39 38 36 37 37 37 33 32 41 43 45 45 47 46 44 46 45 50 51 51 52 52
54 54 53 53 54 54 54 55 55 55 55 56 56 55 55 54 51 46 46 51 49 42 40 38 42 44 47 41 39 39 36 37 39 38 39 37 38 36 33 39 43 45 46 45 46 47 46 47 48 47 50 51 50 50
54 54 53 53 53 53 54 54 55 54 55 56 56 55 50 47 44 46 56 53 48 43 36 40 37 40 47 43 42 38 37 38 39 37 37 38 33 33 37 39 42 44 43 43 47 46 46 45 45 46 46 46 47 48
53 53 53 53 53 53 53 53 54 54 55 55 50 47 44 45 56 54 47 46 45 44 40 39 40 42 46 45 44 41 40 41 36 39 42 35 33 41 42 42 42 45 45 44 42 40 42 43 43 44 44 44 44 45
53 53 53 53 53 53 53 53 54 54 53 47 45 45 46 54 47 48 45 42 40 41 40 39 40 39 45 43 43 45 40 40 34 38 38 35 30 37 43 42 43 45 46 44 43 44 45 44 43 43 43 44 44 44
53 53 53 53 53 53 53 53 54 48 47 49 48 48 46 46 45 41 38 38 36 37 41 41 43 45 43 47 41 42 41 40 31 37 38 27 35 41 41 42 43 44 46 45 44 43 43 43 43 44 44 43 44 44
53 53 53 53 53 53 53 53 53 53 51 48 47 44 45 43 37 36 31 38 38 42 44 43 42 44 43 42 44 43 40 33 38 36 32 32 38 41 41 42 43 44 46 45 45 45 44 44 44 43 42 43 45 44
53 53 53 53 52 54 54 54 53 52 47 46 45 37 42 40 42 42 41 41 45 43 44 40 42 40 41 41 38 37 36 37 32 31 28 35 38 41 42 43 43 43 45 46 45 45 44 43 42 43 43 43 42 43
53 53 53 51 53 54 53 54 54 49 48 47 45 37 42 47 46 46 45 43 46 44 42 42 41 41 39 39 37 36 35 28 29 29 34 38 40 40 41 42 42 43 43 44 45 44 44 44 43 42 44 44 43 43
53 52 53 53 53 52 53 53 50 49 49 47 45 44 44 44 46 45 45 45 45 43 42 42 40 40 38 36 37 34 32 24 33 36 38 38 39 41 42 42 43 43 43 43 44 45 44 44 43 43 43 44 45 44
52 50 53 53 52 52 53 51 50 50 51 49 48 46 47 46 47 47 45 46 44 45 42 41 40 37 38 36 35 35 32 35 36 37 38 37 38 40 42 42 44 44 44 44 43 44 44 45 44 43 42 44 44 45
47 52 54 53 52 51 50 50 52 53 50 50 48 53 48 48 47 46 46 46 47 43 42 43 42 39 37 35 34 37 38 38 37 37 38 39 40 41 43 41 44 44 44 44 44 44 43 43 43 42 40 42 44 44
51 52 53 53 51 48 52 53 53 50 51 49 48 48 48 50 48 48 48 47 46 46 44 41 41 37 38 37 39 40 39 37 39 39 39 40 41 41 42 43 44 43 43 42 42 42 41 42 42 41 42 43 43 43
52 53 53 53 52 51 53 52 53 50 49 50 47 48 48 47 47 48 47 47 46 47 46 42 43 43 43 44 42 42 40 39 39 40 41 42 42 41 41 41 42 42 42 41 42 42 42 42 42 42 43 42 43 42
51 53 52 51 49 51 51 50 50 49 49 48 49 48 47 48 48 47 46 46 48 43 42 45 46 45 47 46 45 44 43 42 41 42 41 40 42 40 40 41 41 41 43 43 43 42 42 43 42 43 43 43 43 43
52 55 52 52 54 53 50 52 51 50 49 52 50 48 46 45 44 45 47 47 45 45 45 45 45 47 46 47 48 45 45 44 44 41 42 40 41 40 40 40 42 42 45 46 44 43 43 43 43 43 44 43 43 44
54 53 54 56 53 47 49 51 51 51 49 48 48 47 44 45 45 48 44 44 47 49 47 48 49 49 48 48 48 49 48 45 42 41 40 40 39 39 40 41 41 44 45 44 42 43 43 42 42 43 43 44 44 43
53 53 52 51 49 46 51 50 50 50 48 46 44 43 44 44 45 42 41 43 48 48 48 49 50 45 44 44 43 45 46 44 42 41 40 40 40 39 39 40 41 42 41 42 43 44 45 44 43 44 44 44 43 43
44 47 47 38 47 49 49 49 48 47 45 45 45 43 42 43 40 40 40 42 44 46 49 46 45 44 44 43 42 42 44 48 47 43 41 40 42 40 40 41 41 40 41 44 42 43 43 44 44 46 46 45 43 43
39 48 45 49 48 49 49 47 46 45 45 44 44 44 44 42 40 39 41 44 45 46 46 45 44 44 44 42 42 43 46 47 44 45 42 41 44 43 41 42 42 43 43 43 44 45 45 45 46 45 45 45 42 44
40 48 49 49 50 49 46 47 47 44 44 45 45 43 42 39 39 42 44 45 45 47 47 46 45 44 42 42 43 46 48 44 45 46 44 44 46 43 44 44 43 44 44 46 46 46 45 45 45 45 44 45 45 45
49 49 49 50 48 48 47 46 45 44 47 46 44 43 43 42 42 44 46 48 48 47 45 43 43 45 47 47 46 42 42 43 44 45 48 44 45 46 43 44 45 42 47 46 45 45 45 45 45 45 45 44 44 44
49 51 51 50 49 48 47 47 46 47 48 46 45 44 44 45 46 46 48 47 46 46 41 42 42 44 45 42 43 42 40 42 44 42 42 41 42 41 44 46 45 43 46 46 42 43 46 46 46 46 46 45 45 44
51 51 51 51 50 49 50 49 48 48 48 48 47 46 45 46 48 47 46 45 46 44 44 44 43 42 40 40 39 41 40 39 40 41 39 38 39 41 44 47 45 44 45 45 45 46 42 45 44 46 44 44 43 43
51 50 52 51 51 50 50 49 49 49 49 48 47 45 46 46 47 46 46 43 43 44 44 42 40 40 41 40 40 39 38 39 39 40 39 39 39 40 41 42 43 44 44 44 44 44 43 43 43 43 43 43 42 42
51 52 51 50 49 50 52 50 49 47 47 47 46 46 46 47 45 46 46 46 45 44 43 42 42 41 41 40 40 40 39 39 39 40 41 40 40 40 42 42 43 44 44 43 43 43 44 42 42 42 42 42 43 42
53 52 51 49 48 49 50 50 49 47 47 46 46 47 48 48 46 47 46 45 46 44 43 42 42 42 42 42 41 40 40 41 40 39 39 38 38 39 41 42 43 44 44 43 43 43 43 42 42 41 41 41 42 42

GFSWCAN_sfc_temp_051.txt.gz
Temp
55 55 56 56 55 55 56 56 56 56 56 56 57 57 57 57 56 54 51 52 48 43 49 49 48 44 43 41 36 41 44 41 38 33 33 33 31 33 32 38 36 34 33 33 35 30 30 43 46 47 49 56 52 52
55 55 55 55 55 55 56 56 56 56 56 57 57 57 57 57 57 54 51 53 52 46 49 53 52 53 51 48 43 43 41 41 40 34 35 35 32 34 34 30 39 32 36 35 36 36 43 45 44 51 56 54 53 51
55 55 55 55 54 55 56 56 56 56 56 57 58 58 57 57 57 55 52 52 50 47 50 53 52 56 58 55 55 43 45 47 45 43 38 36 32 35 31 33 34 37 42 37 36 41 43 45 48 53 54 54 55 54
54 55 55 54 54 55 56 56 56 56 56 57 57 57 57 57 56 54 53 54 51 47 44 53 58 54 57 56 53 54 51 52 50 47 40 37 34 38 34 34 35 38 40 37 37 42 46 47 47 50 51 55 55 55
54 54 54 54 54 55 55 55 56 56 55 56 56 57 57 57 55 56 55 56 56 50 44 52 55 55 55 55 52 52 49 47 44 41 39 35 37 36 38 38 35 40 37 35 35 41 42 43 47 50 51 52 54 53
54 54 54 54 54 54 55 55 56 55 55 56 57 57 57 56 55 53 51 55 56 56 46 46 48 51 52 53 51 49 48 45 44 40 38 42 44 38 35 33 40 43 43 43 40 44 45 46 48 49 49 52 54 54
54 54 54 54 54 54 54 55 55 55 55 56 56 57 56 55 57 54 53 55 53 56 48 45 44 48 48 50 51 49 47 46 45 42 40 39 40 40 37 33 43 45 46 45 46 45 43 45 43 48 49 51 55 54
54 54 54 54 54 54 54 54 54 54 55 56 56 56 56 54 54 54 58 54 55 53 50 44 45 44 49 44 44 48 46 47 45 43 45 40 42 39 34 44 47 48 48 47 47 46 47 49 48 47 48 48 48 47
54 54 54 54 53 54 54 54 54 54 55 55 56 55 57 55 53 55 55 55 55 51 46 43 42 45 49 45 44 43 47 43 45 43 43 42 34 33 40 44 47 47 45 45 49 48 46 46 46 46 45 44 43 44
54 54 53 53 53 54 54 53 54 54 55 55 56 54 52 55 56 56 50 48 48 47 45 41 46 46 51 48 45 43 44 44 39 43 45 38 37 48 49 49 49 50 49 49 45 43 43 43 43 44 44 46 45 44
53 53 53 53 53 53 53 53 53 54 54 56 54 54 55 54 52 51 48 45 48 44 45 44 47 46 52 49 48 49 42 43 35 42 42 40 39 47 51 51 51 51 51 49 49 49 48 47 46 44 43 44 45 45
53 53 53 53 53 53 53 53 53 55 57 56 56 54 55 52 51 48 49 48 45 45 51 50 52 49 50 54 48 49 44 43 37 48 42 34 45 51 51 51 51 51 52 50 50 49 49 49 49 48 46 44 44 45
53 53 53 53 53 53 53 53 53 53 54 56 55 52 52 51 43 45 38 50 50 57 57 55 51 50 49 50 48 48 44 41 49 44 35 44 49 52 52 52 53 53 53 52 51 50 50 50 51 50 49 49 50 46
53 53 53 53 52 53 54 54 53 53 55 55 52 40 50 50 52 54 55 56 60 56 57 54 52 51 51 47 51 45 45 48 41 34 36 49 51 52 53 54 52 52 53 53 52 52 51 50 51 51 51 51 51 49
53 53 53 52 54 54 53 53 53 55 56 54 54 43 51 59 58 59 58 55 58 58 57 53 54 53 53 49 51 47 42 38 40 40 47 51 51 51 53 53 54 54 54 54 55 54 53 53 52 52 53 53 53 51
53 53 55 53 52 52 53 53 55 57 57 55 53 54 57 55 60 59 58 58 60 58 54 56 53 50 48 49 46 43 41 37 45 48 51 52 49 51 53 53 54 55 55 56 56 55 55 54 54 53 55 55 54 54
52 59 53 53 52 52 53 57 57 56 58 55 57 59 58 56 58 61 60 61 58 58 57 55 50 48 49 47 43 45 45 49 49 50 52 50 49 51 52 53 54 55 55 56 57 56 54 56 56 55 53 54 55 55
54 58 54 53 53 53 56 56 58 59 56 60 58 63 57 58 59 58 59 58 57 57 54 53 54 48 46 43 45 51 52 51 51 51 52 51 51 51 52 52 53 54 55 56 56 56 56 56 56 56 54 55 56 56
56 55 53 52 53 54 57 58 59 58 61 62 60 59 59 59 55 53 53 53 53 52 52 49 40 39 43 45 44 44 47 50 50 51 52 52 52 52 52 54 54 54 54 55 55 58 57 54 55 57 57 57 56 56
52 53 54 53 54 58 58 60 60 58 59 62 59 60 59 54 54 55 53 52 51 50 47 42 40 43 42 44 46 49 50 49 49 53 56 57 56 54 53 53 55 55 55 54 56 49 56 56 57 56 57 55 56 55
55 57 53 57 56 57 60 61 60 60 61 59 59 59 58 56 55 54 57 57 50 47 45 45 44 46 50 51 51 50 50 51 52 54 55 56 56 55 56 56 55 56 56 56 57 55 52 57 56 57 57 56 56 56
59 55 60 57 60 59 58 62 60 61 58 60 60 56 54 53 53 53 55 55 52 49 49 48 49 52 52 52 56 54 55 52 53 54 47 50 56 56 55 55 57 56 57 57 58 58 57 56 56 57 56 55 54 56
56 57 61 61 58 52 52 61 59 60 57 56 58 55 52 53 53 56 53 54 52 55 51 50 52 56 55 56 55 55 55 52 51 55 54 55 54 54 56 56 57 56 56 54 56 57 54 46 50 55 55 56 56 56
54 59 57 57 57 51 60 59 60 57 57 56 53 51 51 51 53 52 51 53 54 56 54 53 52 54 57 55 55 56 56 55 53 54 54 55 54 53 52 54 55 56 55 57 57 56 56 54 50 55 54 53 54 54
47 50 51 39 55 55 56 56 56 56 53 53 52 51 51 52 49 49 49 54 56 57 56 54 53 55 55 56 57 56 53 58 59 58 54 54 53 54 52 55 54 52 54 57 56 56 54 55 55 55 55 54 52 52
38 53 47 57 57 56 57 54 53 53 53 52 52 53 52 50 48 47 51 56 57 55 54 54 54 57 56 56 56 58 58 59 56 56 56 55 56 53 50 49 47 45 53 55 56 55 54 54 55 53 53 51 44 52
43 55 58 59 59 56 54 53 54 53 52 52 53 51 51 47 47 52 55 58 56 56 55 54 57 58 54 54 57 56 56 56 55 54 56 57 55 56 55 50 47 53 54 55 55 56 54 53 54 54 53 54 53 53
57 57 56 58 56 55 54 52 52 52 55 54 53 50 51 51 51 56 58 58 56 54 53 53 56 56 54 53 53 54 55 56 55 55 54 54 54 52 53 54 53 41 54 54 54 56 56 55 54 54 53 53 52 54
56 60 59 56 56 55 55 55 56 57 58 55 54 53 53 55 57 57 59 54 55 52 53 55 53 56 55 54 54 53 55 56 54 50 49 49 49 49 55 55 54 52 56 56 40 47 53 54 54 54 53 54 54 55
59 61 59 58 57 58 61 59 58 57 57 58 57 56 55 55 57 58 59 58 57 56 56 56 56 57 54 54 52 51 52 53 53 51 49 48 49 51 54 56 54 56 56 56 55 53 44 52 49 54 53 54 54 54
60 59 60 59 60 60 60 59 58 58 58 57 56 56 55 55 56 58 58 56 56 56 56 54 54 56 54 53 52 51 48 51 51 51 51 52 53 53 54 54 55 55 55 55 55 54 54 53 53 52 51 50 49 50
59 60 60 58 56 56 60 60 59 58 58 55 55 55 55 54 53 56 57 58 57 56 49 55 54 51 53 53 52 51 45 52 52 52 52 53 52 53 54 54 55 55 54 53 53 53 52 51 52 51 51 49 49 49
61 61 60 58 56 54 59 59 58 54 55 54 55 56 57 58 55 56 55 58 60 59 56 56 55 54 53 53 52 50 49 51 44 37 38 38 37 44 53 54 54 54 53 53 53 53 51 50 50 49 49 49 48 48

GFSWCAN_sfc_temp_054.txt.gz
Temp
55 56 56 56 56 56 56 56 56 56 57 57 58 58 58 58 56 60 58 62 56 52 60 58 54 45 50 44 40 48 47 45 39 35 35 36 34 34 34 38 43 39 35 35 38 34 32 47 42 38 44 56 55 56
55 56 55 55 55 55 56 56 56 56 57 58 58 58 58 58 57 57 58 59 58 48 59 64 63 60 55 55 46 50 50 44 41 36 36 36 34 36 34 34 49 38 46 39 42 43 46 46 43 47 50 51 53 54
55 55 55 55 55 55 56 56 56 57 57 58 58 58 58 57 57 58 64 61 59 58 63 64 59 63 68 64 63 46 54 53 48 45 39 37 33 35 33 33 36 43 41 38 38 47 43 45 48 48 50 51 55 56
55 55 55 55 55 55 55 56 56 56 57 58 57 58 58 57 57 58 66 67 64 60 55 60 67 61 65 66 61 60 55 56 55 53 42 37 35 39 35 36 36 36 39 37 37 41 42 45 47 47 50 54 55 56
54 55 55 54 55 55 55 56 56 56 56 56 57 57 58 57 56 62 68 69 68 59 56 57 58 63 59 64 61 60 59 57 60 51 44 38 39 37 39 40 36 40 36 34 35 40 41 43 47 49 50 51 55 54
54 54 54 54 54 54 55 55 56 56 56 57 57 57 57 57 54 60 53 65 69 66 55 49 52 53 56 57 61 59 60 60 61 56 46 46 47 41 36 34 42 46 47 43 39 43 45 46 47 49 49 52 53 52
54 54 54 54 54 54 54 54 55 55 56 56 57 57 57 56 63 61 60 62 59 66 55 52 52 58 54 56 63 63 61 62 60 52 46 46 48 45 39 34 45 48 48 48 46 45 43 45 43 47 49 52 53 51
54 54 54 54 54 54 54 54 55 55 55 56 57 56 56 55 56 60 65 54 59 58 60 48 56 55 59 51 44 62 60 60 60 57 56 47 48 45 36 49 50 51 51 50 48 46 47 49 49 48 51 51 50 47
54 54 54 54 54 54 54 54 54 55 55 56 56 56 62 61 59 61 57 56 61 54 50 50 49 49 57 54 51 46 55 49 62 50 52 50 37 35 45 51 51 53 51 50 52 50 49 47 46 47 48 49 47 47
54 54 54 54 54 54 54 53 54 55 55 56 61 60 55 61 56 57 54 54 52 54 52 45 56 53 59 55 54 48 49 51 43 52 57 43 40 54 56 56 56 55 55 55 51 47 47 47 47 45 45 46 47 47
54 54 54 54 54 53 54 53 54 55 54 65 65 65 64 56 56 55 52 53 59 53 56 58 59 59 65 52 54 57 47 50 41 49 49 49 44 53 56 57 58 57 57 56 56 55 54 52 49 48 47 46 45 45
54 54 53 53 53 53 54 53 54 61 71 62 64 63 66 55 56 55 60 58 53 54 64 61 63 62 60 62 54 55 50 51 41 56 51 38 55 56 58 58 58 58 58 57 57 56 57 55 55 54 53 51 47 46
53 53 53 53 53 53 54 53 53 55 56 67 63 59 61 61 46 52 41 57 59 67 68 66 61 61 53 56 53 52 49 50 60 48 37 50 56 60 60 61 60 62 60 58 57 58 58 57 57 57 56 56 54 48
53 53 53 52 53 54 54 54 53 56 64 63 60 42 57 57 61 64 63 64 68 68 67 66 64 58 54 50 58 51 56 56 49 41 38 58 56 60 61 63 61 60 61 61 60 59 58 58 58 59 59 59 57 55
53 53 53 54 54 54 54 54 53 62 67 62 63 46 59 68 69 70 71 68 70 70 68 65 62 63 60 55 58 56 48 45 47 47 56 59 58 58 60 61 61 61 63 62 62 61 60 60 60 59 60 61 60 59
53 52 61 53 53 54 53 54 59 67 67 63 62 61 69 66 68 68 68 65 72 70 67 65 60 56 55 57 51 47 45 40 52 55 60 61 57 58 58 59 61 63 63 64 64 62 61 61 60 60 62 62 61 60
52 70 54 53 53 54 54 64 66 62 65 62 65 72 69 68 67 69 69 67 68 60 54 55 44 45 51 42 38 45 39 48 52 56 61 57 55 56 59 60 61 62 62 64 64 63 62 63 62 61 58 60 61 61
65 66 55 53 56 54 64 65 67 66 61 68 66 70 72 71 67 67 66 64 63 58 52 44 47 42 38 35 36 42 44 50 54 56 56 58 58 58 60 60 61 61 61 63 63 63 63 62 62 61 60 61 62 61
62 59 54 53 54 63 66 65 67 63 68 72 72 74 70 69 65 66 67 65 65 64 59 52 40 39 40 45 48 50 52 57 57 59 61 60 59 59 59 61 62 62 62 61 62 63 63 61 62 63 64 64 62 62
52 53 54 53 55 66 63 68 71 66 65 69 72 70 65 66 68 69 67 67 67 65 54 48 41 44 55 55 58 59 62 63 61 56 54 63 65 63 61 61 63 62 63 61 63 47 64 63 65 64 63 61 61 61
54 60 54 61 64 66 69 71 68 71 70 69 71 68 64 68 66 66 65 71 63 60 56 60 58 57 60 61 61 61 61 60 51 55 57 61 63 64 65 66 65 67 64 62 59 58 55 62 63 65 64 62 64 64
69 55 69 64 67 67 67 73 69 71 68 70 70 69 65 65 64 64 66 64 60 61 59 60 62 60 57 58 59 59 59 61 60 58 47 54 60 63 63 64 65 65 63 63 61 61 60 63 65 67 64 63 59 62
57 61 69 68 63 58 58 72 64 68 63 65 69 63 63 64 64 67 61 61 60 65 63 61 60 60 60 61 62 63 62 60 56 61 60 57 62 64 62 62 63 61 62 62 65 66 61 51 57 60 63 64 61 59
54 65 63 65 64 56 69 65 69 67 67 66 63 58 60 62 65 64 57 59 60 65 66 61 60 59 62 62 63 64 60 65 64 63 61 62 61 60 61 62 61 61 61 63 66 61 59 59 54 59 59 61 58 57
51 53 56 41 65 61 61 63 63 65 60 62 59 59 61 64 60 58 55 59 62 62 61 61 61 61 63 63 65 65 63 66 63 59 63 63 63 62 60 59 60 60 61 59 59 59 57 58 58 58 58 56 55 55
42 59 50 64 66 62 66 59 60 60 62 59 61 63 65 61 54 52 58 62 63 61 60 59 59 64 61 63 62 62 63 66 64 61 59 65 60 55 51 52 48 54 61 60 59 58 59 60 58 56 57 54 45 54
47 61 66 70 69 68 65 65 65 64 59 59 64 59 60 54 53 60 66 67 65 65 65 66 65 63 62 62 63 63 64 63 61 62 64 63 61 59 55 55 51 59 64 62 63 63 57 58 58 57 58 55 57 56
65 65 62 66 65 67 61 62 60 60 65 67 65 57 57 57 58 65 66 67 66 66 66 66 65 65 63 62 63 64 63 63 62 62 62 62 62 62 61 60 60 45 59 59 60 61 58 60 57 57 56 55 57 57
63 70 69 63 65 64 63 63 67 72 72 69 65 64 62 65 68 67 66 67 68 67 65 63 63 66 65 63 62 62 63 63 59 55 53 52 52 55 61 58 56 60 62 60 40 49 56 57 57 57 56 57 56 56
67 72 67 66 63 65 71 73 72 70 72 72 69 65 64 65 67 69 68 67 65 66 66 66 66 64 62 61 58 57 60 61 60 58 55 54 56 59 62 58 58 61 63 61 59 58 44 54 50 58 56 55 56 55
74 70 67 68 68 72 73 72 71 70 70 69 70 68 65 63 65 69 69 69 67 66 65 64 63 63 61 60 59 57 54 59 58 58 60 61 61 61 61 60 62 62 63 62 60 59 59 57 56 55 53 53 53 51
70 67 68 64 68 70 70 69 69 68 68 65 64 65 63 61 59 62 66 67 66 65 55 62 61 59 61 60 59 58 49 59 59 60 59 60 60 60 61 63 63 63 62 60 61 59 57 56 55 54 53 51 52 52
70 71 70 70 67 62 68 67 66 64 66 65 64 63 64 64 60 63 65 69 70 67 65 64 63 62 60 59 58 56 54 56 46 38 39 38 38 45 61 61 61 61 60 61 60 58 56 54 54 53 52 52 51 52

GFSWCAN_sfc_temp_057.txt.gz
Temp
55 56 56 56 56 56 56 56 57 57 58 59 58 58 58 58 58 61 68 69 63 63 65 65 62 57 54 56 47 56 51 50 41 36 37 37 36 36 35 45 43 41 38 36 41 37 35 55 57 46 46 45 47 57
55 56 56 56 55 56 56 56 57 57 58 59 59 59 59 58 58 59 68 72 70 61 66 71 70 68 64 60 58 55 49 50 46 38 38 37 35 37 34 35 52 42 45 43 48 46 53 52 50 55 51 45 46 54
55 55 55 55 55 55 56 56 57 58 58 58 59 59 58 58 58 58 71 72 68 64 62 61 65 70 75 72 70 47 56 55 49 54 42 38 33 36 34 34 38 45 46 40 43 49 45 46 50 50 48 46 50 55
55 55 55 55 55 55 56 56 57 57 57 58 58 59 58 58 58 58 70 74 69 65 56 57 73 67 72 74 69 67 62 64 57 57 43 39 37 41 36 37 37 39 40 37 37 41 42 46 46 47 48 50 53 55
55 55 55 55 55 55 56 56 56 57 57 57 58 58 58 58 57 62 69 74 76 63 57 58 68 69 70 70 68 68 66 61 54 49 47 40 42 39 41 39 37 43 37 35 35 40 40 42 46 47 46 50 51 51
55 55 55 55 55 55 55 55 56 56 57 57 59 58 58 58 55 62 59 72 74 68 56 54 71 65 68 68 66 66 65 64 62 64 59 56 53 43 37 34 42 51 48 44 40 43 44 46 47 47 47 50 50 50
55 55 55 55 55 55 55 55 56 56 56 58 58 58 58 57 65 58 60 64 60 67 55 56 56 68 66 67 66 65 67 64 64 61 52 55 53 52 42 34 47 50 52 48 46 44 42 45 43 46 48 49 50 49
55 55 55 55 55 55 55 55 55 55 56 57 58 58 57 57 57 61 69 57 61 61 62 56 59 60 68 62 60 66 60 56 59 58 63 55 56 51 36 49 51 52 55 55 54 49 47 49 48 47 48 48 48 46
55 55 55 55 55 54 55 55 55 55 55 56 57 57 64 63 62 62 58 58 68 61 53 63 56 51 68 62 64 62 60 48 61 54 54 53 41 35 46 53 53 55 54 55 58 55 54 50 47 46 46 46 45 45
55 55 55 55 55 54 54 54 55 55 55 56 60 62 60 62 57 59 62 56 55 57 60 57 69 58 66 60 55 60 62 55 47 53 60 48 43 55 58 58 58 57 58 58 54 51 52 53 51 49 47 46 46 46
54 54 54 54 54 54 54 54 54 55 54 66 69 66 68 58 63 58 57 58 66 59 66 67 67 63 73 59 56 64 57 60 45 50 54 47 46 54 60 60 61 59 59 58 58 58 57 57 56 54 52 49 46 47
54 54 54 54 54 54 54 54 54 61 75 65 66 69 74 60 59 59 62 65 60 56 69 67 69 70 69 68 58 58 53 54 47 63 55 40 48 58 60 61 62 61 60 58 60 58 58 57 57 56 57 54 49 48
54 54 54 53 54 54 54 54 53 55 57 73 68 62 63 65 48 55 48 59 57 67 72 72 67 71 64 62 55 57 51 45 57 49 40 52 55 59 60 63 63 65 63 60 59 59 60 59 59 58 57 58 57 55
54 54 53 54 55 55 56 55 54 56 62 68 66 43 61 60 61 65 66 64 70 72 68 67 60 65 61 54 57 49 52 57 48 39 41 53 58 61 61 63 63 63 64 63 61 59 58 61 60 62 60 59 58 55
54 53 54 54 55 55 55 54 53 64 70 66 69 48 63 70 74 71 71 67 70 72 66 63 52 58 53 48 54 52 49 43 45 42 49 56 60 61 56 56 61 60 63 64 65 63 59 60 62 61 63 63 62 60
54 52 61 55 55 55 54 55 59 71 72 69 67 66 70 68 69 70 71 66 71 72 70 61 55 46 42 44 46 41 43 40 41 50 59 61 59 60 61 62 63 64 62 65 65 64 63 61 61 63 64 64 64 63
51 74 54 55 54 54 55 65 72 67 69 67 69 75 72 67 65 62 68 71 74 67 58 56 45 43 56 45 39 50 41 50 55 57 60 59 58 59 61 63 63 64 62 63 60 64 64 65 64 63 61 63 64 63
70 67 54 54 58 56 69 68 72 71 65 70 67 71 72 72 70 69 72 71 69 68 64 52 54 47 44 43 48 54 57 60 62 63 65 62 61 62 63 63 63 64 63 62 64 64 61 63 63 64 64 64 66 65
65 63 55 53 58 66 71 71 73 67 69 72 75 74 73 73 72 75 73 73 72 70 60 56 46 49 49 56 55 58 61 57 57 59 62 63 63 63 62 64 64 65 65 62 61 63 62 64 65 66 67 66 63 65
52 53 54 54 55 70 68 73 77 70 67 75 77 74 71 71 75 70 70 70 69 70 63 57 58 59 56 61 62 60 59 62 61 61 57 62 63 65 65 64 66 65 66 63 65 52 66 62 63 65 66 64 64 63
53 61 55 63 66 71 73 75 73 76 75 73 77 75 72 74 71 71 70 71 67 65 61 65 66 68 65 64 64 62 60 61 58 64 59 54 65 65 66 68 67 68 64 63 61 61 58 62 62 63 65 64 64 64
72 56 73 67 70 73 71 78 74 75 73 74 75 75 71 68 68 69 72 66 65 66 67 65 62 61 59 59 62 63 62 61 61 57 51 55 63 62 62 66 65 64 62 62 60 64 64 62 62 66 64 64 60 64
56 64 72 73 67 62 60 79 69 73 67 69 74 68 68 69 69 74 63 66 66 69 70 65 63 64 64 66 67 62 66 62 59 60 61 67 65 67 66 65 66 63 63 63 66 63 63 49 59 64 63 62 62 60
55 69 67 69 68 58 75 69 74 72 73 70 68 63 65 66 71 66 61 67 69 70 69 64 67 66 67 64 67 66 67 65 53 58 65 58 60 62 66 63 63 62 62 63 63 52 62 62 56 60 63 59 63 58
55 55 59 43 70 66 66 67 66 67 63 67 64 65 66 71 64 61 61 65 68 67 66 66 68 66 65 66 68 68 68 69 66 61 65 65 60 53 59 60 63 63 64 61 59 59 63 63 59 61 57 61 58 57
44 64 51 68 69 66 68 63 64 65 67 65 67 70 72 67 59 56 63 66 68 68 68 68 67 66 66 66 64 64 65 68 67 63 63 63 62 62 58 55 55 61 66 63 62 59 48 56 61 60 57 56 47 57
51 65 71 77 75 75 71 73 74 71 64 64 71 66 66 58 57 64 70 71 69 70 71 71 69 67 65 65 67 67 68 68 65 66 65 64 63 64 59 56 54 59 66 64 63 63 61 59 55 59 58 61 60 58
69 71 66 71 71 75 66 68 66 65 70 74 71 62 61 61 62 70 72 72 72 72 72 71 70 69 67 67 68 69 68 68 67 68 67 64 64 65 64 63 63 48 61 61 62 64 58 59 62 59 58 58 57 58
68 75 74 68 70 71 70 69 69 76 78 76 67 67 68 71 73 72 72 73 75 75 72 71 70 74 71 68 68 68 68 68 64 58 55 56 58 58 63 62 66 64 65 63 43 51 57 59 61 59 59 59 62 60
71 78 72 71 69 67 71 81 77 79 82 79 77 73 72 72 73 76 74 73 72 72 72 72 71 71 68 66 63 63 66 67 66 65 61 59 60 63 63 62 63 63 63 63 62 61 46 56 53 61 60 61 60 59
81 77 72 72 69 73 80 82 82 80 79 78 79 74 72 69 70 73 75 75 74 73 72 71 69 69 68 67 65 62 60 64 63 64 65 66 66 65 63 64 66 68 66 63 62 61 63 60 60 58 57 55 55 54
76 72 72 69 69 77 79 77 77 75 75 72 72 74 70 66 63 67 73 73 71 71 58 69 68 65 66 66 65 64 52 65 64 65 63 65 65 65 68 68 69 67 65 64 64 61 61 58 59 57 55 54 54 55
75 73 75 75 75 70 76 74 73 72 74 72 73 71 70 68 64 69 73 74 74 74 71 70 69 68 65 65 63 61 57 60 48 39 41 39 38 46 61 67 66 67 64 65 64 62 60 57 58 56 56 55 55 55

GFSWCAN_sfc_temp_060.txt.gz
Temp
56 56 56 56 56 56 56 56 57 58 58 59 59 59 59 60 59 62 71 71 67 62 66 69 66 61 59 57 49 57 54 53 50 40 39 39 37 37 35 45 44 42 38 37 41 37 34 58 57 49 51 57 58 55
56 56 56 56 56 56 56 56 57 58 59 59 60 60 59 59 59 59 66 75 72 66 65 72 72 71 67 65 61 61 53 53 53 41 39 39 35 37 35 32 47 38 39 39 43 46 51 53 52 56 56 55 56 55
55 56 56 56 56 56 56 56 57 58 58 59 60 60 59 59 59 58 68 72 71 65 63 62 62 71 78 75 75 58 57 59 52 58 49 40 34 37 33 35 36 45 47 43 41 50 44 51 54 54 53 52 54 55
55 56 56 56 56 56 56 56 57 58 58 59 60 60 59 59 58 58 67 72 69 63 56 64 76 69 76 76 72 71 66 62 60 55 52 43 37 42 37 38 38 44 44 39 38 42 43 48 47 47 49 51 52 51
55 55 56 56 56 56 56 56 57 57 58 58 58 59 59 59 58 61 70 73 70 62 56 62 72 74 76 73 71 71 65 61 55 50 48 44 46 42 42 38 37 46 39 35 35 40 39 40 46 47 45 46 47 50
55 55 55 56 56 56 56 56 56 57 57 58 59 59 59 58 57 65 61 71 71 68 56 55 70 70 72 71 69 67 61 62 60 57 55 58 57 49 40 36 46 49 50 45 39 42 43 45 46 47 45 47 49 49
55 55 55 56 56 56 55 56 56 56 57 58 59 59 58 58 63 62 59 64 60 66 55 56 60 69 72 69 64 63 63 62 61 56 54 55 53 53 45 35 47 52 54 49 49 46 42 45 42 46 47 47 49 49
55 55 55 56 56 56 55 55 55 56 56 57 58 59 58 58 57 62 69 58 61 61 61 57 59 60 71 62 57 69 61 59 62 57 59 57 57 50 36 47 48 53 57 55 53 51 49 48 47 46 47 47 46 46
55 55 55 55 55 55 55 55 55 55 56 56 57 58 63 59 61 64 60 59 66 62 54 62 57 52 71 64 64 62 65 50 63 54 55 55 42 33 45 54 51 51 54 56 57 57 54 50 48 46 45 45 44 44
55 55 55 55 55 55 55 55 55 55 56 56 60 63 58 65 57 61 60 57 56 58 60 57 69 59 65 60 57 58 57 53 48 55 64 47 42 55 58 59 59 59 58 58 55 52 53 53 51 47 45 45 45 45
55 55 55 55 55 55 55 55 55 55 55 63 65 61 70 59 67 59 58 58 61 58 64 66 68 63 73 55 55 63 55 54 44 53 53 48 47 54 62 60 61 60 58 57 57 57 56 56 55 53 49 47 46 45
55 55 54 54 54 55 55 55 54 59 73 63 63 70 74 65 61 57 58 64 62 58 66 60 58 64 62 63 58 59 52 52 43 57 52 41 52 59 61 63 62 62 62 59 60 57 58 59 58 56 55 52 51 50
54 54 54 54 54 55 55 54 53 55 59 72 66 63 64 64 46 54 50 52 49 51 62 66 59 57 55 59 54 55 45 41 50 49 40 49 52 55 62 63 64 65 63 63 61 61 60 59 61 60 57 58 57 56
54 54 54 54 55 56 56 55 54 56 61 66 61 42 61 59 61 57 60 62 54 53 65 69 61 61 64 53 46 43 48 47 43 39 39 44 50 49 61 63 64 63 64 61 61 62 61 61 60 62 63 60 59 57
54 54 54 55 56 56 56 55 54 63 67 67 67 47 63 70 69 69 64 60 66 68 71 67 67 63 50 45 48 47 46 44 43 37 45 47 52 58 58 60 60 61 64 64 64 62 61 63 62 62 63 64 62 59
54 53 62 56 57 57 55 55 60 70 71 69 69 66 71 65 64 71 59 53 74 71 71 69 59 54 51 52 47 46 45 39 43 52 56 55 54 58 60 62 63 64 64 60 64 64 63 63 63 63 64 64 64 62
52 71 55 56 55 55 55 63 71 68 69 69 66 72 59 62 53 62 68 69 74 69 62 58 50 48 56 48 46 49 45 48 52 55 61 60 59 60 61 62 63 64 64 61 61 61 62 65 65 63 61 62 63 63
69 62 55 56 58 59 69 66 71 71 65 69 62 69 75 72 68 70 72 73 71 67 64 56 59 51 47 43 46 50 53 58 61 62 63 62 62 62 63 62 63 64 64 62 53 59 60 63 60 62 64 64 65 62
65 62 55 54 57 61 71 71 73 65 67 62 71 76 74 71 73 74 73 73 73 71 66 62 54 51 51 55 54 57 59 59 58 61 62 62 54 61 63 64 64 64 63 62 64 54 54 62 64 66 66 66 63 63
53 53 53 54 55 67 69 71 78 70 68 72 65 74 75 72 67 73 71 69 69 67 62 57 54 58 57 59 62 60 56 62 60 55 51 60 62 63 63 63 64 65 66 65 60 47 63 62 66 64 65 64 63 62
59 62 55 61 63 70 72 74 66 70 73 74 69 55 73 70 71 69 70 74 67 64 60 64 63 64 66 65 63 64 60 59 56 56 55 56 59 64 63 67 64 62 49 54 48 57 53 59 63 64 61 61 65 64
71 56 73 65 70 73 72 77 73 69 72 60 57 65 60 68 68 68 63 65 64 65 66 64 65 65 65 61 54 61 59 61 62 58 51 56 62 62 63 65 66 64 62 56 49 49 55 63 62 56 53 63 62 63
56 66 72 74 69 62 59 78 71 72 67 68 62 68 66 69 68 67 65 68 68 71 69 67 66 66 62 65 66 65 65 65 61 59 59 55 62 61 52 57 64 62 61 60 59 56 54 47 58 64 62 62 59 59
56 69 69 69 68 55 71 68 73 72 60 53 66 63 67 68 64 65 63 66 68 72 70 66 68 67 69 68 66 65 66 69 65 60 59 59 59 59 58 54 62 64 64 63 57 56 51 46 56 61 60 61 60 60
54 55 58 42 67 66 64 67 63 66 63 61 65 65 68 71 64 63 62 66 69 69 69 70 69 69 66 66 67 67 67 68 66 62 63 63 61 60 58 59 60 64 65 63 59 52 47 48 56 59 59 60 59 58
44 64 51 68 70 66 57 60 53 58 69 67 65 63 71 66 60 58 65 67 68 68 68 68 67 67 66 66 65 64 65 69 66 62 62 65 63 60 57 56 56 59 65 64 60 55 53 54 47 59 59 56 49 57
49 65 71 77 75 75 69 60 74 73 66 65 67 64 66 58 58 63 71 72 70 71 71 71 70 68 66 66 68 67 68 68 65 64 65 66 65 64 62 56 56 59 64 64 59 51 53 54 57 58 58 59 60 58
68 72 66 72 72 75 68 68 69 66 66 60 67 54 53 63 63 70 72 73 74 73 73 73 72 71 69 68 69 70 70 69 68 68 67 66 66 65 64 64 63 48 61 61 62 61 59 58 57 60 59 59 59 61
68 74 75 68 70 70 70 69 68 64 73 77 61 59 69 72 74 73 73 74 77 77 73 72 71 74 72 70 69 70 70 70 65 60 58 58 59 61 65 66 65 65 65 62 43 53 57 59 60 61 60 60 60 60
71 78 73 72 67 54 55 55 62 77 82 81 79 75 74 74 76 78 75 74 73 73 73 73 73 73 71 68 65 65 68 69 68 66 62 60 61 65 65 65 64 65 65 64 63 61 48 56 53 62 59 59 58 56
79 78 74 73 69 64 58 59 77 83 81 80 80 76 73 72 74 77 76 76 76 75 73 72 71 72 71 70 67 64 62 65 65 66 67 67 67 65 65 65 67 66 65 65 64 63 61 60 60 58 58 56 56 55
78 73 72 67 56 58 67 77 76 76 67 73 73 76 73 69 65 68 74 75 73 72 58 69 71 67 69 69 68 67 56 66 66 64 64 66 66 66 67 68 68 67 66 65 64 63 61 60 58 58 57 56 56 56
76 75 75 71 54 60 66 73 75 73 75 72 71 72 74 71 65 68 75 76 75 76 73 73 72 70 68 68 66 64 60 59 49 40 41 40 39 47 63 67 66 67 64 65 65 63 61 59 59 58 57 57 57 57

GFSWCAN_sfc_temp_063.txt.gz
Temp
56 56 56 57 57 56 56 56 57 57 58 59 60 60 60 60 59 59 64 67 60 57 60 66 66 57 55 53 47 53 50 49 46 37 37 36 33 35 33 39 38 35 32 34 35 31 29 48 51 41 44 48 50 51
56 56 56 56 56 56 56 56 57 57 59 59 60 60 60 59 59 58 61 69 66 59 61 68 70 69 66 63 55 55 50 50 47 39 38 36 34 36 34 30 42 35 36 33 36 35 42 47 46 49 48 46 47 46
55 56 56 56 56 56 56 56 57 57 58 59 60 60 60 59 59 58 59 63 63 60 62 63 62 69 73 71 69 52 53 55 50 52 45 39 32 37 31 33 36 42 46 39 37 44 41 43 48 48 48 47 49 49
55 56 56 56 56 56 56 56 57 57 58 58 59 59 59 59 59 58 59 65 64 59 53 59 73 67 73 72 69 66 60 59 56 51 46 43 37 41 36 37 36 40 41 37 37 42 41 45 44 46 46 48 48 50
55 55 56 56 56 56 56 56 56 57 57 58 58 58 59 59 58 59 62 65 66 58 51 55 65 70 71 69 67 67 60 56 49 46 44 40 43 41 41 39 35 42 40 33 33 41 39 39 44 47 45 45 46 46
55 55 56 56 56 56 56 56 56 56 57 57 58 59 59 58 58 59 58 66 68 65 54 50 66 66 69 67 65 62 59 56 54 48 48 50 51 44 37 34 43 47 47 44 40 44 43 44 46 47 44 46 47 47
55 55 56 56 56 56 56 56 56 56 56 57 57 59 58 58 58 58 56 59 57 63 53 51 55 65 68 65 63 61 61 57 55 51 48 48 46 46 39 34 42 49 50 46 47 46 43 45 42 46 45 46 47 48
55 55 56 56 56 56 56 56 55 56 56 56 57 58 58 57 56 56 64 59 60 57 56 49 54 56 68 57 51 59 53 53 55 51 52 48 48 44 34 42 45 48 51 50 47 49 47 47 47 46 46 46 45 44
55 55 55 56 56 56 56 55 55 55 55 56 56 57 59 55 58 62 61 60 61 57 49 54 50 49 65 59 54 53 55 46 53 48 47 47 38 32 39 46 45 48 48 51 52 52 49 49 46 46 46 44 43 43
55 55 55 55 56 56 56 55 55 55 55 56 56 57 55 63 59 60 57 53 51 53 53 48 58 52 55 52 50 49 52 50 42 49 52 39 37 46 49 53 51 51 52 53 49 47 48 48 47 46 44 45 44 44
55 55 55 55 55 55 55 55 55 55 54 58 58 59 62 59 62 56 52 51 51 49 51 51 51 49 59 48 45 50 46 48 41 46 46 42 41 49 54 54 54 54 54 53 52 52 52 53 50 46 46 46 46 47
55 55 55 55 55 54 55 55 54 54 64 57 57 62 67 59 56 52 52 52 48 47 50 48 51 57 57 56 48 48 43 44 38 46 42 36 45 53 55 56 55 55 55 55 56 53 54 55 55 53 49 48 48 48
55 55 54 54 54 55 55 54 53 54 56 65 60 60 60 58 45 50 44 48 45 50 51 51 50 57 57 55 48 44 41 41 46 41 35 40 44 50 52 55 58 58 58 56 55 57 57 55 56 55 51 53 52 51
54 54 54 55 56 57 56 55 54 55 55 59 59 40 54 53 55 50 48 50 52 50 51 51 51 51 52 48 46 42 47 47 40 37 36 42 45 47 49 53 58 56 56 57 57 57 56 53 53 56 53 53 53 52
54 54 54 55 55 57 57 56 54 58 60 60 63 44 59 55 52 53 53 53 56 55 53 55 60 57 52 47 48 47 45 38 38 36 42 45 47 48 49 52 56 56 57 55 53 52 56 56 55 54 55 55 53 53
54 54 58 56 57 58 55 55 55 62 65 64 64 62 65 59 55 55 58 63 68 67 65 62 56 51 49 48 46 44 42 38 42 46 51 49 50 51 53 55 57 57 57 53 51 49 52 53 54 55 56 55 56 56
52 64 56 57 56 55 55 59 63 62 64 64 63 68 60 59 55 58 66 66 68 63 56 57 49 47 52 47 43 46 42 46 50 52 55 54 52 53 55 56 57 57 57 54 54 54 55 57 58 56 54 53 55 56
60 58 56 56 57 59 64 59 65 67 62 64 57 62 65 62 65 64 64 67 64 61 59 53 57 51 46 43 43 48 51 55 55 55 55 54 54 53 55 55 57 57 57 54 54 55 54 53 55 53 55 55 53 54
60 59 55 55 55 56 64 65 67 62 66 64 64 60 59 59 60 60 65 66 65 65 62 57 51 47 49 51 50 51 54 51 49 51 50 51 50 50 51 51 56 57 55 54 51 51 50 54 54 56 56 55 53 53
53 53 54 54 53 60 64 68 72 67 65 67 62 53 52 61 61 64 67 67 65 62 58 55 52 55 52 52 53 53 53 53 52 50 50 52 50 50 51 52 53 53 50 48 46 47 48 52 57 56 55 53 55 52
61 58 54 57 58 62 65 66 64 66 64 57 57 59 59 64 65 64 62 67 63 59 57 60 60 61 61 60 59 57 56 55 52 52 50 50 53 57 53 51 47 53 50 48 47 47 48 49 52 50 52 54 57 54
66 56 65 59 64 68 66 71 68 66 64 57 53 57 57 59 63 63 65 62 61 62 62 61 60 60 60 59 58 59 58 58 57 55 49 50 51 50 51 49 46 44 51 50 48 45 45 46 47 53 54 55 53 54
59 61 68 69 63 56 54 73 65 68 53 53 60 58 63 63 64 68 61 63 64 65 63 63 62 63 61 62 61 60 60 59 57 57 55 52 53 55 55 54 55 54 53 50 50 47 47 46 50 53 55 54 52 51
57 66 64 62 64 52 69 66 62 55 60 54 56 59 60 63 65 61 60 62 64 65 62 62 63 62 60 59 60 57 58 60 58 57 56 53 50 53 54 55 54 54 56 54 53 51 50 48 46 54 55 54 55 53
51 50 54 39 64 64 63 59 52 60 58 60 58 54 60 65 59 61 59 62 64 63 63 64 63 62 60 60 61 60 60 62 58 56 57 58 56 56 55 56 56 58 56 52 49 48 47 48 48 49 54 54 53 53
42 58 48 64 65 64 63 56 55 56 61 61 59 58 61 59 58 58 61 62 63 63 63 63 62 62 60 60 59 59 60 63 60 57 58 60 58 56 53 53 53 54 57 54 51 52 51 52 53 55 53 52 48 54
46 60 67 71 70 67 52 55 58 55 58 59 56 54 54 53 57 62 66 67 64 65 65 65 64 63 62 61 62 62 64 62 59 58 59 60 61 60 57 54 51 53 57 58 55 55 54 55 54 55 54 55 54 53
64 67 63 67 69 72 58 62 60 56 62 66 62 55 55 60 60 66 66 67 67 68 68 68 67 67 65 64 65 65 64 64 63 63 62 62 61 61 58 59 57 50 55 55 58 58 56 55 55 56 55 53 53 55
64 70 70 65 68 64 57 63 57 56 56 62 58 61 62 69 70 69 69 71 72 70 67 66 66 68 67 65 65 65 66 66 62 57 56 54 55 57 60 60 58 58 58 55 45 51 54 54 55 56 57 54 54 54
66 73 68 69 66 55 55 59 62 64 70 63 72 68 69 70 73 75 73 71 69 68 68 68 69 68 66 64 62 62 65 66 65 62 57 55 57 61 60 60 60 60 60 58 57 56 48 52 51 56 55 54 53 52
75 74 70 68 56 56 58 64 69 68 63 58 58 66 67 67 70 74 73 71 71 71 69 68 67 68 67 66 62 60 58 62 63 62 63 64 63 61 60 60 61 61 60 60 59 58 58 56 55 55 54 53 54 52
73 70 69 65 62 63 66 65 66 61 55 57 53 60 68 60 61 64 71 71 69 68 58 66 66 63 66 65 64 63 56 60 58 57 57 61 61 61 62 62 63 62 61 61 60 59 59 57 55 55 54 54 54 54
73 74 73 65 62 62 62 62 60 65 62 52 54 62 66 66 62 68 72 73 72 73 69 67 66 64 63 64 59 56 54 53 46 41 42 42 42 48 57 59 60 62 62 61 60 60 59 58 56 56 55 55 54 54

GFSWCAN_sfc_temp_066.txt.gz
Temp
57 56 56 56 57 56 56 56 56 57 57 58 59 59 59 59 58 52 52 56 52 45 48 55 59 49 47 43 38 44 42 41 36 29 27 25 28 32 32 33 32 33 33 31 33 28 27 45 46 38 42 43 44 44
57 56 56 56 56 56 56 56 56 56 57 58 58 59 59 58 58 56 49 57 57 49 51 59 61 64 59 56 47 44 42 41 39 31 32 26 32 35 29 21 36 31 34 30 33 36 43 45 43 47 44 41 42 42
56 56 56 56 56 56 56 56 56 56 57 57 58 59 58 58 58 56 48 51 52 47 49 50 53 61 60 60 57 45 44 46 43 43 36 34 27 34 30 30 33 37 39 32 33 40 40 42 44 44 44 44 48 48
56 55 56 56 56 56 56 56 56 56 57 57 58 58 58 58 58 57 48 51 50 48 42 47 62 57 64 60 60 56 52 49 47 47 38 39 33 36 31 32 35 35 36 34 33 37 39 42 44 43 44 46 48 48
56 55 56 56 56 56 56 56 56 56 56 57 57 58 58 58 57 53 50 52 55 50 42 44 52 59 60 59 60 56 51 47 43 40 42 39 35 36 39 38 35 38 35 30 29 37 37 40 43 44 43 43 46 46
55 55 55 56 56 56 56 55 55 56 55 56 57 57 58 57 57 50 52 56 57 53 46 40 50 55 57 58 58 54 56 52 49 42 44 45 42 37 31 34 38 40 42 40 38 41 41 42 44 46 44 45 46 46
55 55 55 56 56 56 56 55 55 55 56 55 56 57 57 56 49 48 48 52 54 56 49 42 42 54 60 60 55 53 54 53 48 47 44 41 40 44 32 31 39 42 44 43 43 42 40 42 41 47 46 46 47 47
55 55 55 56 56 56 56 55 55 55 55 55 55 56 56 56 53 48 52 55 55 53 52 43 42 48 56 48 47 50 48 50 50 47 44 44 41 39 34 38 40 43 46 44 44 44 43 43 44 44 46 44 44 44
55 55 55 55 56 56 55 55 55 55 55 55 55 55 51 48 47 53 60 60 59 54 46 48 41 41 54 48 50 48 49 43 49 44 43 44 36 33 38 39 41 44 44 44 47 46 45 43 44 44 44 44 43 44
55 55 55 55 55 55 55 55 55 55 55 55 50 48 49 51 60 60 54 49 48 48 48 42 49 44 48 46 45 45 47 44 40 44 46 39 37 43 46 46 47 46 47 47 42 42 43 44 43 43 42 43 43 44
55 55 55 55 55 55 55 55 55 55 54 48 48 49 57 59 52 53 47 45 46 45 46 46 48 44 49 44 44 46 44 40 34 42 43 39 39 45 51 48 47 48 48 48 49 48 48 47 46 44 44 44 44 45
55 55 55 55 54 54 55 54 54 50 49 51 49 52 53 52 49 46 45 49 46 42 48 43 45 49 50 50 43 43 42 39 36 46 38 32 42 46 48 51 52 51 51 53 53 50 50 51 50 48 46 47 44 46
55 55 54 54 54 55 55 54 53 53 51 51 50 53 53 50 43 46 40 44 42 46 47 45 44 50 48 46 41 42 40 40 44 36 34 38 44 46 47 49 52 53 55 54 52 53 52 51 51 50 48 48 47 47
54 54 54 54 55 55 55 54 54 52 47 48 51 39 46 46 49 48 44 44 47 48 49 45 44 45 44 41 41 41 41 41 38 34 35 38 44 46 47 49 50 51 53 52 52 52 51 50 49 51 49 49 49 49
54 54 54 53 54 56 56 55 54 49 49 49 52 40 50 51 51 50 50 48 50 49 47 44 45 45 42 40 40 40 39 38 37 34 36 40 42 43 44 46 46 47 49 48 49 49 48 50 49 49 49 49 48 49
54 54 54 54 55 56 55 53 50 51 52 51 51 50 55 51 51 49 48 48 53 52 49 48 44 43 41 40 40 37 37 31 36 39 42 43 43 43 44 46 49 49 48 46 48 49 48 51 47 50 49 48 48 49
53 55 55 56 56 55 55 51 51 51 53 55 55 56 53 51 51 52 53 52 53 50 44 45 41 39 42 39 36 39 36 38 41 44 49 44 44 44 45 46 48 49 48 46 45 45 46 50 47 49 47 47 47 47
54 54 56 56 54 54 53 50 54 57 53 54 51 53 52 52 51 52 54 53 52 49 47 44 46 42 37 36 36 40 41 43 45 44 44 46 46 48 49 47 48 49 49 48 47 46 45 45 46 46 47 46 46 44
54 53 55 55 52 50 53 55 54 51 54 55 54 53 52 53 53 53 54 54 53 52 51 46 43 39 39 41 42 43 43 42 42 43 44 45 45 46 48 49 48 48 45 43 45 45 46 46 46 46 47 45 43 43
53 53 53 53 53 50 53 55 58 54 52 52 52 49 49 49 53 52 54 53 51 49 47 44 43 43 43 44 45 45 45 45 44 42 42 43 45 48 46 44 44 42 42 42 43 44 44 46 47 48 47 47 48 45
55 52 53 51 49 50 52 54 58 57 53 50 52 51 51 57 54 51 51 52 50 47 45 47 47 48 49 49 49 47 47 46 44 44 43 41 44 47 46 44 43 43 43 44 41 41 43 45 47 47 48 47 46 45
54 55 53 52 53 57 52 56 54 58 54 51 51 50 49 50 50 51 52 51 49 49 49 49 48 49 48 49 49 49 49 49 47 45 44 45 42 41 41 41 42 42 44 42 43 43 45 45 44 46 48 47 47 45
55 56 56 58 53 49 48 58 56 54 51 49 50 50 50 52 52 53 49 50 50 51 52 52 52 52 50 51 51 50 48 48 45 43 44 43 43 44 44 47 49 43 42 43 44 44 44 45 46 47 47 45 47 44
57 56 55 55 53 45 58 54 54 52 51 49 51 52 52 52 52 49 49 48 50 51 51 51 50 49 50 49 46 45 47 48 45 43 43 44 42 43 44 45 45 44 43 42 42 41 42 45 44 46 48 48 46 44
47 47 46 38 52 55 55 53 50 49 49 51 50 48 51 53 49 49 48 48 49 49 50 49 49 48 46 44 45 47 49 48 45 43 44 45 44 43 45 44 43 42 43 41 40 42 42 44 44 46 46 45 45 44
39 50 46 55 55 55 55 50 50 50 51 56 51 52 52 49 49 49 49 49 50 50 50 50 48 46 45 46 46 46 47 47 47 45 43 46 46 44 42 41 40 41 43 43 44 45 46 45 46 48 47 46 44 47
41 49 54 56 58 54 51 52 52 49 52 53 49 49 49 48 50 50 51 51 51 52 52 52 51 49 47 46 47 48 49 49 49 48 47 47 47 47 45 43 41 43 46 49 48 48 47 47 48 48 47 46 46 47
54 55 52 55 56 56 53 54 54 50 53 57 52 50 50 53 51 52 53 54 55 56 55 54 53 53 50 49 50 49 48 49 49 48 47 47 47 47 46 46 46 46 45 47 48 48 48 48 48 48 47 46 45 47
51 55 56 54 57 54 53 57 52 52 55 55 52 50 54 55 55 55 56 57 57 57 53 52 51 52 51 51 51 49 50 49 48 45 43 41 41 43 46 46 46 46 44 47 46 46 49 48 48 47 48 46 46 47
53 57 55 58 57 54 54 55 57 56 57 55 57 55 55 55 58 60 58 56 55 54 54 54 55 53 52 49 48 49 49 49 48 52 45 43 45 47 47 47 47 47 46 47 47 47 46 48 46 47 46 45 44 44
59 57 57 59 57 55 55 56 58 56 56 56 55 54 55 56 59 59 59 58 57 56 55 54 54 56 55 50 48 47 46 46 48 50 50 48 48 48 49 49 49 48 48 48 47 46 46 47 45 46 47 45 46 44
58 58 57 55 54 56 58 58 57 53 52 51 53 53 56 54 52 55 58 59 56 54 53 54 53 51 51 50 49 49 47 46 45 47 48 48 47 48 48 48 50 50 51 50 50 49 49 48 46 46 46 46 46 46
59 60 58 56 53 54 53 54 55 53 53 51 51 51 52 53 52 55 59 59 59 57 55 55 55 55 51 51 48 45 44 42 42 42 42 43 43 45 46 47 49 51 51 50 49 50 50 49 48 48 47 46 46 45

GFSWCAN_sfc_temp_069.txt.gz
Temp
56 56 56 55 56 57 56 56 56 56 57 58 58 59 59 59 58 52 51 52 50 44 46 54 56 48 45 41 37 42 40 39 34 28 25 22 22 24 27 30 30 29 29 24 32 27 25 44 43 37 39 39 41 42
56 56 56 56 56 56 56 56 56 56 56 57 58 58 58 58 58 55 49 53 52 48 50 54 59 61 58 53 44 40 40 38 37 29 27 25 33 35 27 21 35 27 32 28 33 32 40 42 40 43 42 39 39 40
56 56 56 55 56 56 56 56 56 56 56 57 58 58 58 57 58 54 46 47 49 45 47 48 51 57 56 56 55 44 41 43 40 40 33 30 24 29 27 27 28 34 36 30 32 36 37 41 43 42 41 41 43 43
56 56 55 55 56 56 56 56 56 56 56 56 57 57 57 57 57 56 47 47 48 45 40 45 57 51 59 56 57 54 49 44 43 41 35 32 27 34 25 29 30 33 35 32 30 35 37 40 42 42 42 44 45 48
56 56 55 56 56 56 56 56 55 55 55 56 56 57 57 57 56 52 48 49 51 48 41 42 48 53 56 55 57 53 49 44 41 38 37 35 35 34 36 38 35 37 34 29 28 36 36 37 41 43 42 43 44 45
55 55 55 55 56 56 56 55 55 55 55 55 56 56 57 57 56 50 51 52 52 50 48 39 47 49 50 55 53 52 51 45 44 41 39 41 45 40 29 27 37 38 39 38 38 39 39 41 43 44 43 46 46 46
55 55 55 55 56 56 55 55 55 55 55 55 55 56 56 56 48 47 47 51 52 55 47 41 40 50 55 52 50 51 53 49 48 44 42 41 41 43 34 27 38 40 42 41 41 41 39 41 40 44 45 48 47 47
55 55 55 55 56 56 55 55 55 55 55 55 55 55 55 55 52 48 51 54 53 52 51 43 40 44 51 45 47 49 48 49 48 46 46 42 42 41 34 38 41 42 42 43 43 43 43 40 42 43 44 46 44 44
55 54 55 55 55 55 55 55 55 54 55 55 55 55 50 47 46 49 60 58 58 54 43 43 39 42 51 47 49 48 48 43 48 43 44 42 36 33 40 42 42 43 42 43 44 44 43 41 42 42 42 42 41 43
54 54 55 55 55 55 55 55 55 54 54 54 50 48 46 48 60 58 51 47 47 46 48 41 44 42 47 47 46 45 46 43 40 43 46 40 37 44 45 46 47 46 46 46 41 40 41 41 42 42 42 42 41 44
54 55 55 55 55 55 54 54 54 54 53 47 47 47 51 57 51 48 44 42 46 43 42 42 43 42 49 45 44 46 43 40 35 41 40 35 34 42 47 48 49 48 48 48 48 47 46 45 44 44 44 43 42 42
54 55 55 55 55 54 54 54 53 51 48 49 49 49 52 50 47 46 43 47 42 41 45 43 44 45 46 47 45 44 42 41 37 43 38 33 39 46 47 49 50 51 51 51 52 51 49 49 48 46 44 44 43 43
55 55 54 54 55 55 54 54 53 52 50 49 48 50 51 49 42 42 39 41 40 44 45 44 43 45 47 45 39 39 40 39 44 37 35 37 41 45 47 48 49 52 53 52 52 51 50 50 50 48 46 46 46 44
54 54 54 54 55 55 54 53 53 51 47 47 47 38 44 43 47 46 44 44 46 46 45 44 42 42 42 40 39 37 40 38 36 30 31 36 39 42 46 46 48 49 52 52 49 50 49 50 48 49 49 47 46 45
54 54 54 54 54 54 55 54 53 49 47 47 48 39 45 52 50 50 49 47 48 47 45 44 44 42 40 39 38 38 37 33 34 31 35 38 41 41 42 43 43 44 47 46 47 47 48 49 47 48 48 47 46 46
54 55 54 54 55 55 54 53 50 49 49 47 47 47 49 49 48 49 47 47 49 46 45 44 40 40 38 38 37 34 35 31 35 37 40 41 41 42 42 44 45 45 46 44 46 46 47 45 45 44 46 45 45 46
53 55 55 55 55 54 53 49 48 49 49 51 50 53 52 49 49 48 49 49 48 48 42 42 40 37 40 37 35 37 35 37 41 45 47 43 42 42 45 46 48 48 48 47 46 46 46 47 45 44 44 45 44 45
53 53 56 55 53 52 51 49 51 52 49 51 51 53 51 50 48 48 50 49 49 46 44 43 43 38 36 35 35 38 39 41 41 42 42 42 43 44 47 44 46 48 48 47 47 47 47 46 45 44 43 42 42 42
53 52 55 55 52 48 49 51 50 47 50 51 52 51 50 49 49 50 50 50 48 47 47 43 41 37 38 39 40 40 40 40 40 41 42 42 42 44 45 45 45 43 42 41 43 44 45 45 43 42 42 41 41 41
53 53 54 53 52 47 49 51 53 50 49 50 51 48 48 48 49 49 50 49 48 46 45 42 41 41 41 42 42 43 43 42 42 40 40 41 42 42 42 42 43 41 41 41 42 42 41 42 43 46 44 41 42 41
53 52 53 50 47 48 49 49 53 52 52 49 49 48 48 50 49 49 49 47 47 45 44 44 45 46 45 45 45 44 44 43 42 42 41 39 40 40 39 40 41 43 44 41 40 42 43 43 44 45 46 45 42 42
51 53 50 51 50 52 48 51 50 51 50 49 49 47 47 47 48 48 49 48 46 47 46 46 46 46 46 47 50 48 46 45 43 45 44 42 39 38 38 39 40 40 42 41 41 44 44 44 44 43 44 46 42 42
53 53 53 53 51 46 47 53 53 52 51 49 48 47 48 48 50 50 48 47 47 49 49 48 48 47 47 47 45 44 45 44 42 43 41 40 39 39 41 41 41 42 39 38 40 40 43 43 45 45 45 45 43 41
53 52 51 51 49 44 53 51 51 49 49 47 46 47 49 49 49 48 47 46 47 48 49 47 48 45 44 44 42 43 43 42 40 40 40 40 39 38 38 40 41 40 39 39 39 40 41 44 45 46 46 45 42 41
44 46 45 37 48 50 51 51 49 49 47 48 48 48 48 49 47 46 46 46 46 47 46 45 44 45 43 41 41 42 43 43 42 41 41 40 39 39 39 39 39 39 40 40 40 41 41 41 42 43 42 42 43 42
38 47 44 49 50 50 51 47 48 48 49 50 49 48 48 48 48 48 47 47 47 47 46 46 46 44 42 46 43 42 44 42 43 42 41 41 43 41 39 38 38 40 40 41 41 42 42 43 44 45 44 43 42 44
40 46 50 51 53 51 48 49 51 48 49 49 48 48 47 47 48 50 48 49 49 48 48 48 50 51 49 44 42 44 44 44 46 46 43 42 42 43 43 41 39 41 42 45 45 46 45 45 45 45 44 43 44 44
49 50 48 51 50 52 53 48 49 48 49 50 49 49 50 51 50 51 51 53 51 49 48 47 47 49 48 46 46 44 42 42 44 43 43 42 40 40 42 43 42 43 43 46 46 46 46 45 45 45 45 44 43 44
47 50 51 49 51 51 51 51 51 51 52 50 49 47 49 53 54 53 52 53 50 51 48 47 45 45 44 44 44 44 46 49 46 42 41 39 39 42 42 42 42 43 43 44 44 45 47 46 46 46 46 44 43 43
48 51 49 52 52 51 54 52 52 52 52 53 53 51 52 53 55 54 54 53 51 51 53 52 49 47 45 45 42 40 42 46 51 49 43 40 42 44 43 43 44 43 42 43 45 44 44 45 44 44 44 42 42 42
51 50 51 51 52 54 53 53 53 53 53 52 53 51 52 55 55 54 56 56 54 50 49 47 46 47 47 44 44 43 42 42 44 48 47 46 44 44 45 45 45 44 44 44 44 44 43 44 43 43 44 42 43 42
51 52 52 53 51 54 54 53 53 51 50 49 49 50 51 50 52 53 55 53 52 52 50 52 52 50 49 47 45 44 45 44 45 50 47 45 44 45 46 46 45 45 45 46 45 45 46 45 43 44 44 44 43 43
53 54 55 51 49 51 51 51 52 50 50 49 49 51 51 51 53 53 54 55 58 59 54 51 48 46 48 48 46 43 42 42 43 43 44 43 43 43 43 44 46 49 48 46 46 45 47 46 45 45 44 44 44 44

GFSWCAN_sfc_temp_072.txt.gz
Temp
56 56 56 56 55 56 56 56 56 56 56 57 58 58 59 59 58 53 50 49 49 43 45 51 53 46 43 40 37 40 39 38 33 26 25 24 20 27 23 29 27 28 23 24 28 25 25 44 43 38 39 40 42 42
55 55 56 56 56 56 56 56 56 56 56 57 58 58 58 58 57 54 49 50 50 47 48 50 55 57 57 52 43 38 39 36 36 29 27 23 22 29 27 20 33 25 31 28 31 30 39 42 41 43 42 40 40 40
55 55 56 56 55 56 56 56 56 56 56 56 57 58 58 57 57 53 45 45 47 44 45 47 50 52 54 54 53 43 39 41 37 38 31 27 26 26 23 23 28 32 35 31 32 35 37 41 42 42 43 41 43 42
54 55 56 56 56 56 56 56 55 55 55 56 57 57 58 57 57 55 47 46 47 43 40 44 55 49 55 54 54 52 46 42 40 38 33 30 27 32 24 28 28 32 34 31 30 35 36 40 42 43 43 44 44 45
54 55 56 55 56 56 56 56 55 55 55 55 56 57 57 57 56 50 47 47 49 47 40 41 46 49 50 54 54 50 48 43 40 37 35 33 33 33 32 34 31 35 33 30 30 37 37 38 42 43 42 43 44 46
54 54 55 55 55 56 56 56 55 55 55 55 55 56 56 56 54 49 47 49 50 48 44 38 45 47 51 51 51 48 50 48 44 39 38 40 40 37 30 31 36 37 38 38 38 39 40 42 44 44 43 44 48 47
54 54 55 54 56 56 56 55 55 55 55 55 55 55 55 55 48 47 47 50 51 54 48 40 40 49 52 48 46 46 51 49 49 44 42 42 40 41 31 30 40 40 42 40 41 41 40 41 41 45 44 47 49 48
54 54 54 55 56 56 56 55 55 54 54 55 55 54 55 54 52 48 50 54 53 50 50 40 39 43 49 44 45 48 46 47 47 45 45 42 40 40 34 40 43 43 42 41 42 43 43 43 43 43 44 44 44 43
54 54 53 54 55 56 55 55 55 54 54 55 54 54 49 47 46 49 59 56 57 53 43 40 36 39 49 44 45 47 48 43 48 43 43 42 35 32 38 42 43 44 43 43 44 43 42 41 42 43 43 43 41 42
54 53 52 54 55 55 55 55 55 54 54 54 49 48 47 48 57 57 50 45 46 48 47 41 41 42 45 43 46 44 46 42 40 42 45 39 36 43 45 46 45 45 47 47 43 40 41 41 42 43 44 44 42 43
53 52 52 55 55 55 54 54 54 54 53 46 47 46 49 56 49 46 42 41 46 43 41 41 41 40 46 44 44 46 42 41 36 40 40 37 36 40 48 47 47 48 46 48 49 49 48 47 46 45 44 45 43 43
52 53 55 55 55 55 54 54 54 51 47 49 49 49 49 47 46 43 42 47 42 41 43 43 43 45 45 47 44 44 42 41 35 43 38 31 36 42 44 49 49 50 50 50 50 49 49 48 47 46 45 46 45 44
54 55 55 55 55 54 54 54 53 52 50 48 47 51 47 45 38 40 36 40 40 43 44 43 42 44 48 46 38 38 41 39 43 38 35 35 38 42 43 48 49 51 53 52 51 51 51 51 50 48 47 46 46 45
55 55 54 54 54 55 54 53 53 51 46 46 45 38 43 40 45 47 44 44 46 45 43 42 41 41 40 39 38 36 40 40 36 30 30 36 40 41 42 45 47 49 48 49 50 49 49 49 48 49 48 48 47 46
54 54 54 54 54 54 54 53 53 49 46 46 46 38 43 48 51 49 48 46 47 45 44 44 44 41 38 38 37 37 36 33 32 31 34 38 40 41 42 43 43 44 45 45 46 46 48 49 47 47 49 48 47 46
54 54 53 54 54 54 54 52 49 47 47 45 44 44 47 46 49 47 46 45 46 43 43 42 39 39 36 36 36 35 34 31 34 36 41 40 43 42 42 43 45 45 45 47 47 47 47 47 47 47 48 47 46 46
54 55 54 55 55 53 53 48 47 47 47 47 46 47 47 48 47 46 47 47 45 45 42 40 39 37 38 36 35 36 34 37 39 45 41 41 40 41 41 44 48 49 46 47 48 47 48 49 48 46 45 48 48 46
52 53 55 55 52 52 49 48 51 53 47 48 47 49 49 49 47 47 47 47 47 44 43 42 41 38 36 35 35 38 38 40 41 40 41 41 41 42 44 44 47 47 45 47 48 47 47 48 48 45 45 45 45 45
53 52 54 54 52 47 48 50 48 45 48 48 49 49 48 48 48 48 48 47 45 45 45 41 41 36 37 39 39 40 40 40 41 41 41 41 41 42 43 43 47 45 44 42 43 43 44 45 46 45 44 45 44 45
53 53 53 53 52 46 47 48 50 47 47 49 49 47 47 47 47 47 47 47 46 46 45 42 42 41 40 42 41 43 42 42 41 41 40 40 40 41 41 41 43 43 41 43 43 43 43 44 45 45 44 45 44 45
52 52 53 49 46 48 47 47 48 49 49 48 48 47 47 47 47 48 48 46 46 44 44 45 45 46 44 44 44 44 43 43 42 42 44 40 40 40 40 41 41 42 41 40 41 43 44 44 44 46 45 45 46 45
50 53 51 51 49 49 48 48 47 48 48 48 47 46 45 46 47 47 47 48 47 48 46 48 46 47 45 46 46 45 45 44 42 42 42 41 41 41 41 40 40 40 39 40 42 43 43 45 46 46 47 45 45 45
52 51 50 51 50 45 45 50 49 49 48 47 47 46 46 47 48 49 48 47 49 47 47 49 47 47 46 45 45 44 44 43 41 40 40 40 40 40 41 41 41 41 40 40 41 43 43 43 45 45 45 45 44 43
52 50 48 48 48 42 50 49 49 48 48 46 45 45 47 47 48 47 47 47 47 46 47 45 45 44 44 44 43 43 43 42 40 40 40 41 40 41 40 40 41 41 41 41 42 42 43 44 44 45 46 45 45 45
43 45 45 37 46 47 48 48 47 46 45 46 46 46 47 47 46 45 46 47 45 45 44 43 44 45 43 41 41 42 42 43 43 41 41 41 40 41 41 41 41 40 41 43 43 43 42 43 44 45 46 45 45 45
37 45 42 47 47 47 48 46 46 46 47 47 47 47 46 46 46 46 47 47 47 45 43 46 44 43 42 43 42 42 44 43 43 43 42 42 43 44 41 41 41 43 44 44 45 45 44 44 45 46 46 45 42 46
38 43 47 48 49 50 47 48 48 47 48 48 47 46 45 44 47 49 48 47 48 48 47 48 48 47 46 43 41 43 43 43 46 46 45 43 43 43 44 43 43 44 45 47 47 48 47 47 47 47 47 47 47 48
47 47 46 48 47 49 50 48 48 47 48 48 48 46 47 49 49 51 51 51 50 48 48 46 46 47 45 45 45 43 42 42 42 43 44 44 42 43 44 45 45 42 46 48 49 49 49 48 48 48 48 47 47 48
45 48 48 47 49 48 49 49 49 49 51 50 48 47 49 51 53 52 50 49 48 50 48 47 45 45 43 43 43 43 44 45 46 44 43 42 43 45 44 45 46 46 46 48 43 45 49 48 49 49 49 48 47 47
47 48 47 48 48 47 50 50 51 52 51 51 52 51 51 51 53 51 50 49 49 52 53 52 49 49 46 46 43 42 43 45 49 48 45 43 45 47 46 46 47 47 46 48 48 48 44 48 46 49 48 47 47 47
48 46 47 48 48 49 51 51 52 53 52 51 51 51 51 52 53 51 51 53 51 48 50 49 47 47 47 45 46 46 44 46 44 47 49 48 47 47 47 47 47 47 46 47 48 48 48 48 48 48 48 48 48 46
47 48 48 48 49 51 53 52 51 50 49 49 49 50 51 50 51 51 51 51 49 50 50 52 52 51 51 51 49 48 46 52 50 48 48 48 48 48 48 47 47 48 48 48 48 48 48 48 47 47 47 49 48 48
49 49 50 50 48 49 50 51 50 50 49 48 49 50 50 51 51 52 52 51 53 58 56 55 55 52 51 50 49 48 45 47 45 43 44 44 43 45 48 48 48 49 49 49 49 49 49 49 48 48 48 48 48 48

GFSWCAN_sfc_temp_075.txt.gz
Temp
56 56 56 56 56 56 56 56 56 56 56 57 58 58 59 58 58 61 60 58 61 58 59 59 60 54 52 54 51 51 51 51 50 41 42 37 38 35 36 42 43 42 39 38 40 38 36 52 51 46 49 51 52 52
56 55 56 56 56 56 56 56 56 56 56 57 57 58 58 58 57 58 61 59 58 60 60 59 64 66 65 63 57 51 52 49 52 40 39 40 35 35 35 35 44 38 44 41 44 45 49 52 52 53 52 50 50 50
55 55 55 56 56 56 56 56 56 56 56 56 57 58 58 57 57 57 58 56 60 58 60 61 61 64 65 67 69 57 53 53 49 52 48 43 35 40 33 34 41 44 46 45 43 49 49 52 53 53 52 52 52 52
54 55 55 56 56 56 56 56 56 56 56 56 56 57 57 57 57 56 59 57 59 55 53 58 63 62 64 66 65 65 57 54 54 55 50 47 43 44 40 41 42 47 45 45 44 47 47 50 51 53 52 52 52 53
54 54 54 56 55 56 56 56 56 56 55 55 56 56 57 57 56 56 57 58 59 58 53 56 60 61 62 63 62 60 59 56 51 49 50 47 48 43 45 44 41 47 45 42 44 52 51 51 52 53 51 51 52 52
54 54 54 55 54 55 56 56 56 55 55 55 55 56 56 56 55 60 58 60 61 60 56 50 59 58 60 60 59 57 58 53 54 50 50 51 50 50 40 36 50 50 52 54 53 53 54 54 54 54 52 53 54 54
54 54 54 54 54 55 56 56 56 55 55 55 54 55 55 55 57 58 56 58 56 60 56 51 53 59 59 58 58 58 58 55 57 48 45 47 44 44 38 35 50 51 52 51 52 51 49 51 51 53 54 55 54 56
54 54 54 54 53 56 56 56 55 55 55 55 54 54 54 54 55 58 61 55 56 58 58 50 52 54 60 56 52 55 49 49 47 46 46 44 41 42 34 45 50 49 48 50 51 54 56 56 55 53 54 54 53 53
53 54 54 53 53 55 56 55 55 54 54 54 54 54 56 58 58 59 58 57 60 57 53 51 49 50 59 53 51 52 50 42 47 43 43 43 36 33 40 44 46 48 46 46 51 52 52 52 54 54 53 53 52 54
54 54 53 52 54 55 55 55 55 54 54 54 54 55 55 58 58 60 60 56 56 56 56 50 53 51 55 52 48 48 48 44 41 43 48 41 39 48 51 52 50 48 47 50 47 45 48 50 53 54 54 56 55 55
53 53 52 52 54 55 55 54 54 54 54 54 54 55 58 57 59 56 51 50 49 49 50 49 50 50 55 47 46 51 48 47 39 43 42 40 39 49 53 52 50 49 51 53 53 54 55 56 56 56 56 56 55 55
52 52 53 53 55 55 54 54 53 53 54 54 55 55 59 56 52 50 49 48 47 50 50 48 51 50 51 52 48 47 45 45 40 46 41 34 47 52 52 53 50 51 54 55 55 54 55 55 57 57 57 57 57 57
53 53 54 55 55 55 54 53 53 52 52 54 55 55 54 52 41 47 46 49 49 52 52 52 51 50 49 49 47 48 43 41 47 41 38 45 51 52 53 54 51 51 53 55 56 57 57 55 57 55 56 58 58 57
54 54 54 54 54 55 53 53 53 53 54 54 52 38 47 48 49 52 53 54 57 55 53 53 51 50 50 48 49 44 46 47 41 37 39 50 52 53 53 54 55 55 57 57 56 57 56 55 56 57 56 58 58 57
54 54 54 54 54 54 54 53 53 54 55 53 53 41 48 56 56 55 56 55 56 56 54 49 48 52 50 47 49 46 42 41 43 43 49 53 52 51 52 54 54 56 56 56 56 56 55 55 55 55 56 55 56 57
54 55 55 54 54 54 53 53 54 55 55 54 52 52 57 53 54 55 56 58 59 57 56 56 51 49 47 48 45 44 42 41 47 51 55 54 52 52 52 53 53 54 52 54 52 53 54 55 52 53 55 56 55 55
54 58 54 55 54 53 52 54 54 53 54 52 55 56 55 55 56 58 59 60 58 58 56 54 48 46 48 47 45 47 46 51 54 56 56 52 50 50 51 53 54 53 50 50 51 52 49 49 49 51 52 52 52 53
56 57 55 54 54 54 55 54 53 55 50 56 54 58 56 58 58 59 59 58 57 58 55 54 53 49 46 44 47 51 52 56 56 54 52 52 51 51 52 51 52 51 48 49 47 49 52 49 47 47 47 47 48 49
55 56 54 54 55 54 54 54 55 52 56 57 57 57 57 58 58 58 60 57 58 58 56 53 50 47 50 53 52 54 53 54 55 52 52 51 51 51 51 52 51 50 49 51 50 48 47 49 45 49 48 47 46 46
53 53 53 53 55 55 52 55 57 54 54 57 56 56 56 58 59 59 59 57 58 58 54 54 54 56 56 56 55 56 55 54 52 54 52 51 51 52 51 52 52 51 53 52 51 48 50 49 49 48 51 49 48 46
54 53 54 54 53 55 54 56 56 57 57 55 57 57 59 59 59 59 59 58 57 58 57 59 60 60 58 56 58 58 56 53 54 53 52 51 53 53 53 53 52 52 51 51 49 48 48 46 46 47 51 50 48 51
55 53 54 53 54 53 51 57 56 59 56 57 55 57 57 57 58 59 57 56 57 61 60 60 59 57 56 55 56 56 55 53 52 51 49 51 55 54 53 52 53 51 51 53 52 48 49 52 52 51 49 53 49 51
53 53 55 54 51 48 48 58 54 56 54 56 56 54 55 56 58 56 56 59 60 60 59 59 56 57 57 54 55 54 54 54 55 55 55 56 54 54 55 54 55 54 52 53 54 52 52 47 51 56 54 56 54 56
52 54 52 52 50 45 55 54 56 55 56 54 54 53 56 58 58 56 55 59 59 57 58 54 56 54 55 55 56 55 55 56 55 54 55 57 55 52 55 55 55 55 54 55 56 56 54 53 50 57 57 56 57 56
45 47 47 38 51 50 51 53 53 53 53 54 52 54 56 57 56 55 55 59 57 57 56 56 57 59 58 57 56 55 54 58 56 55 55 57 55 55 55 56 55 54 58 58 55 56 54 56 58 57 57 57 55 54
38 49 44 52 54 52 54 52 52 53 54 54 54 56 58 56 52 54 58 59 57 57 56 57 58 56 56 59 57 57 57 58 57 57 56 57 58 57 55 54 54 54 58 58 58 57 56 57 57 56 56 53 44 55
40 49 54 56 56 56 54 54 56 55 54 54 56 54 54 51 53 60 61 59 59 60 60 60 61 61 60 57 57 58 58 58 59 59 59 58 58 58 58 56 54 56 59 59 60 59 57 57 57 57 56 57 57 57
52 53 50 55 54 58 55 55 55 54 56 57 56 52 53 55 58 63 64 63 63 60 61 61 61 64 63 61 60 57 57 57 56 57 57 56 58 58 57 59 59 42 59 60 60 60 60 60 59 58 57 56 58 59
51 55 54 52 55 56 54 56 58 58 58 56 56 56 60 62 65 65 63 62 61 61 59 58 57 59 58 58 57 58 58 59 57 53 53 54 55 56 59 59 60 60 60 61 41 49 57 59 59 59 57 57 57 58
53 56 54 54 53 54 59 60 61 61 60 61 62 60 60 64 64 64 61 60 60 62 64 64 61 60 58 57 56 54 57 61 63 60 56 56 58 61 59 59 59 60 60 61 60 58 44 55 52 59 57 58 58 57
56 54 54 56 57 60 61 62 63 61 62 59 59 60 62 64 64 62 61 63 64 63 62 61 60 61 59 58 57 55 55 57 57 60 62 64 63 61 61 61 61 60 60 60 60 61 61 59 58 57 56 56 55 54
55 54 55 54 58 61 60 59 62 61 58 57 58 59 61 58 58 60 59 60 60 60 58 62 61 59 60 63 63 63 50 64 59 57 58 59 61 61 62 62 61 61 60 60 60 60 59 57 58 57 57 55 55 55
56 57 57 58 59 58 60 60 59 58 58 57 57 58 59 59 57 60 59 61 62 65 63 63 62 60 60 61 61 61 52 62 56 47 47 48 49 53 61 62 61 61 60 60 60 60 58 58 58 56 56 55 55 55

GFSWCAN_sfc_temp_078.txt.gz
Temp
56 56 56 56 56 56 56 57 57 56 57 57 58 58 59 59 58 65 72 71 70 70 69 68 68 64 65 66 64 60 61 61 62 52 53 49 47 44 44 54 53 51 47 47 52 47 43 62 59 55 58 61 62 61
56 56 56 56 56 56 57 57 56 56 56 57 57 58 58 58 57 58 74 74 71 70 69 72 74 73 71 71 70 64 61 60 64 54 54 52 42 43 43 41 54 46 55 52 54 56 58 62 61 62 62 59 60 61
55 55 55 56 56 56 57 57 57 56 56 56 57 58 58 58 58 59 72 71 71 71 70 70 69 73 77 75 79 67 68 64 63 65 63 56 38 50 42 44 50 55 57 54 52 60 58 59 61 62 61 62 61 61
55 55 55 55 56 56 56 57 57 56 56 56 57 57 57 57 57 57 71 71 71 70 65 66 74 69 73 76 74 74 68 68 67 67 65 61 55 57 52 52 52 60 56 54 54 59 57 60 61 61 60 60 60 61
54 55 55 55 56 55 57 57 56 56 56 56 56 57 57 57 56 65 73 72 72 66 64 68 71 71 74 72 71 71 70 66 65 62 61 59 62 57 61 58 52 59 55 50 52 61 59 60 62 62 59 59 60 59
54 54 54 55 55 55 56 56 56 56 56 55 55 56 56 56 56 69 66 72 74 71 66 64 70 67 69 70 69 67 68 68 63 58 57 63 60 58 47 44 57 61 62 63 60 62 63 63 63 63 61 61 61 60
54 54 54 55 54 54 56 56 56 56 55 55 55 55 55 55 65 67 64 65 60 70 66 64 63 68 67 68 69 68 67 67 57 51 49 55 51 51 41 40 56 58 61 62 62 60 57 60 60 63 62 61 59 61
54 54 54 55 54 55 56 56 56 55 55 55 55 55 55 55 56 66 70 59 62 68 68 63 63 63 68 65 59 64 57 56 50 46 46 43 42 42 36 50 54 54 57 55 54 59 63 65 63 61 62 62 59 60
54 54 54 54 54 55 56 56 56 55 54 54 55 55 63 66 69 67 59 57 71 67 63 66 59 56 69 63 61 56 56 47 57 47 44 45 39 35 48 55 57 56 50 51 53 52 53 61 61 60 60 60 59 61
54 54 54 53 54 55 55 55 55 54 54 54 61 64 64 67 57 61 65 65 66 68 68 65 68 62 66 61 57 56 55 48 42 46 51 43 43 56 59 59 57 57 54 52 46 45 50 54 58 59 59 61 62 63
54 53 53 53 54 55 55 55 54 54 52 65 66 65 67 58 68 64 59 58 62 58 65 67 63 60 65 54 55 60 54 53 43 48 49 45 45 58 61 60 58 56 52 51 54 58 58 57 56 57 61 62 63 63
53 52 52 53 54 55 55 54 54 59 66 60 63 64 69 64 57 54 55 55 53 58 61 62 60 61 56 57 55 57 51 55 43 58 47 38 58 59 60 60 60 58 56 59 62 61 62 62 63 63 63 64 64 64
53 54 54 54 55 55 54 54 54 54 55 65 64 61 60 59 43 52 52 57 58 64 64 63 59 57 53 58 55 53 47 47 58 48 39 52 58 61 60 61 61 61 59 61 61 63 63 63 63 62 61 62 62 64
54 54 55 55 55 54 54 53 54 56 61 63 60 40 55 55 59 63 61 61 66 69 68 68 58 52 54 56 58 48 55 56 43 42 44 59 57 59 61 62 62 61 61 62 62 62 62 61 61 62 60 62 63 61
55 54 55 56 54 55 54 53 53 64 65 61 62 45 58 68 70 68 61 66 69 72 67 61 60 60 60 56 59 56 49 47 51 50 57 59 59 59 59 61 62 62 62 62 62 61 61 62 62 61 63 63 62 63
55 55 60 54 54 54 53 54 60 65 65 62 61 61 67 66 65 66 66 66 71 70 68 66 60 56 56 59 52 50 49 47 56 60 62 62 58 58 58 60 60 60 60 59 59 57 59 59 59 59 61 61 60 61
55 62 55 55 54 53 54 61 63 60 63 60 64 70 67 66 66 69 72 71 72 68 65 65 53 52 61 55 51 58 53 58 61 63 64 59 57 57 58 59 60 59 59 58 58 58 57 57 57 53 49 50 50 58
61 61 55 54 56 56 62 61 57 60 56 65 64 70 68 69 69 71 71 70 68 68 67 62 66 56 54 50 55 62 64 67 66 64 63 60 59 58 59 58 58 58 57 57 58 58 56 54 49 48 48 49 48 50
61 61 55 55 59 60 62 61 63 60 65 70 69 70 69 70 71 71 73 69 70 72 69 65 58 57 61 65 62 65 67 66 65 63 61 58 58 58 58 59 59 59 58 58 58 54 52 54 55 49 49 48 46 47
54 54 53 53 55 61 59 63 66 61 63 66 68 66 68 69 72 70 70 68 67 67 63 60 63 67 68 68 70 69 69 68 66 63 56 61 63 59 58 60 60 60 62 60 59 51 56 54 52 55 51 46 47 48
56 58 54 59 62 61 64 65 64 67 65 64 68 65 67 70 67 68 68 69 64 65 64 69 70 72 70 69 70 69 65 67 65 64 63 60 63 63 62 64 63 63 62 59 55 52 51 46 47 50 50 50 56 59
64 54 59 59 61 60 59 67 65 68 65 68 66 68 66 66 68 68 71 64 66 69 71 71 72 68 65 63 64 66 63 62 61 59 53 53 61 61 63 65 65 61 62 60 56 54 54 57 57 58 61 61 58 60
54 58 59 58 55 51 53 68 60 64 59 64 66 62 64 66 69 68 64 68 71 72 72 70 65 68 65 64 63 63 63 62 63 63 62 63 63 63 66 65 65 63 61 61 64 60 60 49 58 62 62 64 64 64
53 59 56 56 54 51 64 59 63 61 62 60 60 59 63 67 68 65 63 70 71 69 67 61 66 64 64 61 63 63 63 66 64 63 64 63 61 61 65 64 64 64 64 65 64 61 61 64 53 62 62 65 64 60
49 49 50 39 55 52 54 58 59 60 58 62 59 60 64 66 61 63 63 70 69 68 66 65 67 68 66 65 65 64 64 66 65 62 63 67 63 63 63 63 63 64 70 64 63 63 63 66 63 61 63 61 59 60
39 55 47 58 61 57 61 56 58 58 61 60 61 65 67 64 57 59 67 71 70 68 67 67 67 67 66 67 64 63 63 68 66 64 63 66 66 66 63 60 60 61 68 68 65 63 62 63 62 60 60 56 46 57
43 55 60 64 64 64 61 64 65 63 60 59 63 60 61 56 57 67 71 72 72 72 72 73 72 70 68 68 68 68 68 68 66 67 67 67 68 69 67 63 61 63 67 66 66 65 64 63 62 61 59 59 59 59
59 60 55 61 61 65 59 61 60 59 63 68 66 58 57 61 65 72 74 73 74 73 73 74 74 74 72 69 68 66 67 68 66 67 66 66 67 68 66 68 66 43 67 67 67 66 67 66 64 63 61 62 61 61
57 63 62 57 60 62 61 61 64 70 71 68 62 62 65 74 77 76 73 73 73 72 69 68 69 72 71 70 68 68 69 67 63 58 57 59 59 61 66 66 65 65 66 65 39 50 61 63 63 63 62 63 63 65
59 66 60 60 59 59 65 70 70 76 74 73 73 72 71 73 77 76 71 70 69 69 71 72 72 70 68 66 65 65 69 70 69 65 61 61 63 66 65 65 65 66 67 66 65 62 43 56 53 63 63 65 64 61
68 64 60 61 62 67 71 75 75 74 72 72 72 68 69 73 75 74 72 72 72 73 72 70 70 71 69 66 66 65 64 68 69 68 69 70 69 65 65 66 66 66 66 66 66 66 66 64 66 63 63 61 59 57
63 60 60 58 63 72 72 68 71 70 70 66 68 71 70 68 64 67 66 68 65 67 61 67 68 67 69 68 70 71 52 72 68 68 66 67 68 67 66 67 68 67 66 66 66 66 64 63 65 64 64 60 60 59
62 65 64 64 64 64 70 68 68 66 68 67 66 67 67 65 60 62 63 59 57 59 60 60 60 61 62 64 65 65 56 69 64 52 50 51 53 58 66 68 65 65 65 65 66 66 64 63 63 61 61 60 60 60

GFSWCAN_sfc_temp_081.txt.gz
Temp
56 56 56 56 56 57 57 57 57 57 57 58 59 59 59 59 59 66 78 79 75 76 75 75 74 71 71 72 68 67 67 68 68 59 59 55 51 50 50 60 59 57 54 54 58 54 50 69 66 60 63 69 70 69
56 56 56 56 56 57 57 57 57 57 57 57 58 59 59 58 58 59 79 82 80 74 75 80 80 79 76 76 75 71 67 66 69 64 62 62 50 53 50 47 62 53 62 59 60 59 64 68 67 69 70 66 67 68
55 55 55 56 56 57 57 57 57 57 57 57 58 58 59 58 58 59 78 78 79 75 76 77 74 80 84 82 85 70 74 70 69 72 69 62 45 57 48 50 56 62 64 60 59 65 63 65 68 68 68 68 68 69
55 55 55 55 55 56 57 57 57 57 57 57 57 58 58 58 58 57 77 79 77 75 71 72 81 75 81 83 79 80 75 76 75 73 69 66 59 65 58 58 58 65 63 59 60 64 64 66 67 67 66 67 67 68
54 55 55 55 55 56 57 57 57 57 57 56 57 57 58 58 57 65 80 81 80 71 70 72 78 79 81 79 76 76 75 72 72 67 64 61 67 64 65 64 59 67 61 57 57 65 64 64 68 69 65 64 66 65
54 54 55 55 55 55 57 57 57 57 56 56 56 56 57 57 57 74 70 79 80 77 70 68 76 73 76 76 74 72 74 71 70 68 63 67 64 62 50 48 61 65 66 67 64 66 67 68 68 69 66 66 66 66
54 54 55 55 55 55 56 56 57 56 56 56 56 56 56 56 66 70 66 68 61 75 71 69 66 73 74 74 74 70 70 65 65 58 51 47 47 54 47 44 59 62 63 63 68 66 62 66 64 68 68 67 63 67
54 54 54 55 54 55 56 57 56 56 56 56 55 56 56 56 58 64 72 61 64 73 74 67 65 66 75 67 60 69 66 66 61 55 48 45 44 43 36 50 56 63 64 63 63 66 67 65 67 67 68 67 64 64
54 54 54 54 54 55 56 57 56 56 55 55 55 56 66 66 66 72 61 60 75 71 67 71 65 58 74 67 66 67 68 57 60 50 51 47 40 35 47 55 60 61 59 60 63 62 63 59 59 64 65 65 64 64
54 54 54 54 55 55 56 57 56 55 55 55 62 69 64 71 56 63 69 69 70 73 73 71 75 61 72 65 57 57 62 55 48 53 55 45 45 58 60 64 64 63 63 63 56 54 55 54 54 58 63 66 66 66
54 54 53 53 54 55 56 56 55 54 52 70 70 71 73 60 70 65 61 66 70 64 72 72 68 64 72 62 59 66 55 55 47 49 49 47 50 56 64 64 65 64 62 61 59 58 57 55 54 57 60 63 64 65
53 53 53 53 54 55 56 55 55 61 73 63 66 69 76 66 61 56 60 64 61 60 71 68 67 67 68 70 64 64 57 61 48 59 52 42 53 62 61 63 65 65 64 61 62 59 58 58 59 60 63 64 64 64
53 53 54 54 55 56 55 54 54 56 56 72 68 63 63 61 45 54 54 56 56 69 66 69 61 68 66 68 65 59 51 51 67 50 45 55 61 64 63 64 65 66 65 64 62 63 63 63 64 62 61 63 67 64
55 55 55 55 56 55 54 54 54 58 64 67 64 43 56 58 63 64 65 68 73 74 73 71 68 66 66 59 64 52 60 64 52 45 48 56 60 63 64 66 66 66 67 65 63 63 63 63 62 61 64 62 64 61
55 55 56 57 55 55 54 54 54 66 69 65 68 47 63 68 76 74 76 74 74 78 74 69 68 68 61 62 65 62 55 51 55 51 61 62 62 63 63 64 65 65 66 64 63 63 61 59 57 57 58 61 62 61
55 53 62 55 55 55 54 56 64 71 70 67 66 65 72 68 68 75 74 71 78 76 74 72 66 62 61 65 58 55 54 50 59 64 67 66 61 62 61 63 64 64 64 64 65 64 63 62 61 59 61 62 62 58
52 67 56 55 55 55 55 64 70 65 66 65 68 75 74 73 69 75 79 77 78 73 70 70 58 57 67 60 56 65 57 62 66 68 68 63 61 60 62 63 64 63 63 63 63 63 63 63 63 58 56 58 57 58
63 64 56 55 56 59 68 66 67 66 62 70 68 73 73 73 73 75 77 78 74 73 71 64 70 61 60 54 59 67 69 71 71 69 67 64 62 62 63 62 62 62 63 63 62 63 61 57 56 56 56 57 57 56
61 63 55 56 58 63 66 68 69 63 69 75 75 75 74 74 75 78 79 77 76 78 73 69 60 60 62 69 69 69 72 71 70 67 64 63 62 61 62 64 64 63 62 62 61 62 60 57 54 54 53 53 48 48
54 55 54 54 55 65 63 68 73 66 67 73 75 72 73 72 71 77 77 76 73 71 67 63 64 68 65 72 74 73 73 72 70 64 63 65 66 63 63 64 65 64 67 62 61 54 59 56 58 54 55 51 49 47
53 60 55 61 64 66 67 70 68 71 73 69 75 72 71 71 73 72 71 73 71 68 65 71 59 70 74 73 75 75 70 71 69 68 67 69 68 70 66 67 68 69 63 60 60 60 57 57 59 54 57 51 49 53
68 55 65 63 63 67 65 72 69 73 70 71 72 73 70 70 67 65 72 68 69 70 72 70 72 72 69 68 69 70 69 67 66 64 57 60 65 65 67 71 69 68 64 63 60 62 61 63 61 57 59 61 57 63
54 61 66 63 58 57 55 73 65 69 63 67 72 66 67 69 73 77 69 73 74 77 79 77 73 73 72 69 68 67 67 67 67 68 66 70 69 69 69 70 70 68 66 65 61 60 63 51 59 61 63 64 65 66
54 63 59 59 55 53 68 65 69 65 66 64 63 61 66 70 73 69 67 73 76 77 74 68 71 69 69 66 67 66 67 71 70 69 69 68 67 66 70 71 71 71 71 67 63 63 64 65 58 64 64 66 64 63
51 52 54 41 63 57 59 62 64 65 62 64 62 62 68 73 64 65 67 71 75 74 73 71 72 72 70 70 71 68 69 72 70 67 68 70 69 68 67 69 70 72 72 69 66 66 65 66 67 67 66 66 61 62
43 59 49 61 63 61 64 59 60 62 64 61 66 72 73 66 60 62 67 73 76 76 74 72 72 72 72 73 70 68 68 73 72 68 68 70 70 68 66 64 64 65 72 71 69 67 66 67 66 63 62 59 49 58
45 59 65 70 67 68 65 67 70 67 64 62 67 59 57 56 60 64 76 80 79 79 78 77 77 75 75 73 73 73 73 73 70 72 71 71 73 73 71 67 65 68 72 72 71 70 67 67 65 65 64 64 63 62
63 65 60 65 66 68 63 64 65 62 65 72 66 57 56 61 61 68 79 81 83 80 79 78 80 80 77 76 75 73 72 73 71 72 71 71 72 72 70 74 70 47 66 70 71 70 69 70 68 67 66 64 63 64
62 68 68 62 64 66 65 65 66 72 74 71 61 64 65 72 77 76 76 82 82 79 75 74 75 77 76 75 74 73 73 72 67 62 60 61 63 66 69 70 68 68 69 68 41 49 62 64 64 65 65 67 68 68
64 71 65 64 63 63 68 74 73 78 79 79 78 77 77 79 75 82 80 76 76 75 75 76 73 75 73 72 69 69 71 74 72 68 62 63 67 71 69 68 68 68 70 69 68 65 47 58 57 64 63 66 66 64
72 71 66 66 65 70 74 78 79 80 79 78 79 75 75 77 66 68 68 74 77 74 73 71 70 74 73 71 66 63 65 71 72 72 72 73 74 71 70 69 70 70 69 69 68 68 67 65 67 66 64 63 61 59
69 66 65 63 66 74 77 75 75 74 75 74 74 77 76 68 62 58 61 70 70 64 55 62 58 57 71 75 71 70 52 74 74 72 71 71 72 71 71 71 72 71 69 68 68 68 67 65 66 67 65 63 63 61
68 69 68 68 68 68 74 73 72 72 73 69 60 68 70 65 56 58 60 59 56 55 49 49 50 55 58 62 62 63 57 74 66 54 51 53 52 60 71 72 72 70 69 68 68 68 67 66 66 65 64 64 64 63

GFSWCAN_sfc_temp_084.txt.gz
Temp
56 56 57 57 57 57 58 58 58 58 58 58 59 59 60 59 59 63 79 81 75 73 77 78 77 73 73 73 67 68 68 70 69 59 58 55 51 51 52 60 58 58 54 54 58 54 49 70 68 61 64 72 74 75
56 56 56 56 56 57 58 58 58 58 58 58 58 59 59 59 59 59 75 84 81 75 76 82 82 82 79 78 74 73 68 68 69 62 62 61 50 55 52 48 65 54 59 53 60 55 65 68 65 69 71 67 69 69
55 55 56 56 56 56 58 58 58 58 58 58 58 59 59 59 59 60 74 80 80 75 77 78 75 81 87 84 86 70 73 73 70 73 68 63 51 58 49 51 57 64 68 61 61 63 65 67 69 70 71 69 70 72
55 55 55 56 56 56 57 58 58 58 58 58 58 58 59 59 58 58 73 80 78 76 69 72 85 78 84 86 81 81 77 77 76 73 68 66 59 66 58 59 59 65 64 60 61 65 66 67 68 69 68 70 70 70
55 55 55 55 55 56 56 58 58 58 58 58 58 58 58 58 57 64 76 82 82 72 65 71 80 82 84 81 78 79 77 73 70 67 64 61 66 63 66 65 61 67 63 58 57 65 63 66 69 70 67 66 69 67
54 55 55 55 55 56 57 58 58 58 57 57 57 57 57 57 57 70 69 81 80 79 69 66 78 75 78 78 76 74 75 70 70 65 61 61 63 59 51 50 61 64 65 66 63 66 68 69 70 71 68 68 69 68
54 54 55 55 55 55 57 57 57 57 57 57 57 56 57 56 63 68 64 68 63 75 70 67 67 75 77 76 75 72 73 72 66 64 58 58 55 56 49 44 57 61 61 62 67 66 63 67 66 70 69 69 66 69
54 54 55 55 55 55 56 57 57 57 57 57 57 56 56 56 57 67 73 59 63 72 75 63 61 66 77 62 66 72 66 63 63 59 60 53 52 45 37 54 59 62 64 64 64 66 64 63 64 66 69 69 65 65
54 54 54 54 55 55 56 58 58 58 57 57 56 56 66 67 69 71 63 63 75 71 63 70 63 55 75 68 69 63 64 53 60 54 54 54 42 35 48 56 59 63 62 62 64 64 62 61 62 63 60 64 64 64
54 54 54 54 54 55 56 57 57 57 56 56 62 69 66 69 58 62 68 69 70 73 73 66 75 62 70 66 63 61 66 55 47 52 58 48 46 56 61 62 63 63 63 63 59 56 56 58 58 62 60 60 61 66
54 54 54 54 55 55 56 57 56 56 53 69 70 65 73 61 73 70 65 61 62 61 68 71 69 64 73 63 62 63 58 58 47 52 52 49 52 57 63 64 61 65 66 64 63 61 62 61 58 61 59 59 61 64
53 53 53 54 55 55 56 56 56 60 72 62 64 71 76 66 64 58 61 66 64 58 66 67 65 70 70 70 65 64 57 57 48 61 53 45 59 61 64 64 65 65 65 65 64 63 63 62 63 61 59 60 60 61
53 53 54 54 55 56 56 55 55 55 58 72 67 63 61 61 46 55 53 57 58 68 71 69 64 69 68 70 63 63 54 55 65 53 47 55 58 55 64 66 67 69 67 66 66 64 64 63 63 63 62 63 64 64
56 55 55 56 56 57 55 55 55 59 64 67 62 41 59 56 62 63 60 62 67 73 72 72 70 67 68 64 62 55 59 62 53 47 49 56 58 64 65 67 66 65 67 65 63 63 63 58 59 59 59 64 58 61
56 56 56 57 56 56 55 55 55 66 68 65 68 48 63 69 72 72 76 74 75 78 75 70 70 69 65 61 63 62 57 51 54 50 56 55 62 63 63 64 63 61 62 61 62 61 59 60 62 61 59 53 55 57
55 52 62 56 56 55 55 57 64 70 70 68 67 66 70 68 67 72 72 73 78 76 75 73 66 63 61 65 59 56 56 52 57 64 64 61 61 62 62 63 63 62 62 62 61 60 60 59 59 60 61 61 61 55
51 70 56 56 56 55 55 63 71 66 67 66 69 75 73 67 65 71 73 76 79 74 66 70 60 59 68 60 57 63 59 63 68 68 66 62 61 61 62 63 63 63 63 63 62 61 61 63 62 61 57 58 59 60
68 58 57 56 56 62 69 65 68 68 63 69 68 72 75 76 73 71 72 79 76 74 72 64 70 62 58 57 59 68 70 72 71 70 67 63 63 63 64 62 63 63 63 62 62 60 61 59 57 57 56 56 57 53
60 60 57 57 58 62 67 69 70 63 69 74 77 78 78 76 66 76 69 77 78 78 73 69 62 61 61 67 65 69 71 72 69 67 65 64 63 62 63 64 64 64 64 63 62 62 61 58 58 56 54 53 53 53
54 54 55 55 56 64 64 68 74 67 65 70 75 74 66 68 73 77 72 73 74 72 66 62 62 60 65 68 72 73 72 72 71 68 66 66 65 63 63 63 66 65 65 63 63 57 61 58 60 59 56 54 55 51
53 62 56 60 62 65 66 68 70 71 72 71 75 74 73 76 70 54 66 63 61 61 63 70 61 55 66 73 75 74 70 72 70 69 68 68 68 69 66 66 66 69 66 65 61 59 59 60 60 61 59 59 59 61
66 56 67 63 64 66 67 72 69 72 70 71 70 73 71 69 71 68 74 63 69 66 66 72 67 71 69 69 70 71 69 68 67 65 57 61 67 66 67 69 69 67 65 64 63 59 60 63 64 65 64 58 59 61
57 61 66 66 59 57 54 72 65 68 63 67 71 67 68 69 73 67 65 70 72 76 78 77 74 74 73 70 70 69 68 68 67 68 67 69 70 70 69 69 69 68 65 63 65 65 63 54 60 63 65 64 64 63
54 63 61 61 59 52 67 64 69 68 66 66 65 62 63 55 67 68 66 71 67 69 77 70 73 70 70 67 68 67 68 70 71 70 70 69 67 66 69 70 70 70 70 68 67 65 65 62 57 65 64 64 62 62
50 50 54 41 63 60 59 61 62 65 61 62 62 60 64 57 61 62 66 64 53 70 73 72 73 72 69 69 71 70 70 72 71 69 70 71 70 68 67 68 70 71 72 68 67 66 66 67 66 66 64 63 62 61
43 59 48 62 63 60 63 59 60 62 63 63 63 58 58 50 50 58 64 70 66 75 75 73 72 72 72 74 72 70 70 73 73 70 70 71 69 68 66 65 65 66 71 71 70 68 66 67 66 64 64 60 49 60
46 58 66 71 68 67 66 68 70 67 62 57 56 57 59 52 53 55 55 58 75 81 81 79 78 75 75 74 76 76 75 75 72 72 73 72 72 73 70 68 66 69 71 71 70 69 67 67 66 66 65 65 64 64
62 66 60 67 67 69 63 64 65 63 65 64 65 55 57 59 58 55 55 63 82 84 82 81 81 80 79 78 77 75 74 74 70 72 72 71 73 72 71 72 67 48 69 68 68 70 68 68 68 66 65 64 64 66
62 68 69 64 66 67 66 65 66 71 75 67 54 51 55 57 70 74 79 81 84 82 79 77 77 79 78 78 75 74 74 69 64 63 61 62 64 66 71 71 69 69 70 69 44 56 61 63 64 65 66 66 67 67
64 72 67 66 63 62 67 73 72 78 80 80 75 74 70 68 67 67 64 66 67 74 74 76 76 75 73 71 66 66 70 69 70 69 64 64 67 72 70 70 69 69 70 69 68 65 50 59 59 64 63 66 65 64
72 72 68 68 66 71 74 79 80 80 79 78 80 77 75 68 66 60 55 58 65 66 71 70 64 63 65 61 59 57 57 63 70 73 74 73 74 73 71 70 71 71 71 70 69 67 66 63 64 63 65 64 63 61
70 67 66 63 66 74 77 75 75 75 76 75 67 64 57 57 53 58 64 67 66 59 52 56 54 52 55 56 60 63 51 65 69 73 72 72 72 73 72 72 72 72 71 69 69 68 68 66 66 65 65 64 63 63
70 71 70 70 68 68 74 74 72 72 66 56 53 55 57 61 59 65 69 65 64 65 61 58 56 55 55 58 65 67 57 68 62 50 52 50 51 60 72 73 72 72 70 69 69 68 67 67 66 65 65 64 64 64

GFSWCAN_sfc_temp_087.txt.gz
Temp
56 56 56 57 57 57 58 58 58 58 58 58 59 59 59 59 59 58 66 72 66 61 68 75 76 66 65 63 56 60 59 60 56 49 47 44 41 44 44 50 49 46 44 44 47 43 39 60 62 53 54 58 63 64
55 56 56 56 56 57 57 58 58 58 58 58 59 59 59 59 58 58 65 75 72 63 68 77 78 79 75 73 64 63 60 60 57 50 50 49 42 46 44 38 55 43 49 44 47 46 54 59 57 61 62 59 61 59
55 55 55 56 56 56 57 58 58 58 58 58 58 59 59 58 58 58 64 67 68 64 68 70 70 75 80 78 78 59 61 64 60 61 55 52 45 48 40 42 48 55 58 48 50 55 57 60 63 64 64 62 64 63
55 55 55 55 56 56 56 58 58 58 58 58 58 58 58 58 58 58 64 71 68 66 60 66 80 73 80 78 77 74 68 68 65 61 55 53 49 55 47 49 48 54 54 51 51 54 57 60 61 62 63 64 65 64
54 55 55 55 55 56 57 57 58 58 58 58 58 58 58 58 57 59 66 69 73 64 59 64 75 77 78 74 74 73 67 63 60 57 54 51 53 50 54 53 47 54 49 45 43 53 52 54 59 62 61 60 62 61
54 55 55 55 55 55 56 58 58 58 58 57 57 57 57 57 56 63 63 70 70 69 61 59 71 71 74 73 70 68 65 62 61 56 54 55 55 49 43 41 52 53 56 56 51 57 58 60 63 64 61 61 63 61
54 54 55 55 55 55 56 57 57 58 57 57 57 57 56 56 58 62 60 62 56 65 62 59 57 70 73 70 67 64 65 59 60 56 51 52 49 50 45 40 51 55 54 57 59 58 55 58 55 61 63 63 63 63
54 54 55 55 55 55 56 57 57 58 57 57 57 56 56 55 55 61 66 59 57 63 66 57 57 61 70 60 57 64 58 59 57 53 53 49 48 45 36 47 53 56 58 59 58 58 58 57 58 57 62 61 59 58
54 54 54 55 55 55 56 57 58 57 57 56 56 56 60 60 65 65 64 63 65 63 57 57 55 50 66 59 61 58 60 49 56 50 50 49 40 34 41 49 53 56 55 56 58 58 57 57 55 58 58 59 59 57
54 54 54 54 54 55 56 56 57 56 56 56 55 63 60 67 62 62 64 63 62 64 63 60 65 58 63 57 57 55 57 49 45 49 53 44 41 48 52 54 56 56 58 57 51 52 52 52 54 55 57 58 57 60
54 54 54 54 55 55 56 56 56 55 55 61 61 61 68 62 66 65 60 59 61 58 62 63 62 59 66 56 55 58 51 52 43 48 48 44 44 51 57 57 58 59 59 60 57 56 55 55 55 55 55 57 57 59
53 53 53 54 55 55 55 56 56 56 64 57 57 62 69 64 61 57 56 61 60 55 63 61 62 63 61 62 57 57 52 51 45 55 47 40 49 54 58 60 60 60 61 61 60 58 58 59 58 56 55 56 58 58
54 54 55 55 55 56 56 55 55 55 56 66 61 62 59 57 45 52 52 54 54 64 64 62 59 62 60 61 57 55 51 49 58 46 42 47 50 51 52 57 60 61 63 62 61 62 60 59 59 58 56 56 58 57
56 55 55 56 56 57 56 55 56 57 58 61 60 39 53 53 58 61 60 62 65 66 66 64 61 59 61 57 57 53 55 56 49 43 46 49 52 54 58 60 58 58 59 58 58 58 57 57 56 57 57 55 55 55
55 56 56 57 57 57 56 55 55 60 62 61 63 44 58 65 64 69 67 68 69 70 67 63 64 62 59 56 57 56 53 50 50 47 50 53 56 55 56 57 57 57 57 56 56 55 56 57 55 55 56 55 54 54
55 54 60 57 56 56 55 56 59 64 64 63 63 61 66 66 65 58 68 68 72 69 68 66 62 58 57 58 55 54 53 48 53 55 56 57 55 56 56 57 57 57 57 56 55 57 56 55 53 53 55 53 53 53
50 64 57 57 57 56 55 58 65 63 62 63 62 69 68 62 55 60 59 61 71 68 61 62 57 57 60 55 55 58 53 56 57 58 59 57 55 55 56 57 57 57 55 55 55 54 56 55 54 52 50 50 52 52
62 61 57 57 58 60 63 59 63 64 61 64 62 66 66 68 65 62 61 67 67 67 66 62 65 58 55 54 55 58 59 60 61 58 58 57 56 57 58 55 57 57 56 56 55 55 53 52 51 50 49 50 50 50
58 58 57 57 57 57 62 64 65 59 63 66 69 71 68 65 71 71 69 67 66 70 67 63 59 56 56 57 59 61 61 60 58 58 58 57 57 56 57 57 58 57 55 55 54 53 52 53 52 51 49 48 48 47
53 54 55 55 55 59 60 64 69 63 61 66 69 69 68 70 70 71 71 70 61 61 62 61 60 62 57 55 60 60 62 61 61 58 56 57 58 56 56 57 57 57 57 55 53 54 53 53 54 52 51 50 50 47
60 61 56 57 57 60 61 63 65 65 67 65 69 68 67 70 67 66 67 67 62 60 59 64 66 59 58 61 63 64 62 62 60 60 59 57 60 60 57 58 59 58 58 57 54 52 53 53 54 54 53 52 52 52
63 56 63 60 60 63 62 66 63 66 65 66 66 68 65 64 65 66 69 63 61 65 68 67 66 62 59 60 63 64 62 60 59 57 56 57 59 59 59 60 60 58 57 57 56 54 54 56 56 56 52 53 51 55
59 59 62 63 57 53 50 68 61 64 59 62 66 62 63 64 66 70 64 67 68 69 64 65 66 65 63 64 63 63 62 60 59 60 59 61 61 60 61 60 61 59 57 56 58 57 56 52 55 55 55 55 55 49
55 59 58 58 57 48 63 61 64 63 64 61 61 59 60 57 56 55 58 61 58 56 55 58 61 59 61 61 61 62 61 62 62 61 61 61 60 58 60 61 62 62 60 60 59 57 57 57 55 57 59 59 56 54
46 46 49 38 59 57 57 59 60 60 57 60 58 55 57 54 51 50 53 54 55 56 57 60 63 66 63 64 65 63 63 65 65 62 62 63 61 61 59 60 61 61 63 60 59 59 57 59 59 60 59 57 55 56
41 54 44 58 59 58 60 58 60 59 59 59 56 52 52 52 51 51 53 54 54 57 57 61 68 68 67 68 66 63 64 67 64 64 62 65 63 62 59 58 58 57 63 62 61 61 60 60 60 61 56 55 49 56
41 53 61 67 64 63 62 64 66 61 60 58 58 54 51 49 52 55 57 58 55 58 59 59 70 72 70 69 69 69 69 67 63 62 65 65 65 64 62 61 59 61 64 65 64 64 62 62 61 61 60 59 59 59
56 61 57 62 62 66 61 61 61 59 62 62 61 52 54 57 55 57 55 60 60 61 62 72 75 76 71 70 71 70 68 67 67 65 65 64 64 65 63 61 58 52 61 63 63 62 61 61 62 62 61 59 58 60
57 63 63 59 62 64 64 63 63 66 69 64 54 52 53 57 55 55 58 60 64 67 58 55 57 72 72 71 70 68 65 64 60 55 56 56 57 60 63 62 61 62 62 58 49 55 60 59 58 58 61 60 60 60
59 66 62 62 60 60 66 70 67 72 74 73 67 64 59 56 57 58 58 59 58 59 60 60 60 66 66 65 62 62 64 63 56 57 57 58 61 65 64 63 62 63 63 62 60 58 50 56 55 58 58 59 59 58
66 67 64 65 64 69 72 76 77 77 76 73 68 65 61 62 63 61 58 59 64 62 62 58 60 66 63 60 59 56 55 58 61 61 62 66 68 66 65 63 65 65 64 64 63 61 60 58 59 58 59 58 59 57
66 65 64 62 64 71 73 72 72 71 66 62 59 62 62 59 54 55 61 62 63 61 55 57 55 52 56 57 61 61 57 65 63 62 64 66 67 66 67 67 67 67 65 65 64 64 63 61 60 61 60 60 61 60
68 68 67 67 66 67 71 70 69 59 60 57 54 55 56 58 56 62 64 64 63 64 63 61 61 60 59 61 62 63 56 66 62 52 48 47 51 57 66 67 67 67 66 65 65 65 64 63 62 61 61 61 61 61

GFSWCAN_sfc_temp_090.txt.gz
Temp
55 55 56 56 56 57 57 57 57 57 58 58 59 59 59 59 58 53 56 59 58 51 55 64 66 58 57 52 48 53 52 52 47 42 40 38 36 38 38 47 44 41 39 38 42 40 36 59 60 52 52 52 56 56
55 55 55 55 56 56 57 57 57 57 57 58 58 58 58 58 58 57 54 63 62 57 59 66 67 69 67 62 56 52 50 49 49 42 41 40 37 39 38 34 49 41 45 40 43 43 51 54 54 58 58 54 53 54
55 55 55 55 55 56 56 57 57 57 57 57 58 58 58 57 57 55 52 55 58 55 57 59 60 66 70 67 64 53 52 54 53 52 45 43 41 40 33 35 43 49 52 46 46 50 53 56 58 60 62 59 60 60
55 55 55 55 55 56 56 57 57 57 57 57 58 58 58 57 57 57 52 57 56 54 51 56 70 63 66 70 69 62 59 58 55 52 46 42 41 45 40 43 42 47 48 45 44 50 54 56 58 58 60 61 61 60
54 55 55 55 55 56 56 56 57 57 57 57 57 57 57 57 56 53 51 57 58 57 49 55 61 64 65 66 66 62 59 55 50 48 45 42 43 44 44 44 41 45 43 40 39 48 48 51 57 60 59 59 59 58
54 54 54 55 55 55 56 56 57 57 57 57 57 57 57 56 55 55 54 58 57 56 52 49 59 59 63 65 64 62 58 53 51 47 44 45 46 43 35 36 46 48 49 48 47 51 52 54 59 60 59 59 59 57
54 54 54 55 55 55 55 56 56 57 57 56 56 56 56 55 50 53 53 57 52 54 52 50 50 64 66 60 58 56 54 51 50 45 43 43 42 43 37 32 46 48 50 52 53 53 52 54 52 56 59 61 60 59
54 54 54 55 55 55 55 56 56 57 56 56 56 56 55 55 53 55 57 54 53 54 54 49 52 53 57 53 52 52 49 48 48 44 43 40 40 40 34 41 45 50 52 52 52 52 51 52 54 55 56 57 56 55
54 54 54 54 55 55 55 55 56 56 56 56 55 55 52 53 53 56 63 59 55 55 49 49 46 44 56 51 53 49 48 42 46 42 42 41 36 32 39 41 45 49 48 49 51 52 52 50 51 54 57 56 53 53
54 54 54 54 55 55 55 55 56 55 55 55 52 54 52 57 62 61 56 52 52 52 51 52 53 50 53 48 47 46 45 42 38 42 44 37 35 41 44 46 48 51 52 52 45 45 45 46 49 49 51 53 57 57
54 54 54 54 55 55 55 55 55 55 55 51 52 52 58 61 57 53 50 49 50 48 49 52 52 53 54 48 46 48 43 43 35 40 40 37 36 44 49 49 50 52 53 53 53 52 51 50 50 50 51 53 53 55
53 53 54 54 55 55 55 55 54 51 51 51 49 52 55 55 49 48 47 52 50 48 52 52 52 52 52 51 47 49 46 43 38 45 39 32 41 47 51 53 53 53 55 55 56 55 54 55 54 52 51 51 53 56
54 54 55 55 55 56 55 54 54 54 52 52 51 52 51 52 41 45 44 46 46 52 54 54 54 52 51 50 47 46 44 41 48 40 35 39 44 48 49 52 53 54 55 55 55 56 56 55 56 53 52 52 52 52
55 55 55 55 56 56 55 55 55 52 51 51 51 38 46 45 48 48 50 50 54 54 54 53 50 50 48 47 47 45 47 46 41 35 39 42 45 48 49 52 52 52 53 53 53 54 54 53 52 53 52 52 51 50
54 54 55 55 56 56 56 55 55 51 51 50 53 42 47 53 55 56 56 57 57 56 55 52 51 50 47 48 47 47 45 43 43 40 42 45 47 47 48 50 50 51 51 50 49 50 51 51 50 49 49 49 49 51
53 53 54 56 55 55 55 53 51 52 53 52 53 50 53 52 55 53 54 55 58 56 54 53 50 47 48 48 47 46 46 41 44 45 46 47 47 48 49 50 50 50 49 48 49 49 49 48 47 46 47 47 47 48
51 55 55 56 56 55 54 50 53 54 54 55 51 53 54 52 52 53 53 54 60 57 51 52 49 50 49 46 46 49 45 46 47 46 47 48 48 48 49 50 50 50 48 47 46 47 47 47 46 45 44 45 45 46
54 54 57 56 54 54 53 50 52 55 53 53 49 52 54 55 55 53 53 55 56 55 57 57 53 48 47 46 46 48 48 48 48 48 49 49 49 49 50 48 50 50 49 48 47 46 46 45 44 43 43 44 43 43
53 51 53 54 53 50 51 54 53 50 54 54 55 55 55 57 62 61 57 58 61 62 56 54 54 46 47 48 50 50 50 49 49 47 48 49 49 49 50 51 51 48 48 48 45 45 45 44 43 43 43 42 41 41
53 53 53 54 53 49 51 53 57 53 52 53 54 54 54 55 59 58 58 57 54 53 54 53 49 50 52 52 53 53 52 52 53 48 46 47 48 49 49 49 48 48 48 47 46 46 44 43 43 44 44 43 42 42
55 54 54 52 49 50 50 51 53 55 55 53 54 54 54 56 58 55 57 56 51 50 49 52 52 53 54 53 53 55 54 56 55 52 52 47 48 49 49 49 48 50 47 46 46 45 45 45 46 45 44 44 44 45
53 55 53 52 51 54 49 53 52 54 53 53 53 54 52 52 53 55 60 52 51 52 55 57 57 54 54 54 53 55 55 53 54 54 52 51 49 48 48 49 48 47 48 47 46 46 46 46 46 47 47 46 46 46
54 54 53 54 51 47 46 55 53 54 50 52 53 52 52 51 52 54 53 53 54 53 55 57 58 58 55 55 55 53 53 53 51 49 51 52 55 55 52 50 50 51 47 47 49 48 48 48 48 48 48 47 46 46
55 53 50 50 48 42 54 52 54 53 52 50 50 50 50 49 52 51 52 53 52 54 53 54 55 54 53 53 52 51 52 53 52 50 50 51 53 51 53 53 52 55 54 51 50 48 48 48 48 48 49 48 46 45
45 44 43 36 49 51 52 52 52 52 50 51 53 53 51 51 50 48 48 51 52 52 54 55 53 54 52 51 51 53 54 53 53 55 52 57 55 53 52 52 54 56 55 51 50 50 50 50 50 50 50 49 48 47
39 49 42 50 50 50 52 51 54 54 55 52 51 48 48 48 49 49 49 52 53 54 54 53 55 55 54 54 55 58 60 55 55 54 54 58 60 57 53 52 51 50 54 56 53 52 52 51 51 52 50 51 48 51
40 45 50 54 55 55 52 53 57 54 55 53 49 50 49 47 49 51 54 54 54 56 57 57 56 55 54 55 56 55 57 60 60 60 59 60 59 59 59 56 53 55 55 56 55 55 54 54 54 52 51 50 51 52
48 50 47 53 54 57 52 55 55 53 56 55 53 52 52 54 52 52 53 55 57 57 57 56 55 52 53 54 57 59 64 65 65 63 62 59 55 55 54 53 52 48 54 55 54 54 54 54 54 54 53 51 51 52
47 52 52 50 53 56 56 55 54 55 59 58 51 49 50 52 55 53 55 55 55 56 56 55 52 52 55 59 61 64 64 63 57 52 52 50 48 53 52 53 53 51 51 51 48 51 54 53 53 53 54 53 51 51
49 55 52 54 53 54 56 58 57 60 59 59 57 53 52 52 53 54 54 53 52 52 52 54 53 57 59 58 57 57 57 60 60 57 48 48 50 51 52 52 52 51 49 50 50 49 48 50 49 52 52 52 50 49
55 54 53 53 55 58 63 61 61 61 59 57 57 52 51 51 53 54 53 52 52 50 51 51 58 61 58 57 56 55 54 54 53 54 53 54 53 54 55 53 53 52 52 51 50 50 49 49 50 52 52 51 53 51
56 56 56 53 56 61 62 60 59 57 55 53 52 53 54 53 51 53 53 53 52 50 49 51 53 51 52 56 58 60 53 57 52 53 55 52 51 52 55 55 55 54 53 53 53 52 52 52 52 52 51 52 53 53
58 59 57 56 56 58 58 59 56 53 52 49 50 52 54 53 50 52 53 54 53 52 51 50 50 51 52 53 54 57 53 54 53 51 49 47 47 50 54 55 55 56 56 54 54 53 54 53 54 53 54 54 54 54

GFSWCAN_sfc_temp_093.txt.gz
Temp
55 56 56 56 56 56 56 57 57 57 57 58 58 59 59 58 58 53 57 56 56 51 54 60 63 56 54 49 46 51 50 50 45 40 39 36 35 37 37 46 41 39 38 37 38 38 38 57 59 53 51 48 56 55
55 55 55 56 56 56 56 56 57 57 57 58 58 58 58 58 57 56 55 59 58 55 58 59 63 64 64 61 52 46 49 46 46 40 39 38 35 37 36 34 47 39 43 40 41 41 52 54 50 55 55 50 51 53
55 55 55 55 55 56 56 56 57 57 57 57 58 58 58 57 57 55 50 52 55 53 56 57 58 62 64 63 61 53 49 52 48 48 42 40 39 37 31 35 41 46 48 43 44 49 51 54 57 57 56 53 56 56
54 55 55 55 55 55 56 56 56 57 57 57 57 58 57 57 57 56 51 52 53 51 50 55 65 59 62 64 64 59 57 52 50 47 42 39 40 42 38 41 41 44 45 41 41 47 52 55 56 57 57 57 57 57
54 54 55 55 55 55 56 56 56 57 57 57 57 57 57 57 56 51 49 53 53 55 49 50 57 61 58 63 62 61 57 52 47 46 42 40 41 42 40 41 39 43 43 41 40 47 45 48 54 57 57 57 57 58
54 54 54 54 55 55 56 56 56 57 57 57 57 57 56 56 55 54 52 55 54 53 51 48 55 57 60 61 59 57 54 49 46 44 42 42 44 41 34 32 44 46 47 46 46 48 50 51 55 56 55 56 57 57
54 54 54 54 55 55 55 56 56 56 56 56 56 56 56 55 49 53 53 55 52 52 51 47 48 57 60 55 53 53 50 47 46 42 41 40 40 40 35 32 45 46 47 49 50 51 49 53 51 54 56 57 57 56
54 54 54 54 55 55 55 55 56 56 56 56 56 56 55 55 53 54 56 54 52 53 53 46 47 52 54 52 54 48 46 45 45 41 41 39 37 39 32 40 43 47 49 50 51 51 49 51 54 55 55 55 53 52
54 54 54 54 54 55 55 55 56 56 56 55 55 55 53 53 52 55 61 57 52 54 48 46 44 43 53 48 50 47 45 41 44 40 40 39 35 28 39 42 44 48 47 48 49 50 50 48 48 50 53 52 51 51
54 54 54 54 54 55 55 55 56 55 55 54 53 54 51 55 61 61 55 51 51 50 49 46 48 47 51 45 44 44 42 40 37 40 42 36 34 40 43 44 46 50 50 50 44 44 44 44 47 47 47 50 51 53
54 54 54 54 55 55 55 55 55 55 55 53 51 51 55 60 55 51 48 47 48 46 47 48 49 48 51 48 47 45 40 40 34 39 39 35 35 42 48 46 47 48 49 50 51 50 50 48 48 48 49 50 51 52
53 53 54 55 55 55 55 54 54 50 49 51 50 50 52 52 48 46 45 47 47 47 49 50 50 50 49 48 46 44 43 41 36 42 37 30 40 45 48 50 52 50 51 52 53 52 52 52 52 50 49 49 50 50
54 54 54 55 55 56 55 54 54 53 51 50 51 51 49 48 40 44 43 44 44 49 50 50 53 49 48 48 44 43 42 39 44 39 33 39 42 46 47 50 51 51 52 54 53 53 53 52 53 51 50 50 50 49
54 54 55 55 55 56 55 55 54 52 50 50 49 37 45 43 45 45 46 48 52 52 51 50 47 48 45 46 44 43 43 44 38 32 37 40 44 47 47 49 50 50 52 52 51 52 52 52 50 49 49 49 49 48
53 53 54 55 56 56 56 55 55 49 50 50 50 41 45 50 50 52 52 52 53 52 52 50 48 48 44 46 44 44 41 40 40 39 41 44 46 46 46 48 48 48 48 48 47 48 49 49 47 47 46 46 47 47
53 53 53 55 55 55 54 52 51 51 51 49 49 48 50 48 52 52 52 52 52 51 50 50 46 45 46 45 44 44 42 39 43 43 45 44 44 45 46 48 48 48 47 47 47 47 47 46 45 44 45 45 45 45
53 52 54 55 55 55 54 50 52 52 51 51 48 51 50 49 48 54 52 52 52 55 53 49 47 48 46 43 42 45 43 45 46 46 45 45 47 45 46 47 47 47 46 45 45 44 44 45 44 43 42 43 42 43
52 52 55 54 53 52 50 49 50 51 49 50 47 49 50 51 51 51 51 52 55 52 51 52 50 50 46 44 43 46 46 46 45 45 46 46 46 46 48 46 47 47 46 45 44 44 44 43 42 41 41 41 41 41
54 52 53 53 52 48 48 51 50 46 49 50 49 50 51 52 52 55 53 56 56 53 57 52 48 45 46 45 48 49 47 47 48 46 47 46 47 47 47 48 47 45 45 44 43 44 44 43 42 41 41 40 40 40
53 53 53 53 53 47 48 49 53 48 48 51 50 50 51 52 53 53 55 52 51 51 50 48 48 50 50 52 51 52 51 50 48 46 45 45 46 47 47 47 46 45 45 44 44 44 42 41 41 42 41 41 41 41
54 54 54 51 48 48 47 47 49 51 51 50 50 51 52 51 52 51 52 51 52 48 48 49 51 54 51 51 50 51 51 51 50 52 53 46 50 48 46 45 47 44 45 45 44 44 44 44 43 43 42 42 42 43
54 54 51 50 49 50 46 49 48 51 49 50 50 51 50 49 50 50 50 50 49 51 51 52 53 53 52 53 53 53 52 52 50 50 49 51 48 47 45 48 48 48 47 49 48 46 46 45 44 44 43 43 43 43
53 51 50 51 49 44 44 53 50 51 48 49 48 48 48 48 49 51 49 49 51 51 51 52 53 55 55 55 54 54 52 52 49 49 53 55 57 55 50 50 52 50 49 48 47 46 46 45 45 45 45 45 43 43
53 52 47 46 44 41 51 50 50 49 49 48 48 48 48 48 49 47 48 47 49 51 50 51 52 53 53 53 51 50 49 49 48 50 55 53 52 49 53 52 53 54 55 54 49 47 46 45 45 45 46 46 45 44
44 43 43 35 48 49 48 50 50 49 48 49 48 48 49 48 46 45 45 47 50 51 53 54 53 53 52 51 51 51 51 51 52 49 47 53 54 51 51 50 49 53 54 53 48 47 46 46 46 46 47 47 45 45
38 47 40 46 46 46 49 49 51 52 51 50 49 48 49 46 46 45 48 50 50 51 52 52 51 52 53 54 52 52 53 53 54 51 49 56 59 57 52 47 46 47 52 57 54 51 49 48 48 49 47 48 44 47
39 42 46 48 50 50 49 50 53 53 50 52 47 47 46 43 46 50 52 52 51 52 54 54 53 53 53 53 55 56 53 53 52 55 58 58 58 59 58 51 50 55 55 54 52 52 52 50 50 49 48 48 48 48
45 45 44 50 49 54 51 50 53 52 51 52 50 51 50 50 49 50 51 52 54 54 54 56 54 51 50 51 53 52 51 51 51 55 53 55 55 52 51 53 53 47 52 55 55 53 52 52 51 50 50 49 49 48
43 46 48 48 48 50 51 51 51 52 54 52 49 48 50 51 51 51 52 52 52 51 50 51 49 48 49 51 55 58 60 57 50 48 50 47 49 49 48 48 48 48 48 48 46 50 53 52 52 52 53 51 50 49
44 48 46 48 49 49 53 54 53 55 56 56 53 51 50 50 52 52 51 50 48 47 47 48 49 51 52 57 54 55 58 59 58 56 52 50 47 48 49 48 46 47 47 49 48 46 46 48 47 49 50 48 47 47
48 47 47 48 48 52 56 58 59 55 57 54 53 50 48 49 51 52 51 49 48 47 47 50 55 52 54 56 56 54 53 55 57 54 51 51 49 49 49 49 48 46 48 48 48 48 48 47 48 50 50 49 50 48
49 49 49 48 51 58 58 57 53 51 51 50 49 51 51 50 50 50 50 50 48 46 46 47 47 46 50 56 57 56 49 57 55 51 51 50 50 50 48 49 51 50 49 49 49 48 49 49 48 50 50 51 51 50
53 55 54 50 52 54 54 53 51 49 48 47 48 50 51 51 50 51 51 50 50 48 46 46 46 47 50 53 54 55 51 55 53 46 47 47 46 45 47 49 51 52 52 51 50 49 51 51 50 51 51 52 51 51

GFSWCAN_sfc_temp_096.txt.gz
Temp
55 56 56 56 56 56 56 56 57 57 57 58 58 59 59 58 57 52 54 54 54 50 53 57 60 54 51 48 46 49 48 48 43 39 37 34 33 35 38 44 43 41 36 36 36 34 37 55 57 52 51 50 54 55
55 55 56 56 56 56 56 56 56 57 57 58 58 58 58 57 57 56 54 56 54 54 56 56 59 61 61 60 51 44 47 45 45 39 37 36 34 36 35 34 47 39 42 39 40 40 50 54 53 54 55 52 52 53
55 55 55 55 55 56 56 56 56 57 57 57 58 58 58 57 57 55 50 50 53 52 55 56 57 62 62 59 59 52 47 49 45 45 40 38 38 35 30 34 40 47 46 42 43 47 50 54 56 55 55 55 55 55
55 55 55 55 55 55 56 56 56 57 57 57 57 57 57 57 57 56 52 50 52 50 49 53 62 56 62 60 61 57 54 50 47 45 40 38 38 40 36 39 40 43 45 42 43 48 52 55 54 55 54 55 56 57
54 54 55 55 55 55 56 56 56 56 57 57 57 57 57 57 56 51 48 50 51 54 48 49 55 57 56 59 59 57 53 50 47 46 42 39 39 40 39 40 39 42 43 41 41 46 47 49 54 56 56 55 55 55
54 54 54 54 55 55 55 56 56 56 56 57 57 57 57 56 55 54 51 52 52 51 51 47 52 53 57 57 57 54 50 46 44 43 40 40 42 40 32 30 43 45 46 46 46 48 49 52 54 56 56 56 56 56
54 54 54 54 55 55 55 55 56 56 56 56 56 56 56 55 49 53 52 54 51 52 50 46 47 55 57 52 50 50 47 45 45 40 39 39 39 39 34 32 45 46 47 48 50 50 50 52 51 55 56 57 56 56
54 54 54 54 55 55 55 55 56 56 56 56 56 56 55 55 53 54 54 53 52 52 51 45 46 49 52 49 47 45 45 44 43 40 39 38 36 39 32 40 43 46 48 49 50 51 50 51 53 54 55 55 55 54
54 54 54 54 54 55 55 55 56 56 56 56 56 55 52 53 51 53 59 57 52 54 47 45 43 42 51 46 45 45 43 41 42 39 39 39 36 29 39 42 44 47 48 48 49 50 51 49 48 50 52 54 54 53
54 54 54 54 54 55 55 56 56 55 55 54 52 53 50 52 60 59 54 51 50 49 48 45 45 45 49 43 43 43 41 38 37 39 40 36 34 39 42 44 47 49 50 49 46 45 46 46 47 48 48 50 51 52
54 54 54 54 55 55 55 55 55 54 55 51 50 50 52 57 53 50 47 46 46 45 46 46 47 46 49 48 48 43 39 38 34 38 38 34 34 41 47 45 46 47 49 50 50 50 51 50 49 49 50 51 51 51
54 53 54 55 55 55 55 54 54 50 49 50 51 50 50 50 47 45 44 45 45 45 46 47 48 48 47 46 45 42 40 39 36 41 37 30 39 44 47 48 49 48 49 51 51 51 51 52 51 50 50 50 51 51
54 54 54 55 55 55 55 54 54 54 50 49 51 49 48 47 39 42 41 42 42 46 47 47 47 47 45 46 42 42 41 38 42 38 33 38 43 45 46 48 50 51 52 52 53 53 52 52 52 51 50 51 51 50
53 53 54 55 55 55 56 55 55 52 49 48 47 36 44 41 43 44 45 46 50 49 48 48 45 46 43 45 42 42 40 42 37 33 37 41 43 46 47 48 50 50 51 51 52 52 51 51 50 50 50 50 50 49
53 53 54 55 55 56 55 55 55 49 50 48 48 39 44 48 48 49 50 49 50 50 49 48 46 46 43 44 42 42 39 38 39 39 41 44 46 45 46 47 48 48 48 49 48 48 49 49 48 47 47 47 47 47
53 54 55 55 55 55 54 52 50 50 49 47 46 46 47 46 47 48 49 49 49 48 49 49 44 44 45 44 43 42 41 38 43 43 46 45 45 45 45 47 48 48 47 47 48 48 47 47 47 46 46 45 45 46
53 52 54 55 54 54 54 50 50 50 49 48 45 47 48 48 47 49 50 50 50 54 48 47 45 46 44 42 41 43 42 46 47 47 46 45 47 45 46 47 47 47 47 47 46 46 46 46 45 45 44 44 44 44
52 52 54 53 52 52 50 48 48 49 47 48 45 46 47 50 49 50 53 50 51 50 53 52 52 45 44 43 42 45 45 46 46 47 47 46 46 46 48 47 47 47 46 46 46 46 46 45 45 44 43 43 44 44
53 52 53 53 51 48 47 48 48 45 47 47 48 47 49 51 50 51 50 50 51 50 51 53 51 43 45 46 48 50 50 47 50 48 46 46 46 47 47 47 47 46 45 45 45 45 46 45 45 43 43 43 44 44
53 53 54 54 53 48 47 46 50 46 45 48 47 47 48 50 50 49 50 50 50 50 48 48 47 48 48 50 50 54 54 50 48 47 47 47 46 47 48 48 48 47 45 45 46 45 44 44 45 44 44 43 44 45
52 54 54 52 47 47 45 44 46 48 48 47 48 48 50 49 50 49 49 48 49 48 47 48 50 57 51 50 50 51 50 50 49 51 50 46 47 50 48 50 49 47 46 45 47 46 45 46 47 45 45 45 46 46
52 54 52 50 48 49 44 46 45 47 47 48 47 49 49 49 48 49 48 48 48 50 50 50 50 50 51 52 52 51 53 51 52 50 48 50 44 48 50 50 50 47 47 48 48 48 47 48 47 46 45 46 45 46
53 52 50 50 49 45 43 48 47 48 46 48 48 48 48 46 47 48 47 47 49 49 50 51 52 53 52 53 53 53 54 52 50 50 50 51 54 54 53 52 52 51 48 47 50 49 49 46 46 47 47 47 47 46
52 51 48 44 43 39 47 46 48 48 48 47 46 47 47 46 47 46 46 47 48 50 49 51 51 50 51 52 51 51 51 51 50 49 50 52 51 50 54 53 54 55 54 53 50 49 49 48 46 47 48 48 48 47
44 44 43 36 47 47 44 47 48 48 47 47 46 47 47 47 45 45 45 47 48 49 50 51 51 51 50 50 52 52 52 51 49 48 49 54 53 51 50 50 52 52 52 50 48 50 49 48 48 48 49 48 48 48
37 43 39 43 43 43 45 45 48 49 50 48 47 47 47 46 45 45 46 49 51 51 52 51 51 51 51 52 51 52 52 53 53 52 49 54 56 55 52 49 48 49 51 55 53 52 50 50 49 49 49 49 44 49
39 41 46 46 46 46 45 48 49 51 48 49 48 47 46 43 47 49 50 51 51 52 53 53 52 54 52 52 53 55 52 51 52 51 52 52 51 52 56 53 51 52 52 55 55 55 53 52 52 52 51 51 51 50
44 43 41 45 44 50 48 48 49 50 51 49 49 49 49 48 48 48 50 52 53 52 52 52 52 53 52 51 52 52 50 50 50 51 51 51 53 54 55 53 52 47 53 56 56 55 55 54 53 53 51 51 51 51
42 44 44 43 46 46 47 48 49 50 50 49 49 49 49 50 50 51 52 52 50 50 49 48 49 48 49 50 52 53 54 55 51 47 47 48 48 51 49 50 50 50 51 53 46 50 54 54 54 54 53 53 53 52
42 44 43 45 45 46 50 52 52 56 57 56 53 51 50 50 51 52 50 49 48 48 47 47 49 50 49 51 50 50 54 57 55 52 50 48 50 52 51 50 50 49 49 50 50 49 44 49 47 51 51 51 52 51
48 44 44 46 47 50 55 58 57 55 53 51 51 49 49 50 52 52 50 49 48 48 48 48 50 50 51 50 51 50 50 51 53 55 53 53 51 52 52 51 50 49 50 51 51 52 51 51 51 52 52 51 52 50
45 46 46 45 48 54 57 56 53 50 49 49 48 49 50 49 49 50 51 51 50 48 47 47 49 48 50 52 52 53 48 54 53 53 53 52 52 52 53 52 51 51 51 52 52 52 53 52 51 52 52 52 52 53
48 48 49 49 50 52 51 51 49 48 47 47 48 49 50 52 51 52 51 50 51 50 48 48 48 48 50 52 53 52 49 54 52 45 45 46 46 47 50 49 51 53 53 52 52 52 52 52 52 52 52 52 52 53

GFSWCAN_sfc_temp_099.txt.gz
Temp
55 56 55 56 56 56 56 57 57 57 59 58 58 59 59 58 58 58 65 63 64 65 67 67 68 64 62 63 61 61 61 61 61 53 53 50 48 48 49 52 51 50 50 51 50 48 45 62 64 57 57 63 63 62
56 55 55 55 56 56 56 56 56 57 57 57 58 58 58 58 57 57 66 64 62 66 67 66 70 71 70 70 67 59 61 58 61 54 52 52 48 49 47 45 54 48 52 49 53 52 58 61 59 62 61 60 61 61
55 55 55 55 55 55 56 56 56 57 57 57 58 58 58 57 57 57 63 61 64 66 68 71 69 72 74 70 71 64 61 60 58 59 59 54 49 51 47 48 51 54 54 54 53 56 58 60 63 61 61 62 61 63
55 55 55 55 55 55 56 56 56 56 57 57 58 58 57 57 57 57 64 61 64 64 64 66 71 69 71 72 69 68 64 61 60 60 58 57 54 52 52 52 53 56 55 52 53 55 59 60 61 59 60 62 62 62
54 54 55 55 55 55 56 56 56 56 57 57 57 57 57 57 56 58 62 62 63 65 63 65 67 69 70 69 68 67 66 63 62 60 57 53 54 54 55 54 54 57 54 55 54 55 57 57 60 62 61 62 63 61
54 54 54 54 55 55 55 55 56 56 56 57 57 57 57 56 55 63 64 64 64 64 65 61 66 66 68 68 66 63 62 60 61 59 54 54 51 53 50 49 54 54 55 57 57 59 59 61 62 63 62 62 63 62
54 54 54 55 55 55 55 55 55 56 56 56 56 56 56 55 59 63 63 63 57 63 63 60 61 66 66 66 64 64 62 59 61 56 52 55 53 53 49 46 57 57 57 59 61 61 59 61 59 63 63 63 62 64
54 54 54 55 55 55 55 55 55 56 56 56 56 56 55 55 56 63 66 56 59 65 64 58 59 61 65 63 61 60 61 61 56 54 54 52 51 49 42 54 55 57 58 59 61 62 63 63 63 62 64 64 64 63
54 54 54 54 54 55 55 55 55 56 56 56 55 55 60 62 63 64 59 59 64 64 58 58 56 53 64 59 60 59 59 54 55 54 52 52 42 37 54 54 55 57 59 59 61 61 62 61 60 61 62 63 63 62
54 54 54 54 54 54 55 55 56 56 55 55 57 61 59 62 61 61 63 62 63 62 60 59 60 58 63 57 57 58 57 51 49 52 53 50 48 54 55 57 60 59 61 61 59 58 60 60 60 60 59 61 62 62
54 54 54 54 54 55 55 55 55 54 55 59 59 59 61 58 64 61 57 56 58 56 58 61 60 59 62 59 56 57 52 51 47 50 51 49 49 56 58 57 58 60 61 62 63 63 63 62 61 61 60 61 61 62
54 54 54 54 55 55 55 54 54 56 58 57 58 57 61 61 57 54 53 54 54 55 56 58 59 62 59 61 59 55 52 50 46 54 49 44 56 57 58 59 59 59 60 61 61 61 62 62 63 62 61 62 62 61
54 54 54 54 55 55 55 54 54 54 53 57 59 57 57 54 43 48 47 50 51 57 57 58 57 61 57 61 56 56 50 50 54 48 46 54 59 58 58 61 61 61 61 61 61 62 62 62 61 61 61 61 61 61
53 53 53 54 55 55 55 55 55 54 57 57 54 36 51 48 51 54 56 59 62 61 60 62 57 61 59 58 56 52 52 53 47 44 48 58 58 60 59 60 61 60 61 62 61 62 61 60 59 59 60 60 60 59
53 53 53 54 55 55 55 55 55 56 57 55 55 43 50 58 57 59 60 60 61 63 62 60 58 61 58 54 56 52 47 46 49 50 58 63 61 59 59 59 61 61 61 61 61 61 60 59 58 57 57 57 57 57
53 53 54 55 55 55 55 54 54 57 56 55 54 53 57 55 57 57 59 60 61 61 62 64 57 56 56 57 51 51 50 48 55 58 63 62 59 58 58 59 60 62 61 61 61 60 59 58 57 57 56 56 55 55
52 55 54 54 54 54 54 56 57 55 56 53 54 58 58 57 56 59 59 62 62 63 61 60 55 54 55 54 51 56 54 61 64 64 63 59 59 59 58 59 59 59 59 59 59 58 58 57 57 57 54 54 55 55
52 55 54 54 54 55 56 56 56 55 52 56 54 59 57 60 56 60 60 58 60 61 58 58 56 54 54 52 54 60 61 64 63 63 63 59 57 57 58 58 58 58 58 58 58 57 55 55 55 56 54 53 54 54
52 54 54 53 54 54 54 55 56 52 55 57 58 58 58 60 60 61 62 61 59 62 63 59 55 54 59 61 62 65 64 62 65 63 61 59 58 57 57 59 58 58 57 57 57 58 58 57 59 57 55 55 56 57
52 53 53 54 54 54 52 55 57 53 54 58 57 57 58 60 61 60 60 60 59 61 58 58 61 64 64 67 66 67 68 66 57 57 61 59 56 55 56 58 60 59 59 59 58 53 56 56 57 57 58 57 57 57
52 53 53 54 54 54 54 54 54 56 58 56 59 58 59 59 59 60 61 60 57 58 59 63 66 69 67 63 61 62 62 62 59 61 60 55 52 53 53 57 58 60 59 57 57 56 53 58 59 58 57 57 58 60
53 53 52 52 51 52 51 55 55 57 55 57 55 57 57 57 59 60 58 56 59 64 64 66 64 61 61 62 62 61 60 60 59 57 51 52 48 50 52 56 55 55 58 59 59 58 57 60 61 59 59 59 54 58
51 52 51 52 50 46 47 57 52 56 52 56 55 54 55 56 58 57 57 60 62 61 61 61 61 61 60 62 61 61 61 59 57 56 57 57 59 52 49 52 57 56 55 56 58 59 59 54 54 59 61 59 60 58
52 51 48 48 46 43 54 52 55 54 54 53 53 53 55 55 55 55 55 60 60 59 58 59 60 59 60 60 59 59 60 59 59 57 55 52 52 53 56 55 56 58 58 58 58 58 59 58 55 59 60 60 60 60
44 44 45 36 50 47 49 51 52 52 51 54 52 54 54 53 52 52 54 57 57 59 59 59 60 59 59 60 59 60 61 60 59 58 57 59 59 55 55 56 55 58 57 56 56 58 58 61 61 61 61 61 61 60
38 47 42 49 50 49 49 49 51 52 54 52 52 54 54 52 51 52 55 58 58 60 60 60 59 56 56 59 58 59 62 62 59 59 55 59 58 54 49 47 48 52 58 61 61 60 61 62 62 61 61 60 48 59
39 46 52 55 54 54 53 55 54 53 52 53 55 52 51 48 51 56 57 59 60 60 60 60 59 58 57 56 59 60 57 58 59 59 53 51 51 52 52 54 58 63 63 64 65 65 64 63 63 63 63 64 63 62
49 50 47 52 52 53 50 54 53 53 56 56 55 54 53 54 56 58 58 59 59 59 59 58 58 57 56 56 58 57 54 52 52 52 52 53 54 58 62 65 65 48 64 66 66 66 66 66 65 65 64 63 64 64
45 52 52 48 52 53 53 53 56 56 58 58 56 56 58 59 59 58 58 59 58 59 60 58 58 59 59 58 59 59 57 57 53 50 53 55 56 61 63 64 64 63 65 65 48 57 64 66 66 66 66 65 65 65
46 53 50 50 50 50 57 60 57 63 64 64 63 61 59 57 58 59 58 58 57 58 56 56 59 61 61 60 58 57 61 63 63 61 58 59 61 66 65 65 65 64 64 65 64 61 44 57 52 63 62 63 62 62
52 52 50 52 52 57 61 63 63 63 63 60 59 58 58 59 61 59 59 59 59 60 60 60 61 62 61 61 60 59 59 63 63 63 64 66 67 65 66 65 66 64 64 64 64 64 63 61 63 63 62 62 61 60
52 50 51 49 52 59 61 60 61 60 57 56 56 58 59 57 56 58 61 61 63 62 53 58 61 62 63 65 64 65 49 68 64 65 64 64 64 65 65 66 66 66 64 65 65 65 64 64 64 63 64 63 63 62
53 54 53 53 54 55 57 58 56 55 58 56 55 57 57 57 51 61 63 63 64 64 63 63 63 64 62 63 64 65 54 67 59 48 48 49 50 55 65 66 64 64 64 64 65 65 64 63 63 62 63 63 63 63

GFSWCAN_sfc_temp_102.txt.gz
Temp
55 56 56 56 56 56 56 57 57 57 58 59 59 59 59 59 58 64 77 75 74 78 75 77 76 73 73 75 68 70 70 70 72 63 63 63 58 58 57 61 60 59 57 57 60 55 50 67 70 62 64 70 72 67
55 56 56 56 56 56 56 56 56 57 57 58 58 59 58 58 58 58 77 78 77 76 76 80 79 80 78 77 74 74 69 68 72 68 66 66 56 61 58 50 63 54 61 57 59 56 65 68 66 69 70 67 70 68
55 55 56 56 56 56 56 56 56 57 57 58 58 59 58 58 58 58 76 75 77 78 77 78 76 79 85 82 84 71 75 71 71 71 73 69 56 65 55 58 60 61 60 60 60 63 65 67 71 71 70 70 71 70
55 55 55 55 55 56 56 56 56 56 57 58 58 58 58 58 57 56 76 76 76 79 72 73 82 77 81 83 80 79 75 75 75 75 71 69 64 65 64 61 62 66 63 61 59 63 66 68 68 69 69 70 68 70
54 54 55 55 55 55 56 56 56 56 57 57 58 58 58 58 56 64 77 78 78 73 72 74 79 79 81 79 77 78 77 74 74 69 68 67 69 65 69 67 64 69 64 61 56 65 65 64 67 70 69 68 69 67
54 54 54 55 55 55 55 56 56 56 56 57 57 57 57 57 57 72 71 77 80 79 74 68 77 74 77 77 75 73 75 75 75 72 70 69 63 63 61 57 64 65 65 66 64 68 68 68 69 70 68 69 69 69
54 54 55 55 55 55 55 55 56 56 56 57 57 57 56 56 66 71 70 70 62 76 74 69 69 74 76 76 78 77 75 74 73 71 67 69 65 63 62 53 64 65 66 66 69 68 65 68 67 70 70 69 66 70
54 55 55 55 55 55 55 55 55 56 56 57 56 56 56 56 58 69 75 61 65 76 76 67 67 68 76 72 70 76 74 73 69 69 67 65 64 63 47 63 66 66 67 66 67 70 71 70 70 70 72 72 70 69
54 55 55 55 55 55 55 55 55 56 56 56 56 56 65 67 71 74 59 59 75 73 69 69 65 63 74 73 74 71 72 67 69 65 64 63 52 40 59 63 64 65 65 66 68 68 69 67 67 68 69 69 70 69
54 54 54 54 54 54 55 55 55 56 56 55 61 67 65 71 60 62 68 68 70 72 72 67 77 66 72 69 68 68 70 67 60 64 65 58 55 65 65 67 68 68 68 70 65 63 65 66 66 67 67 69 70 70
54 54 53 54 55 54 55 55 55 55 54 65 66 66 69 59 71 70 64 64 67 63 70 71 71 67 74 65 67 69 66 66 54 60 60 60 58 65 68 66 68 69 69 70 70 70 70 69 68 67 67 67 68 68
54 54 54 54 55 55 55 55 54 59 68 62 65 67 71 67 66 60 61 64 62 61 67 66 68 74 69 74 68 65 62 62 53 66 59 51 65 67 67 67 67 69 69 69 70 68 69 69 69 68 68 68 69 68
54 54 54 54 54 55 55 55 55 55 55 66 66 63 65 62 47 53 52 58 61 67 67 67 64 69 67 71 68 64 56 58 67 58 53 61 67 68 67 69 69 70 70 70 69 70 70 70 69 69 68 68 68 68
53 53 53 53 54 55 55 55 55 56 56 59 60 39 56 55 59 63 64 68 71 72 70 71 67 68 71 65 68 57 63 63 55 51 55 68 68 69 69 70 70 68 69 69 69 69 68 68 67 68 68 68 67 66
53 53 53 54 55 55 56 55 55 59 61 60 62 47 58 67 70 71 72 70 70 74 72 70 69 71 66 62 65 62 54 52 56 58 68 73 71 70 69 69 70 70 70 70 71 70 69 68 67 66 66 67 66 64
53 53 54 54 54 54 55 56 62 65 65 62 61 59 66 64 66 68 68 69 73 73 74 73 66 63 61 65 58 56 55 54 64 69 74 73 68 69 68 69 70 72 71 71 71 69 68 67 66 66 66 65 65 64
52 60 55 54 54 55 55 61 62 60 61 60 61 68 67 66 67 71 72 72 74 71 67 69 60 59 68 61 58 65 61 68 74 76 78 73 69 68 68 69 70 70 69 70 69 68 67 67 67 65 62 62 65 64
52 56 54 54 57 57 63 62 62 61 56 63 61 67 68 69 69 71 70 71 70 70 71 66 72 61 60 58 62 69 71 74 76 75 76 74 68 68 69 68 67 67 67 68 67 67 65 64 63 64 63 62 62 61
54 53 54 54 57 61 59 60 62 57 61 66 67 69 68 69 72 72 73 70 72 75 73 69 63 63 65 70 70 72 73 74 73 74 75 70 68 67 66 68 67 66 64 64 64 66 66 65 67 67 66 64 64 64
52 52 53 54 55 60 56 61 65 60 60 67 68 66 67 68 73 70 65 70 69 68 64 64 66 71 72 75 77 76 76 75 71 70 73 74 70 63 63 64 64 63 63 64 66 59 65 65 67 67 67 65 65 63
52 54 53 54 56 60 60 60 61 65 66 64 70 68 67 69 67 68 68 69 64 65 65 71 73 76 78 78 76 74 73 73 72 73 72 69 66 64 60 63 62 55 56 60 62 60 59 63 63 67 65 64 66 67
52 53 51 52 52 56 58 65 63 67 63 66 66 67 65 64 65 68 72 65 65 69 72 74 75 76 74 71 73 72 71 69 70 69 54 58 68 66 65 56 54 54 57 61 62 62 63 64 65 66 66 65 60 66
51 52 52 52 50 48 52 66 58 62 58 62 65 60 62 64 68 69 64 68 71 76 75 74 72 70 69 71 70 70 70 68 70 71 70 70 72 68 63 59 52 50 50 53 57 62 62 59 61 65 65 65 66 66
50 50 48 48 50 49 61 56 60 59 61 59 59 57 61 64 65 63 62 68 73 73 70 67 70 71 72 69 69 70 71 72 70 71 70 68 63 55 54 51 51 55 57 54 56 59 63 64 58 64 65 66 67 67
43 45 49 40 57 52 54 56 58 58 55 59 57 58 60 60 56 58 60 69 70 70 70 71 71 70 69 70 71 72 72 71 70 69 71 68 66 63 54 52 50 50 53 55 57 61 64 66 67 67 67 67 66 66
39 52 45 55 56 55 54 53 55 56 58 56 58 62 61 58 56 54 61 65 67 71 71 71 69 68 68 70 69 70 68 72 69 68 69 69 66 56 47 47 47 52 61 61 63 65 66 68 68 67 67 65 51 65
41 51 58 64 62 60 58 59 59 57 54 54 57 58 57 54 54 60 65 70 71 72 72 71 69 68 67 68 67 64 65 68 67 68 69 67 55 54 55 53 55 56 61 68 69 70 69 69 69 69 69 69 69 68
56 56 52 57 58 59 54 57 56 55 59 64 61 56 55 57 57 62 64 71 71 72 71 71 71 69 68 68 62 59 63 67 64 62 58 55 57 60 63 63 63 51 71 72 72 73 73 72 71 70 70 69 70 71
54 60 59 54 57 55 57 57 60 65 68 68 59 59 62 68 70 70 70 71 72 70 70 70 70 72 69 67 63 63 61 62 59 55 56 58 59 63 71 72 72 72 72 72 50 59 71 72 73 73 72 71 72 72
54 61 56 56 55 55 62 66 61 69 72 70 70 69 70 69 67 67 70 71 70 69 69 70 71 72 70 69 67 67 71 73 75 72 66 62 64 68 72 71 72 73 73 73 72 70 47 64 61 72 70 71 71 70
62 59 56 58 57 62 66 70 71 71 70 69 70 65 67 69 69 72 71 71 70 70 71 72 71 72 72 71 70 69 68 72 71 70 72 75 76 73 73 73 74 74 73 73 73 72 70 69 71 70 69 69 69 66
54 53 54 54 58 65 67 65 65 65 66 61 63 66 66 62 62 69 71 68 70 74 57 67 74 72 75 76 76 75 48 75 75 74 70 73 74 73 73 74 74 74 73 72 73 73 71 70 70 70 70 69 69 68
58 59 59 58 59 59 64 63 63 62 64 62 61 60 63 65 61 70 72 74 73 74 73 73 75 75 71 71 73 74 57 74 63 47 48 49 50 59 72 75 74 73 71 72 72 72 70 69 69 68 69 69 69 69

GFSWCAN_sfc_temp_105.txt.gz
Temp
56 56 56 56 57 56 57 57 57 57 58 58 60 59 60 59 59 64 84 84 79 81 81 83 82 77 80 78 72 75 75 76 75 66 67 64 63 64 62 67 57 42 45 59 63 50 43 72 73 63 67 75 76 73
56 56 56 56 56 56 56 56 57 57 57 58 59 59 59 59 58 59 79 87 84 80 82 87 86 86 83 81 78 79 74 73 76 71 71 69 64 65 62 55 70 59 66 55 52 54 69 73 71 74 76 73 75 73
55 55 55 56 56 56 56 56 57 57 57 58 58 59 59 58 58 59 78 83 84 82 82 82 80 86 92 89 90 74 81 78 76 79 74 74 61 70 59 62 66 68 70 66 65 67 69 71 75 75 76 76 76 75
55 55 55 55 55 56 56 56 56 57 57 57 58 58 59 58 58 57 77 85 81 82 76 79 89 83 88 89 85 85 82 82 81 79 74 72 67 73 67 67 66 67 69 65 61 66 70 71 72 74 74 73 74 73
55 55 55 55 55 56 56 56 56 56 57 57 58 58 58 58 57 63 80 85 84 77 75 79 85 86 88 85 82 83 82 78 77 73 72 70 75 70 71 70 68 75 68 58 60 67 68 68 72 75 73 72 69 67
54 54 55 55 55 55 56 56 56 56 56 57 58 58 58 57 58 74 74 84 87 85 76 73 83 80 83 82 80 78 80 79 78 76 76 76 72 69 65 62 70 72 72 73 70 73 73 73 74 75 73 74 74 70
54 55 55 55 56 56 56 56 56 56 56 57 57 57 57 57 65 72 70 72 62 81 76 73 75 80 82 81 81 81 79 81 76 77 72 74 71 68 65 57 69 71 72 72 75 74 69 73 72 75 74 74 72 75
55 55 55 55 55 56 56 56 56 56 56 57 57 57 56 56 58 70 78 61 66 79 80 70 72 73 81 74 68 80 76 78 74 75 74 69 71 69 55 67 71 72 72 72 73 76 77 76 74 74 76 75 73 73
55 55 55 55 55 55 55 56 56 56 56 57 56 56 65 67 74 77 63 62 80 76 72 73 69 62 80 76 77 76 78 69 75 70 70 70 58 44 62 67 69 70 69 71 73 74 74 73 72 73 74 74 74 73
54 54 54 54 55 55 55 55 56 56 56 56 61 68 67 76 60 64 73 72 73 76 76 71 80 69 77 75 70 73 75 70 63 70 72 64 59 67 70 72 72 72 73 75 70 67 69 70 70 71 72 74 75 76
55 54 54 54 55 54 56 56 56 56 53 65 67 69 73 60 75 73 67 67 70 67 74 74 76 72 81 70 66 76 70 71 59 65 65 64 63 69 73 71 73 74 74 74 75 74 74 74 71 71 71 72 73 73
55 55 54 54 55 55 56 55 56 60 70 62 64 72 75 71 69 64 64 68 67 64 75 72 75 78 75 80 72 71 66 67 58 71 64 56 69 71 72 72 72 73 74 74 75 73 73 73 73 73 72 72 73 72
54 54 54 54 54 55 56 56 56 56 56 70 67 64 67 67 49 56 56 63 64 72 75 75 71 76 73 75 73 69 60 62 73 63 58 64 69 72 72 73 73 74 75 74 73 74 74 73 73 73 72 73 73 72
54 54 53 54 54 55 56 56 56 58 63 63 60 43 58 58 62 65 68 70 76 77 75 75 73 71 75 69 71 61 69 70 59 56 59 72 69 72 73 74 74 72 74 74 73 73 72 72 72 72 72 73 72 71
53 53 53 54 55 55 56 56 56 61 63 61 60 49 61 69 74 76 78 78 77 81 77 74 74 75 70 66 69 67 59 56 61 62 72 75 72 73 72 74 74 74 74 74 74 74 73 73 72 72 72 72 72 71
53 52 53 54 54 54 54 56 60 62 64 60 64 63 70 70 70 73 73 73 80 79 79 77 69 67 65 68 62 60 59 58 68 73 79 75 73 74 73 75 75 76 75 75 75 74 74 73 72 72 72 71 70 69
51 58 54 53 53 53 54 57 64 62 62 61 64 71 70 68 71 74 77 76 81 76 70 70 62 63 72 66 63 69 65 71 78 78 79 75 74 73 74 75 76 76 75 75 74 74 73 74 73 69 66 68 70 68
53 54 54 53 53 55 59 60 61 62 59 65 63 68 72 73 72 74 79 68 70 74 72 68 70 65 63 62 65 72 75 80 80 79 79 78 75 74 76 74 75 75 75 74 74 73 72 70 67 66 66 68 67 67
54 53 54 54 56 60 61 61 64 58 63 66 68 72 73 73 76 77 78 77 77 74 72 63 61 64 69 73 73 74 75 77 73 76 65 74 76 74 73 75 75 74 72 71 70 68 68 68 67 68 70 69 68 68
52 53 53 54 55 61 59 63 69 62 61 67 71 69 71 72 76 76 76 76 74 73 68 64 65 70 72 73 77 79 80 79 70 71 76 80 81 74 73 75 75 71 66 66 64 59 64 63 67 68 71 69 69 68
51 54 53 55 60 61 63 64 63 66 67 67 72 71 71 74 72 72 72 76 72 69 67 72 74 79 72 77 80 78 78 78 77 77 76 76 81 82 78 74 74 72 70 67 63 55 56 62 64 68 69 69 70 70
52 54 52 52 52 60 61 68 65 66 67 66 65 68 65 66 70 72 76 72 69 72 74 75 76 73 70 76 78 78 77 75 75 75 62 65 74 76 74 74 74 71 70 63 58 53 56 64 67 68 70 70 64 70
52 53 52 52 48 47 48 68 59 64 60 65 69 65 66 68 72 78 70 72 74 78 78 79 77 76 74 76 76 75 75 74 73 75 74 75 73 73 76 76 73 65 59 56 52 51 54 58 61 68 69 69 69 69
51 50 48 47 49 48 62 56 63 62 61 63 63 60 64 66 71 67 63 69 75 79 78 73 75 74 76 73 74 77 74 76 77 78 78 76 70 71 71 67 55 52 52 51 52 55 59 64 61 67 68 68 69 69
44 45 46 41 56 55 57 58 60 60 58 61 60 61 62 69 59 62 63 68 72 76 77 76 75 75 74 72 74 76 74 75 74 74 76 79 72 68 64 62 58 52 52 50 51 56 55 63 66 68 69 70 69 69
41 54 46 58 58 58 61 54 58 60 62 57 58 66 70 62 58 55 57 67 72 73 74 74 72 72 74 75 73 72 71 75 74 73 74 77 71 66 62 51 49 48 52 53 55 57 59 64 67 69 70 68 54 68
44 55 63 68 61 61 58 63 64 65 57 56 59 58 59 54 53 51 61 68 71 76 78 77 76 75 73 73 75 74 72 72 70 71 74 74 72 71 66 61 58 54 57 59 61 62 64 66 69 71 71 72 72 70
60 60 56 61 63 67 56 56 57 57 62 64 64 56 57 57 54 62 59 73 78 79 78 79 79 77 75 74 74 73 70 71 71 71 69 67 66 64 65 67 61 49 61 65 68 68 72 73 72 72 72 72 72 73
58 64 65 59 60 58 60 60 60 63 71 66 60 54 58 70 74 75 73 77 79 77 76 78 76 78 75 71 70 71 70 68 65 62 62 63 63 62 68 69 61 60 65 67 55 54 71 72 74 75 74 74 74 75
60 67 61 61 60 56 62 66 66 69 71 70 72 72 70 68 75 78 78 76 75 75 76 77 78 76 75 74 72 72 76 79 78 71 64 62 65 69 68 62 65 68 71 74 74 74 50 65 63 74 72 74 73 71
63 63 61 62 62 67 70 70 71 73 70 72 74 72 68 70 74 76 77 77 78 78 77 77 76 78 78 77 76 74 74 78 75 74 74 78 76 71 70 74 76 76 77 76 77 75 74 70 72 72 72 71 70 68
60 57 56 55 62 70 72 70 70 70 70 69 69 69 67 64 61 71 77 78 75 77 62 69 79 79 79 80 81 79 45 78 78 78 74 76 78 74 71 75 78 78 77 76 76 76 74 71 72 71 72 71 71 71
56 58 58 56 60 62 68 67 66 65 67 62 60 64 67 63 61 73 79 81 78 78 77 78 79 80 76 75 77 78 63 79 64 51 52 49 47 57 74 78 78 77 76 75 75 75 74 73 72 72 72 72 71 71

GFSWCAN_sfc_temp_111.txt.gz
Temp
57 57 57 57 57 57 57 57 57 58 57 58 58 59 59 59 59 57 62 68 67 65 70 77 81 71 70 68 60 65 64 65 62 55 54 53 48 48 44 48 46 45 44 43 46 42 40 59 62 53 53 57 61 61
56 57 57 57 57 57 57 56 57 57 57 58 58 59 59 59 59 58 59 73 73 66 69 79 82 83 79 77 68 67 64 64 63 55 54 57 52 46 48 45 52 46 50 45 49 46 53 57 55 58 58 61 60 57
56 56 57 57 56 56 56 56 57 57 57 57 58 58 59 59 59 58 59 64 67 66 69 73 75 81 85 83 83 63 66 69 65 67 59 57 53 57 48 50 54 53 55 51 49 53 55 56 59 59 66 61 62 60
55 56 56 56 56 56 56 57 57 57 57 57 58 58 58 58 58 58 59 66 65 67 62 70 85 78 84 84 82 78 73 73 70 65 59 57 54 62 55 57 56 57 53 53 51 53 57 59 65 67 65 64 62 61
55 55 55 55 55 56 56 56 56 56 57 57 58 58 58 58 57 58 61 66 69 63 60 65 77 83 83 80 79 78 73 68 64 60 58 57 60 59 58 57 55 62 57 54 49 54 56 60 67 68 65 62 62 60
54 54 55 55 55 55 56 56 56 56 56 57 57 58 58 58 57 60 61 67 68 68 63 60 71 76 79 78 76 73 70 67 65 61 61 63 66 59 52 52 60 62 63 63 58 62 61 65 69 69 65 65 64 61
55 55 55 55 56 56 56 56 56 56 56 57 57 57 57 57 57 60 61 64 58 62 64 61 63 75 79 76 73 70 72 67 66 62 60 62 59 55 52 47 60 62 63 66 66 64 61 66 63 68 68 68 65 64
55 55 55 56 56 56 56 56 56 56 57 57 57 57 56 56 55 58 67 61 60 65 66 58 62 67 77 67 64 71 66 66 64 62 63 59 58 57 48 58 62 65 65 66 68 68 67 68 69 68 68 67 64 61
55 55 55 55 55 56 56 56 56 56 56 57 57 56 58 57 61 65 64 60 66 64 58 61 59 56 72 68 68 67 67 59 65 59 60 60 47 39 53 57 60 63 62 63 67 68 69 67 68 67 67 69 64 62
56 56 55 55 55 55 55 56 56 56 56 57 56 59 58 66 62 66 67 63 62 64 64 60 68 61 69 66 63 62 64 59 54 59 62 56 52 58 60 61 62 65 66 67 62 61 63 62 64 65 65 67 66 66
55 55 55 55 55 55 55 56 55 56 55 59 59 61 65 62 67 65 59 58 59 57 61 63 65 61 68 61 60 65 59 59 53 57 57 54 53 59 62 62 63 66 66 67 66 66 66 65 63 64 65 65 65 63
55 55 55 54 54 55 55 55 55 56 61 55 55 57 65 63 60 58 56 60 59 56 63 62 64 65 62 68 63 63 59 59 53 63 57 49 57 60 62 64 65 66 67 68 70 67 67 68 66 64 63 64 64 62
54 54 54 54 54 54 54 55 55 55 56 62 58 57 57 57 43 52 52 56 55 63 65 65 62 64 66 68 63 61 57 55 65 57 53 56 59 62 62 63 65 67 69 69 69 69 69 68 68 66 63 65 64 62
53 53 53 53 53 53 54 55 55 56 56 55 55 39 51 52 56 57 60 61 66 67 67 68 65 63 66 62 63 58 61 62 56 52 54 60 60 61 62 64 64 65 67 67 67 67 66 65 65 66 65 64 64 63
53 53 53 53 54 54 53 54 55 58 57 56 56 43 54 61 64 67 68 65 68 71 69 66 64 62 62 61 62 61 58 55 56 55 60 62 61 61 61 63 64 64 65 65 65 65 64 65 63 63 64 64 64 63
53 52 53 54 54 53 53 54 56 59 60 59 58 55 62 61 62 65 66 66 69 64 65 66 62 54 56 62 59 58 58 55 59 62 64 63 61 61 62 63 64 65 64 65 65 64 64 63 62 62 65 65 63 63
52 55 54 54 54 53 53 52 53 55 58 58 58 64 62 61 62 65 66 62 63 57 51 58 59 59 62 59 58 62 59 62 65 66 67 63 62 62 63 64 65 65 64 64 64 63 64 64 64 62 59 60 62 61
52 56 54 54 54 54 53 52 52 50 50 56 55 59 62 65 64 65 65 63 62 58 54 53 65 60 59 59 59 63 65 66 66 66 68 65 65 65 67 65 66 66 65 65 65 65 64 64 61 61 60 59 60 58
52 53 54 54 54 52 51 51 51 46 53 59 62 64 64 64 65 66 63 61 62 62 59 54 53 57 60 63 63 65 64 65 66 65 67 67 67 67 67 68 68 67 66 66 64 67 67 66 65 64 63 61 60 60
52 53 53 54 54 51 50 50 54 49 53 60 61 61 62 63 65 66 63 60 55 55 53 55 57 61 64 64 66 66 66 62 61 59 60 61 66 67 66 67 69 68 69 67 67 61 64 62 65 64 64 61 60 58
51 54 53 54 55 53 52 52 50 55 61 59 63 62 60 63 62 62 63 60 55 52 56 58 59 61 62 64 68 65 62 60 55 55 53 53 57 65 66 69 69 69 62 63 63 57 58 61 62 60 54 53 52 52
52 54 51 52 50 52 54 60 58 60 59 60 59 55 56 58 60 63 67 63 61 62 64 65 62 63 64 63 65 67 64 60 56 55 53 55 57 64 68 67 63 61 60 59 58 56 52 54 54 52 52 51 51 55
52 52 51 50 47 45 46 61 55 59 53 57 59 52 54 57 62 66 60 64 65 67 68 70 66 64 66 67 67 65 65 63 62 62 63 66 68 63 59 58 59 59 59 57 57 53 51 49 50 52 51 51 55 56
51 49 47 46 46 43 55 52 58 56 57 56 57 55 59 61 66 59 57 62 66 69 68 67 70 69 69 68 67 65 65 65 62 61 61 61 62 59 57 57 58 61 59 57 55 52 53 53 49 52 53 56 57 58
42 43 44 37 49 46 49 52 54 54 53 56 55 55 57 60 55 58 59 64 62 59 60 61 67 69 69 66 65 63 61 59 57 57 57 58 58 59 63 64 62 62 62 58 53 53 54 54 53 55 57 59 59 60
37 46 40 48 50 48 53 54 55 55 55 51 53 51 54 53 49 52 59 59 57 56 58 58 57 54 56 61 60 59 61 61 56 57 57 58 60 65 59 56 53 54 60 58 55 55 54 55 56 58 59 59 53 62
41 44 50 53 55 58 59 62 58 57 53 50 54 53 55 52 54 56 62 62 59 54 57 58 58 61 65 64 64 66 68 68 67 66 67 67 68 67 65 60 57 57 60 59 58 58 57 58 59 61 62 63 64 63
50 55 53 57 59 63 57 58 58 56 56 59 60 55 54 53 50 60 65 63 61 61 59 61 62 71 69 69 70 69 69 69 69 68 67 67 67 67 66 64 63 49 59 60 60 61 62 61 61 62 63 63 64 66
57 63 62 57 59 60 59 59 61 55 52 56 54 55 55 55 55 59 62 64 65 70 71 71 70 71 71 70 70 71 71 71 67 62 62 61 62 63 66 61 59 60 60 59 48 57 61 62 62 63 62 63 66 66
58 65 60 61 57 56 62 68 66 67 64 68 70 58 54 53 55 58 59 60 66 71 72 72 73 73 71 70 70 70 73 74 73 69 64 63 65 68 66 63 62 63 64 62 60 60 48 54 57 61 62 62 61 62
65 64 62 62 61 66 70 73 74 73 72 66 66 58 55 56 58 61 60 66 74 74 73 72 74 75 73 72 70 67 69 73 73 72 72 72 72 68 67 66 64 64 63 64 62 62 62 60 61 61 62 61 63 62
63 61 61 59 62 69 71 69 70 68 69 67 66 59 59 54 52 55 66 74 72 71 66 69 72 72 74 76 75 73 58 75 73 73 73 71 70 70 69 69 70 68 65 65 65 66 65 64 63 63 63 64 63 64
60 61 61 61 60 61 67 67 66 65 62 61 62 65 64 62 59 64 72 76 74 75 74 74 76 75 74 75 74 73 63 75 66 55 55 56 56 58 67 71 71 70 69 67 67 67 67 67 66 65 66 66 65 65

GFSWCAN_sfc_temp_114.txt.gz
Temp
56 56 57 57 58 58 57 57 57 57 57 58 58 59 59 59 58 53 54 58 58 56 60 68 71 65 64 58 54 58 57 57 53 47 46 43 41 43 42 47 45 41 38 38 43 41 40 58 59 53 52 54 57 57
56 56 56 57 57 57 57 57 56 57 57 57 58 58 58 58 58 57 48 62 64 57 61 69 74 74 73 71 61 56 57 54 54 46 45 44 43 40 40 40 48 41 46 42 45 45 50 53 54 57 56 56 55 57
56 56 56 56 56 56 56 56 56 57 57 57 58 58 58 58 58 56 47 51 57 57 61 63 68 75 74 73 70 58 56 60 58 57 50 48 47 44 39 43 46 49 51 46 47 49 51 54 58 61 59 57 57 56
55 55 56 56 56 56 56 56 56 56 56 57 58 58 58 57 57 57 47 53 54 56 53 61 74 67 75 75 73 68 65 62 60 56 51 48 48 52 46 50 48 50 51 47 46 49 52 56 59 60 61 59 57 57
55 55 56 55 55 56 56 56 56 56 56 57 57 57 57 57 57 53 49 52 58 57 53 56 65 71 71 73 73 69 64 59 55 54 50 48 50 52 47 46 46 51 49 46 44 50 50 54 59 62 59 57 56 55
54 55 55 55 55 55 56 56 56 56 56 56 57 57 57 57 56 48 50 55 60 59 54 52 62 66 68 70 69 65 63 58 55 53 52 52 56 51 44 41 49 50 54 55 55 56 55 59 62 64 60 59 59 56
55 55 55 55 56 56 56 56 56 56 56 56 57 56 56 56 47 48 53 56 54 54 56 53 54 64 70 65 62 61 61 59 57 52 51 51 52 48 42 41 51 52 57 57 59 59 56 61 58 63 63 62 59 59
55 55 55 55 56 56 56 55 55 56 56 56 56 56 56 55 52 50 57 58 55 55 58 51 53 58 64 57 56 57 57 54 56 55 52 51 50 47 40 49 51 55 57 57 60 64 61 61 63 63 63 61 59 56
55 55 55 55 55 55 55 55 55 56 56 56 56 56 50 48 47 54 61 59 58 59 52 51 50 51 62 58 56 57 55 50 53 52 50 52 41 39 50 52 56 56 54 58 60 63 63 62 61 63 63 61 58 57
55 55 55 55 55 55 55 55 56 56 56 56 50 48 48 55 62 63 58 54 54 55 53 50 55 54 58 54 53 53 52 50 47 53 53 47 44 50 53 55 56 59 59 60 57 55 57 59 64 63 59 62 61 59
54 54 54 54 54 54 54 55 55 55 54 47 46 49 55 61 58 55 51 50 50 50 50 53 56 52 58 53 52 59 54 49 44 49 50 44 44 52 56 56 56 58 60 61 61 61 61 61 59 59 59 60 61 61
54 54 54 54 54 54 54 54 54 52 49 49 49 50 53 55 52 50 49 51 50 49 53 52 53 56 55 55 55 55 55 50 46 52 49 40 48 54 55 58 58 58 61 63 65 62 62 63 61 59 58 57 58 58
53 54 54 54 54 54 54 54 55 54 52 52 50 50 52 52 42 47 46 49 48 52 55 56 52 55 55 56 55 55 50 47 53 48 45 47 51 54 54 57 58 59 62 63 63 63 64 63 62 60 59 59 59 59
53 53 53 53 54 54 54 54 55 54 51 49 51 39 46 46 50 51 51 51 55 56 58 57 54 54 53 52 51 50 52 52 47 43 47 50 52 55 55 57 59 59 61 62 61 61 61 60 59 59 60 59 58 57
53 53 53 52 54 54 54 54 55 53 51 50 53 40 47 55 55 56 57 56 59 60 60 59 55 52 50 52 52 51 49 48 48 47 50 53 53 55 55 56 57 58 59 59 58 59 59 59 58 58 58 58 58 58
53 52 51 54 54 53 53 53 53 54 54 52 50 48 52 52 52 53 56 55 58 59 58 57 52 49 48 50 50 51 50 47 50 51 54 52 55 55 54 56 58 59 58 58 57 58 58 57 57 57 57 57 57 57
53 50 54 54 54 53 53 52 52 51 52 54 49 55 56 54 53 56 59 60 56 54 50 52 49 50 51 47 49 52 50 53 55 54 54 57 57 55 56 57 58 58 58 58 57 57 58 59 57 56 54 54 56 56
50 54 54 54 52 53 50 51 50 49 46 47 45 51 53 56 53 54 57 58 58 52 51 48 52 49 50 51 50 56 53 54 56 55 56 57 56 56 59 58 58 58 58 58 58 58 57 56 57 59 57 54 53 52
52 52 54 54 53 51 49 50 50 45 49 49 50 54 53 53 57 59 56 56 55 55 54 51 49 48 50 53 52 53 54 53 56 55 55 56 57 57 59 59 60 59 58 58 57 59 61 62 64 60 58 57 56 56
52 53 53 54 54 49 48 48 52 48 45 48 50 51 50 52 57 56 55 53 52 50 49 50 50 52 52 53 54 54 57 55 56 53 53 52 54 57 60 60 59 61 60 59 57 54 54 52 53 61 61 59 57 57
51 53 53 52 51 50 49 49 48 50 52 51 54 52 51 52 52 53 53 52 50 48 49 52 53 57 57 55 57 56 57 56 52 54 54 54 55 54 55 57 60 61 57 55 52 51 51 50 51 54 57 57 55 52
51 54 50 51 48 51 49 51 51 54 52 51 51 51 51 51 51 52 54 51 51 54 55 57 60 64 58 57 58 59 61 57 56 54 52 51 53 53 54 57 55 55 54 54 54 54 53 53 53 52 51 52 52 53
52 51 50 49 46 44 43 50 47 49 46 48 51 50 50 50 54 59 53 55 56 58 60 59 59 58 61 59 59 57 57 57 56 54 53 53 54 56 56 56 56 55 54 53 52 49 49 48 49 51 51 52 52 51
51 48 46 45 44 41 51 45 48 48 50 49 50 51 52 52 55 52 50 55 56 56 54 54 55 54 55 57 56 58 58 57 56 55 54 54 53 54 54 54 55 54 54 51 48 47 48 50 49 53 54 53 52 52
41 41 43 37 47 45 44 47 48 48 48 49 50 49 49 50 48 48 48 50 51 52 54 55 54 54 54 54 54 54 56 55 54 52 52 54 55 52 53 55 54 53 51 50 47 48 48 51 54 54 55 54 54 54
36 45 40 46 46 43 46 47 49 49 50 49 49 48 49 48 47 46 49 51 51 50 51 53 51 50 51 54 53 53 55 54 53 53 54 53 55 54 53 50 49 49 51 50 50 51 51 53 55 55 55 53 49 53
38 43 47 48 48 50 49 51 53 52 51 49 48 48 48 47 48 50 54 54 52 53 55 56 56 56 57 58 58 57 58 57 57 57 57 57 57 56 55 52 50 51 52 53 53 53 53 54 56 56 55 53 55 54
46 48 44 48 48 50 50 51 51 50 50 51 50 50 50 51 48 53 54 56 56 57 57 57 56 60 58 59 59 59 58 59 58 57 57 56 56 56 54 53 52 47 52 54 53 54 57 58 57 55 55 55 54 55
47 53 53 50 52 54 54 52 54 52 52 52 51 50 51 52 53 53 55 55 55 55 55 56 56 58 57 58 59 59 59 58 56 53 52 50 50 51 50 49 50 50 51 51 48 53 59 59 56 58 57 55 55 55
50 53 51 55 54 53 53 55 55 57 54 56 57 55 53 51 53 55 54 54 54 54 58 60 60 60 57 61 61 59 59 59 59 56 53 52 53 54 51 50 51 51 51 52 51 51 47 54 51 54 54 53 53 52
54 53 52 55 52 55 60 60 59 59 62 59 59 55 51 52 54 55 56 55 55 56 58 59 59 60 64 64 61 59 56 60 64 64 59 58 57 56 55 53 53 53 54 54 52 52 51 51 52 53 53 53 54 53
52 52 52 51 52 59 60 60 60 58 60 57 52 52 55 51 52 54 57 58 58 57 56 59 60 59 63 61 61 60 55 60 60 61 62 59 58 57 58 57 56 55 54 55 54 53 54 53 53 52 53 55 56 56
51 52 52 51 51 53 56 56 58 57 54 54 55 55 55 53 52 58 63 61 60 60 59 59 60 62 63 62 64 62 57 62 60 54 53 53 53 55 59 60 59 59 58 58 58 58 56 56 56 57 55 55 55 55

GFSWCAN_sfc_temp_117.txt.gz
Temp
56 56 56 56 57 57 57 57 57 57 57 57 58 58 58 59 58 52 51 55 55 51 55 64 69 61 62 58 54 58 57 56 50 45 44 42 40 42 40 43 41 41 39 37 38 36 38 56 57 52 52 55 58 56
56 56 56 56 56 56 57 57 57 56 57 57 58 58 58 58 58 55 47 57 58 52 56 64 71 73 72 69 59 53 56 52 52 44 42 42 42 40 40 39 44 40 45 42 43 42 50 52 53 55 55 55 56 55
56 55 55 56 56 56 56 57 56 56 57 57 58 58 58 58 57 55 46 47 51 51 55 58 66 72 68 71 69 58 53 57 52 53 47 44 44 42 39 40 43 46 48 44 45 48 50 53 58 58 59 57 55 55
55 55 55 55 56 56 56 56 56 56 56 57 57 58 58 58 57 57 46 48 50 50 48 56 71 65 71 71 69 67 63 56 55 53 48 46 46 48 43 46 46 48 49 45 45 48 51 55 56 57 56 56 55 55
55 55 55 55 55 55 56 56 56 56 56 56 57 57 57 57 56 54 48 48 51 51 48 52 62 67 67 69 69 66 62 56 52 51 47 46 46 48 43 44 43 49 47 44 44 51 51 53 55 58 56 54 54 53
54 55 55 55 55 55 55 56 56 56 56 56 56 57 57 56 56 47 47 49 52 54 50 48 60 63 63 66 66 63 59 54 52 51 49 48 51 48 42 42 50 51 51 51 52 52 53 56 59 60 56 56 55 53
55 55 55 55 55 55 56 56 55 55 55 56 56 56 56 55 48 47 50 51 51 51 52 50 51 61 65 61 59 59 57 54 55 49 48 49 49 46 41 40 53 51 52 54 56 57 54 57 55 60 59 58 57 56
55 55 55 55 55 55 55 55 55 55 55 56 56 56 55 55 52 48 53 55 52 50 52 48 51 56 60 54 55 53 53 51 52 52 48 48 47 44 39 49 50 52 52 55 56 58 57 58 58 59 59 57 55 53
54 54 54 55 55 55 55 55 55 55 55 55 56 55 49 47 46 51 60 58 54 55 49 49 48 48 59 52 53 53 51 49 50 49 47 50 40 39 49 51 52 53 53 56 57 57 58 59 58 58 57 56 54 53
54 54 54 54 54 54 54 55 55 55 55 55 51 48 46 50 59 60 55 52 52 52 50 49 49 50 56 50 49 51 48 48 45 49 49 45 43 49 52 53 57 55 55 55 53 52 52 54 56 57 57 58 57 56
54 54 54 54 54 54 54 54 55 54 54 48 46 46 51 57 55 51 48 47 48 48 50 52 51 51 56 52 50 51 49 51 42 47 48 42 42 50 54 54 53 55 56 57 60 60 58 60 58 57 57 58 58 56
54 53 54 54 54 54 54 54 54 52 50 49 48 49 49 51 49 47 45 48 48 48 51 48 50 55 54 52 50 49 49 48 44 49 46 39 47 51 53 54 55 55 57 59 61 60 59 61 59 58 57 57 57 57
53 53 53 53 54 54 54 54 54 54 52 49 48 49 48 47 39 44 43 45 47 51 50 50 49 52 51 52 50 49 48 46 50 46 44 46 49 52 51 54 55 56 58 60 61 61 61 59 58 58 56 56 56 55
53 53 53 53 53 54 54 54 54 54 50 47 48 40 43 42 45 49 48 51 54 52 53 50 49 51 49 50 48 48 50 50 45 40 45 48 51 54 51 54 55 56 58 59 59 59 59 58 57 57 57 56 55 55
53 53 53 52 53 53 54 54 54 52 50 48 49 38 44 52 52 53 55 53 55 55 56 52 50 50 47 49 47 49 46 46 46 46 47 51 53 52 52 53 55 56 56 56 56 57 57 57 56 56 55 55 55 55
53 53 50 53 54 54 53 53 52 52 52 50 49 45 50 50 49 52 55 52 54 53 53 53 49 50 48 48 47 48 47 45 49 49 52 50 50 51 52 53 55 56 55 55 55 56 56 55 55 57 55 54 55 56
53 48 54 53 53 53 53 51 51 49 49 51 45 49 51 52 51 54 56 52 57 52 49 49 48 48 50 45 46 48 47 51 53 53 52 51 51 54 54 54 55 55 55 54 54 54 55 58 55 53 52 52 53 54
50 53 54 53 53 52 51 50 49 48 45 49 42 49 51 54 54 55 55 57 53 50 49 49 51 46 46 46 46 49 51 53 51 53 53 53 52 53 55 55 55 55 55 55 55 55 54 52 52 56 58 56 53 51
52 52 53 53 53 51 48 49 49 44 48 50 47 46 47 49 51 56 58 55 54 54 51 48 47 45 46 50 50 51 51 50 51 51 51 52 53 53 54 54 55 54 55 55 54 56 58 58 61 61 58 52 56 54
53 53 53 54 53 49 47 48 51 46 42 46 46 45 46 48 52 52 53 54 52 50 47 47 47 49 49 52 53 52 53 52 52 51 51 52 54 57 57 57 55 56 56 56 55 53 53 52 53 55 55 55 58 54
51 52 53 52 50 49 48 47 47 48 49 46 49 48 48 47 49 51 49 50 47 46 48 50 52 57 54 52 55 55 56 53 52 52 52 53 56 57 55 54 55 54 53 53 53 53 51 54 54 52 54 57 56 54
51 53 50 51 48 49 47 51 47 50 50 48 47 48 47 47 48 49 50 48 47 52 52 53 54 55 55 55 56 58 59 57 56 54 51 52 55 56 52 51 52 53 53 52 52 52 52 50 50 51 50 50 51 52
51 51 50 49 46 43 42 49 45 46 44 45 50 47 46 47 50 52 48 51 53 58 57 55 58 58 59 60 59 56 58 56 53 54 56 56 57 55 52 53 54 53 52 52 52 51 50 46 48 49 49 51 51 50
51 48 46 45 44 41 49 44 46 45 45 44 44 46 47 48 53 49 50 53 53 53 54 55 55 54 53 55 54 54 55 55 54 54 55 53 53 53 53 53 53 53 53 51 49 47 47 47 47 49 51 51 52 51
40 40 42 36 46 44 44 42 46 44 44 46 45 46 47 49 47 47 48 50 51 51 52 53 52 53 52 52 53 53 53 54 53 52 52 53 52 52 51 50 50 51 49 49 47 46 46 47 49 52 54 53 53 53
37 44 39 45 45 41 42 45 47 47 49 49 49 48 47 46 46 46 46 50 50 50 51 51 51 50 51 52 52 52 53 52 51 51 52 51 53 52 51 49 48 49 52 52 48 47 47 49 51 53 54 52 47 53
37 42 45 47 47 48 47 48 50 49 47 47 47 46 46 44 46 48 52 52 51 51 52 52 51 50 51 52 53 53 54 53 55 55 55 54 54 55 54 52 51 52 51 50 50 50 50 51 53 55 56 55 55 55
45 47 44 47 44 48 46 48 49 49 49 49 48 47 49 50 48 50 50 52 53 54 54 54 55 56 56 57 55 53 52 53 53 53 53 52 50 50 51 52 52 46 50 51 50 51 52 53 56 56 56 55 53 53
44 48 47 46 48 48 46 48 52 52 50 50 49 47 51 53 52 50 52 53 53 53 52 53 54 54 53 53 54 55 55 54 53 51 51 49 48 51 49 49 49 49 49 49 46 49 53 54 57 57 58 57 54 53
47 52 48 50 48 48 52 52 54 58 55 54 55 51 50 50 51 52 51 52 52 52 53 53 54 54 54 55 57 56 54 55 55 54 51 50 52 52 48 48 48 48 48 49 49 48 45 52 49 53 51 50 50 50
49 48 48 49 50 54 58 60 57 58 57 54 57 51 49 50 51 53 53 53 52 52 54 53 53 53 54 54 54 53 53 55 55 57 58 56 54 51 50 49 49 49 49 49 49 49 52 54 51 51 52 51 51 50
47 47 47 47 48 53 55 54 53 55 53 55 53 51 52 50 51 52 55 55 55 56 54 53 57 56 55 56 56 57 52 57 56 58 59 56 55 53 52 51 50 50 50 50 50 50 51 53 53 53 52 52 52 52
47 47 48 48 48 50 51 55 55 52 51 50 50 51 53 52 52 55 58 56 55 57 57 56 57 57 58 57 58 58 53 58 57 49 47 47 49 50 51 52 53 54 53 52 51 51 51 51 52 51 51 51 52 52

GFSWCAN_sfc_temp_120.txt.gz
Temp
56 56 56 57 57 57 57 57 57 57 57 57 58 58 58 58 58 54 51 54 53 50 51 61 66 58 58 55 53 57 56 56 49 45 43 40 39 41 39 42 41 40 37 36 37 36 38 54 55 49 50 55 59 57
56 56 56 56 56 56 56 57 57 57 57 57 57 58 58 58 58 55 47 57 56 50 53 58 66 69 68 67 57 52 56 53 52 44 41 41 41 39 39 39 42 39 44 40 42 41 49 52 52 55 55 55 56 54
55 56 56 56 56 56 56 56 57 57 56 57 57 58 58 58 58 56 48 49 50 49 53 54 61 65 64 68 67 58 54 55 50 51 45 43 43 41 37 39 42 45 46 44 45 47 49 53 56 57 58 57 55 54
55 55 55 55 55 56 56 56 56 56 56 57 57 57 58 58 57 57 51 48 49 49 46 53 65 63 68 66 67 66 61 54 51 50 46 44 44 46 42 45 44 47 47 44 44 48 50 54 55 57 56 56 54 54
55 55 55 55 55 55 56 56 56 56 56 57 57 57 57 57 56 55 53 53 51 50 46 48 57 61 63 66 67 63 60 54 50 49 46 45 44 45 41 43 42 47 47 45 44 50 51 52 55 57 55 55 54 53
54 55 55 55 55 55 55 56 56 56 56 56 56 56 57 56 55 50 46 48 52 50 47 46 55 58 61 64 63 61 57 52 50 50 47 46 48 47 41 40 49 50 50 51 52 52 53 55 57 59 56 55 55 54
54 54 55 55 55 55 55 55 56 55 55 55 56 56 56 55 52 47 49 49 50 50 48 46 48 58 63 60 57 56 53 51 52 47 46 47 46 45 41 40 53 51 52 53 54 55 53 55 54 57 58 57 56 54
54 54 54 54 55 55 55 55 55 55 55 55 55 56 55 55 53 48 53 54 51 48 49 44 47 53 57 53 54 50 50 50 50 49 45 47 44 42 38 48 50 52 53 53 55 56 56 57 57 57 57 56 54 52
54 54 54 54 54 54 54 55 55 55 55 55 55 55 50 47 44 51 60 57 51 51 46 45 45 47 55 49 49 51 49 48 48 47 45 48 39 38 48 51 52 52 53 55 54 57 56 57 56 56 56 55 53 52
54 54 54 54 54 54 54 54 54 55 55 55 50 45 44 49 59 57 54 50 47 48 46 45 48 48 53 47 47 49 46 47 45 48 47 43 42 48 52 54 55 55 54 55 53 52 53 53 55 55 55 57 57 56
54 54 54 54 54 54 54 54 54 54 54 48 43 44 50 56 53 50 48 46 45 44 46 49 49 50 54 49 48 48 47 47 42 46 46 41 41 48 53 52 53 54 54 56 58 59 58 59 57 56 56 57 56 56
54 53 53 54 54 54 54 54 53 52 51 48 46 50 48 51 48 47 45 45 44 45 50 48 51 53 52 50 49 47 47 45 43 47 45 38 46 51 52 54 53 54 54 57 59 58 58 59 59 59 59 57 57 58
53 53 53 53 53 54 54 53 53 54 53 51 48 47 47 47 39 42 41 43 45 51 50 48 48 50 49 50 47 47 47 45 48 44 43 45 49 51 51 52 53 54 56 57 58 60 59 58 58 58 57 57 57 56
53 53 53 53 53 53 54 53 54 53 49 46 47 39 43 41 43 44 46 47 50 51 50 50 48 48 47 48 46 47 49 48 43 40 44 47 51 53 51 52 53 54 55 57 58 58 57 56 56 57 57 57 56 55
52 53 53 52 53 53 53 53 54 52 48 46 48 39 42 47 49 52 52 51 53 52 52 50 49 48 45 47 45 46 44 44 45 45 47 50 51 52 51 52 54 54 54 55 56 56 56 56 55 56 56 55 56 55
53 53 50 53 53 54 53 53 52 50 49 48 48 44 47 45 47 48 53 52 52 51 52 53 48 46 47 46 45 47 45 43 48 47 51 50 51 51 52 52 53 54 54 55 55 55 55 54 55 55 54 54 54 54
52 48 54 53 54 53 53 50 50 48 46 47 47 47 47 50 48 52 53 55 52 50 48 50 48 49 48 45 44 47 46 48 50 51 50 50 52 53 51 52 53 54 54 54 54 53 54 55 54 53 52 52 54 54
50 53 54 54 52 52 50 50 48 47 44 48 43 48 49 51 52 50 55 55 52 49 49 49 49 46 46 46 45 47 48 49 49 50 51 51 52 52 54 53 53 54 54 54 54 54 53 53 52 54 54 54 53 53
52 52 53 54 52 50 47 48 48 43 47 47 46 47 45 47 48 54 56 55 54 53 50 47 46 45 46 48 48 49 49 49 49 50 50 50 51 52 53 54 54 53 53 53 52 54 55 55 58 57 56 52 56 56
52 53 53 53 53 49 47 47 51 43 41 45 45 43 44 45 48 48 53 50 51 49 47 46 46 48 48 51 52 52 52 52 51 50 50 51 52 53 54 54 53 54 54 54 54 50 53 52 53 55 55 55 56 55
50 51 53 52 50 49 47 47 46 48 45 43 49 47 45 45 45 45 47 49 46 46 47 49 51 53 53 52 53 54 54 53 53 53 53 53 54 54 54 54 56 55 54 53 53 53 50 53 56 53 52 52 53 55
50 54 50 50 48 49 47 49 48 49 46 48 47 49 46 45 45 45 47 46 45 49 51 53 53 57 52 53 55 55 55 55 55 54 48 51 55 55 54 54 53 53 53 53 53 54 54 54 52 52 52 52 51 53
51 51 49 48 45 43 42 48 45 45 42 45 48 47 44 44 47 49 46 47 50 53 57 57 57 54 55 56 56 55 55 56 54 55 55 55 56 55 54 54 54 53 53 53 53 53 53 47 49 50 50 51 51 51
51 48 45 45 43 40 48 44 47 45 44 43 43 44 46 47 50 48 46 47 50 50 51 53 54 53 52 53 52 54 54 56 55 54 54 54 52 53 54 54 54 54 54 53 52 52 51 50 47 50 51 51 51 52
41 41 41 36 45 43 43 44 45 43 42 43 43 43 44 46 44 45 45 47 50 50 51 53 53 53 53 53 53 52 53 54 53 53 53 54 53 52 52 52 52 52 52 51 50 50 50 50 50 51 52 52 52 52
36 43 37 43 44 41 42 43 43 45 47 47 48 49 46 44 44 44 45 49 50 51 52 52 52 52 52 52 53 52 54 54 54 53 54 53 52 53 53 52 51 52 52 52 52 52 51 50 50 51 52 52 47 54
36 40 43 44 47 47 45 46 47 45 46 46 47 46 46 44 45 48 51 53 52 52 53 53 52 52 52 52 53 54 53 54 55 55 54 54 54 55 55 54 53 54 54 53 53 53 52 51 51 53 54 54 55 57
39 42 39 45 43 45 44 45 47 45 47 49 48 46 47 50 48 51 51 53 54 54 54 55 55 55 55 54 54 54 53 53 53 53 54 54 53 53 54 54 53 46 52 53 53 53 52 53 53 54 55 55 55 57
43 47 46 44 46 46 46 44 49 51 50 49 48 47 50 52 52 50 52 53 53 53 52 53 54 53 53 53 53 53 53 54 54 53 53 52 52 55 52 52 52 51 51 52 44 49 53 54 55 56 56 56 56 55
45 48 45 48 46 44 48 51 52 55 53 53 54 50 48 49 50 53 52 52 54 54 53 52 53 55 55 54 55 55 55 54 56 56 54 53 55 56 53 52 52 51 51 52 52 52 45 51 50 56 55 55 54 53
48 46 45 46 49 53 56 56 54 56 57 55 54 50 49 50 51 52 54 54 54 52 52 53 53 54 55 55 54 54 55 56 56 57 58 58 57 55 53 52 52 51 51 52 52 52 53 54 54 54 54 54 54 54
46 46 48 47 49 54 55 52 52 54 52 53 51 52 52 50 52 52 54 53 53 54 53 54 57 56 55 56 57 57 50 59 59 58 58 59 58 57 54 53 52 52 52 52 53 53 54 55 55 55 55 55 55 55
45 45 46 46 48 49 51 53 54 50 52 50 51 52 53 52 53 55 56 54 55 56 56 56 57 56 57 57 58 57 53 58 55 46 45 46 47 50 54 54 54 55 54 53 54 54 54 54 55 56 56 56 55 55